<?xml version="1.0" encoding="UTF-8" standalone="no" ?>
<gpx xmlns="http://www.topografix.com/GPX/1/1" xmlns:xsi="http://www.w3.org/2001/XMLSchema-instance" xsi:schemaLocation="http://www.topografix.com/GPX/1/1 http://www.topografix.com/GPX/1/1/gpx.xsd" version="1.1" creator="VisuGPX - https://www.visugpx.com">
  <metadata>
    <name>Tour du Ferrouillet</name>
    <desc><![CDATA[

]]></desc>
  </metadata>
  <trk>
    <name><![CDATA[Tour du Ferrouillet]]></name>
    <extensions>
      <line xmlns="http://www.topografix.com/GPX/gpx_style/0/2">
        <color>0000FF</color>
        <width>4</width>
      </line>
    </extensions>
    <trkseg>
      <trkpt lat="45.22728" lon="5.99372">
        <ele>1290.4449462891</ele>
        <time>2017-03-10T07:09:45Z</time>
      </trkpt>
      <trkpt lat="45.22728" lon="5.99366">
        <ele>1293.4449462891</ele>
        <time>2017-03-10T07:09:57Z</time>
      </trkpt>
      <trkpt lat="45.22725" lon="5.99372">
        <ele>1293.4449462891</ele>
        <time>2017-03-10T07:10:12Z</time>
      </trkpt>
      <trkpt lat="45.22723" lon="5.99378">
        <ele>1295.4449462891</ele>
        <time>2017-03-10T07:10:16Z</time>
      </trkpt>
      <trkpt lat="45.22718" lon="5.99377">
        <ele>1298.4449462891</ele>
        <time>2017-03-10T07:10:20Z</time>
      </trkpt>
      <trkpt lat="45.22713" lon="5.99382">
        <ele>1298.4449462891</ele>
        <time>2017-03-10T07:10:26Z</time>
      </trkpt>
      <trkpt lat="45.22708" lon="5.99385">
        <ele>1300.4449462891</ele>
        <time>2017-03-10T07:10:30Z</time>
      </trkpt>
      <trkpt lat="45.22702" lon="5.99386">
        <ele>1301.4449462891</ele>
        <time>2017-03-10T07:10:34Z</time>
      </trkpt>
      <trkpt lat="45.22698" lon="5.9939">
        <ele>1302.4449462891</ele>
        <time>2017-03-10T07:10:38Z</time>
      </trkpt>
      <trkpt lat="45.22693" lon="5.99393">
        <ele>1303.4449462891</ele>
        <time>2017-03-10T07:10:42Z</time>
      </trkpt>
      <trkpt lat="45.22688" lon="5.99395">
        <ele>1303.4449462891</ele>
        <time>2017-03-10T07:10:46Z</time>
      </trkpt>
      <trkpt lat="45.22683" lon="5.99396">
        <ele>1304.4449462891</ele>
        <time>2017-03-10T07:10:49Z</time>
      </trkpt>
      <trkpt lat="45.22678" lon="5.99399">
        <ele>1304.4449462891</ele>
        <time>2017-03-10T07:10:53Z</time>
      </trkpt>
      <trkpt lat="45.22674" lon="5.99404">
        <ele>1305.4449462891</ele>
        <time>2017-03-10T07:10:57Z</time>
      </trkpt>
      <trkpt lat="45.22669" lon="5.99404">
        <ele>1305.4449462891</ele>
        <time>2017-03-10T07:11:00Z</time>
      </trkpt>
      <trkpt lat="45.22664" lon="5.99407">
        <ele>1304.4449462891</ele>
        <time>2017-03-10T07:11:03Z</time>
      </trkpt>
      <trkpt lat="45.2266" lon="5.99408">
        <ele>1304.4449462891</ele>
        <time>2017-03-10T07:11:22Z</time>
      </trkpt>
      <trkpt lat="45.22655" lon="5.99409">
        <ele>1304.4439697266</ele>
        <time>2017-03-10T07:11:34Z</time>
      </trkpt>
      <trkpt lat="45.2265" lon="5.99405">
        <ele>1301.4439697266</ele>
        <time>2017-03-10T07:11:41Z</time>
      </trkpt>
      <trkpt lat="45.22645" lon="5.99401">
        <ele>1301.4439697266</ele>
        <time>2017-03-10T07:11:44Z</time>
      </trkpt>
      <trkpt lat="45.2264" lon="5.99398">
        <ele>1300.4439697266</ele>
        <time>2017-03-10T07:11:48Z</time>
      </trkpt>
      <trkpt lat="45.22634" lon="5.99396">
        <ele>1304.4439697266</ele>
        <time>2017-03-10T07:11:55Z</time>
      </trkpt>
      <trkpt lat="45.22628" lon="5.99394">
        <ele>1301.4439697266</ele>
        <time>2017-03-10T07:12:00Z</time>
      </trkpt>
      <trkpt lat="45.22621" lon="5.99392">
        <ele>1300.4439697266</ele>
        <time>2017-03-10T07:12:03Z</time>
      </trkpt>
      <trkpt lat="45.22617" lon="5.9939">
        <ele>1301.4439697266</ele>
        <time>2017-03-10T07:12:06Z</time>
      </trkpt>
      <trkpt lat="45.22612" lon="5.99389">
        <ele>1301.4439697266</ele>
        <time>2017-03-10T07:12:09Z</time>
      </trkpt>
      <trkpt lat="45.22607" lon="5.99388">
        <ele>1300.4439697266</ele>
        <time>2017-03-10T07:12:13Z</time>
      </trkpt>
      <trkpt lat="45.22601" lon="5.99385">
        <ele>1299.4439697266</ele>
        <time>2017-03-10T07:12:17Z</time>
      </trkpt>
      <trkpt lat="45.22595" lon="5.99384">
        <ele>1300.4439697266</ele>
        <time>2017-03-10T07:12:20Z</time>
      </trkpt>
      <trkpt lat="45.22591" lon="5.99384">
        <ele>1300.4439697266</ele>
        <time>2017-03-10T07:12:24Z</time>
      </trkpt>
      <trkpt lat="45.22586" lon="5.99382">
        <ele>1298.4439697266</ele>
        <time>2017-03-10T07:12:27Z</time>
      </trkpt>
      <trkpt lat="45.2258" lon="5.99382">
        <ele>1297.4439697266</ele>
        <time>2017-03-10T07:12:31Z</time>
      </trkpt>
      <trkpt lat="45.22576" lon="5.99382">
        <ele>1297.4439697266</ele>
        <time>2017-03-10T07:12:34Z</time>
      </trkpt>
      <trkpt lat="45.22571" lon="5.9938">
        <ele>1297.4439697266</ele>
        <time>2017-03-10T07:12:37Z</time>
      </trkpt>
      <trkpt lat="45.22566" lon="5.99377">
        <ele>1297.4439697266</ele>
        <time>2017-03-10T07:12:39Z</time>
      </trkpt>
      <trkpt lat="45.22561" lon="5.99375">
        <ele>1297.4439697266</ele>
        <time>2017-03-10T07:12:44Z</time>
      </trkpt>
      <trkpt lat="45.22556" lon="5.99373">
        <ele>1298.4439697266</ele>
        <time>2017-03-10T07:12:47Z</time>
      </trkpt>
      <trkpt lat="45.22551" lon="5.99378">
        <ele>1294.4439697266</ele>
        <time>2017-03-10T07:12:50Z</time>
      </trkpt>
      <trkpt lat="45.22546" lon="5.99378">
        <ele>1293.4439697266</ele>
        <time>2017-03-10T07:12:54Z</time>
      </trkpt>
      <trkpt lat="45.22541" lon="5.99382">
        <ele>1294.4439697266</ele>
        <time>2017-03-10T07:12:57Z</time>
      </trkpt>
      <trkpt lat="45.22536" lon="5.99385">
        <ele>1297.4439697266</ele>
        <time>2017-03-10T07:13:01Z</time>
      </trkpt>
      <trkpt lat="45.22531" lon="5.99386">
        <ele>1299.4439697266</ele>
        <time>2017-03-10T07:13:05Z</time>
      </trkpt>
      <trkpt lat="45.22528" lon="5.99393">
        <ele>1299.4439697266</ele>
        <time>2017-03-10T07:13:09Z</time>
      </trkpt>
      <trkpt lat="45.22523" lon="5.99396">
        <ele>1300.4439697266</ele>
        <time>2017-03-10T07:13:15Z</time>
      </trkpt>
      <trkpt lat="45.2252" lon="5.99402">
        <ele>1298.4439697266</ele>
        <time>2017-03-10T07:13:19Z</time>
      </trkpt>
      <trkpt lat="45.22516" lon="5.99408">
        <ele>1299.4439697266</ele>
        <time>2017-03-10T07:13:23Z</time>
      </trkpt>
      <trkpt lat="45.22513" lon="5.99412">
        <ele>1298.4439697266</ele>
        <time>2017-03-10T07:13:27Z</time>
      </trkpt>
      <trkpt lat="45.22512" lon="5.9942">
        <ele>1299.4439697266</ele>
        <time>2017-03-10T07:13:31Z</time>
      </trkpt>
      <trkpt lat="45.22511" lon="5.99427">
        <ele>1301.4439697266</ele>
        <time>2017-03-10T07:13:37Z</time>
      </trkpt>
      <trkpt lat="45.22512" lon="5.99434">
        <ele>1300.4439697266</ele>
        <time>2017-03-10T07:13:42Z</time>
      </trkpt>
      <trkpt lat="45.22511" lon="5.99441">
        <ele>1300.4439697266</ele>
        <time>2017-03-10T07:13:47Z</time>
      </trkpt>
      <trkpt lat="45.22514" lon="5.99447">
        <ele>1299.4439697266</ele>
        <time>2017-03-10T07:13:53Z</time>
      </trkpt>
      <trkpt lat="45.22513" lon="5.99456">
        <ele>1300.4439697266</ele>
        <time>2017-03-10T07:13:59Z</time>
      </trkpt>
      <trkpt lat="45.2251" lon="5.99461">
        <ele>1301.4439697266</ele>
        <time>2017-03-10T07:14:02Z</time>
      </trkpt>
      <trkpt lat="45.2251" lon="5.99469">
        <ele>1299.4439697266</ele>
        <time>2017-03-10T07:14:06Z</time>
      </trkpt>
      <trkpt lat="45.22506" lon="5.99474">
        <ele>1298.4439697266</ele>
        <time>2017-03-10T07:14:09Z</time>
      </trkpt>
      <trkpt lat="45.22506" lon="5.99481">
        <ele>1297.4439697266</ele>
        <time>2017-03-10T07:14:13Z</time>
      </trkpt>
      <trkpt lat="45.22506" lon="5.9949">
        <ele>1296.4439697266</ele>
        <time>2017-03-10T07:14:17Z</time>
      </trkpt>
      <trkpt lat="45.22505" lon="5.99496">
        <ele>1298.4439697266</ele>
        <time>2017-03-10T07:14:20Z</time>
      </trkpt>
      <trkpt lat="45.22502" lon="5.99501">
        <ele>1298.4439697266</ele>
        <time>2017-03-10T07:14:24Z</time>
      </trkpt>
      <trkpt lat="45.225" lon="5.99507">
        <ele>1298.4439697266</ele>
        <time>2017-03-10T07:14:28Z</time>
      </trkpt>
      <trkpt lat="45.22496" lon="5.99513">
        <ele>1298.4439697266</ele>
        <time>2017-03-10T07:14:32Z</time>
      </trkpt>
      <trkpt lat="45.22495" lon="5.9952">
        <ele>1299.4439697266</ele>
        <time>2017-03-10T07:14:35Z</time>
      </trkpt>
      <trkpt lat="45.22495" lon="5.99529">
        <ele>1298.4439697266</ele>
        <time>2017-03-10T07:14:38Z</time>
      </trkpt>
      <trkpt lat="45.22491" lon="5.99535">
        <ele>1297.4439697266</ele>
        <time>2017-03-10T07:14:58Z</time>
      </trkpt>
      <trkpt lat="45.22485" lon="5.99539">
        <ele>1296.4439697266</ele>
        <time>2017-03-10T07:15:01Z</time>
      </trkpt>
      <trkpt lat="45.22481" lon="5.99547">
        <ele>1299.4439697266</ele>
        <time>2017-03-10T07:15:04Z</time>
      </trkpt>
      <trkpt lat="45.22477" lon="5.9955">
        <ele>1300.4439697266</ele>
        <time>2017-03-10T07:15:07Z</time>
      </trkpt>
      <trkpt lat="45.22474" lon="5.99555">
        <ele>1302.4439697266</ele>
        <time>2017-03-10T07:15:10Z</time>
      </trkpt>
      <trkpt lat="45.2247" lon="5.99561">
        <ele>1302.4439697266</ele>
        <time>2017-03-10T07:15:14Z</time>
      </trkpt>
      <trkpt lat="45.22468" lon="5.9957">
        <ele>1302.4439697266</ele>
        <time>2017-03-10T07:15:18Z</time>
      </trkpt>
      <trkpt lat="45.22466" lon="5.99577">
        <ele>1305.4439697266</ele>
        <time>2017-03-10T07:15:22Z</time>
      </trkpt>
      <trkpt lat="45.22464" lon="5.99584">
        <ele>1306.4439697266</ele>
        <time>2017-03-10T07:15:26Z</time>
      </trkpt>
      <trkpt lat="45.22461" lon="5.9959">
        <ele>1309.4439697266</ele>
        <time>2017-03-10T07:15:29Z</time>
      </trkpt>
      <trkpt lat="45.22457" lon="5.99595">
        <ele>1310.4439697266</ele>
        <time>2017-03-10T07:15:33Z</time>
      </trkpt>
      <trkpt lat="45.22455" lon="5.99601">
        <ele>1309.4439697266</ele>
        <time>2017-03-10T07:15:36Z</time>
      </trkpt>
      <trkpt lat="45.22451" lon="5.99604">
        <ele>1307.4439697266</ele>
        <time>2017-03-10T07:15:40Z</time>
      </trkpt>
      <trkpt lat="45.22449" lon="5.99612">
        <ele>1305.4439697266</ele>
        <time>2017-03-10T07:15:43Z</time>
      </trkpt>
      <trkpt lat="45.22448" lon="5.9962">
        <ele>1305.4439697266</ele>
        <time>2017-03-10T07:15:47Z</time>
      </trkpt>
      <trkpt lat="45.22445" lon="5.99627">
        <ele>1304.4439697266</ele>
        <time>2017-03-10T07:15:51Z</time>
      </trkpt>
      <trkpt lat="45.22442" lon="5.99632">
        <ele>1304.4439697266</ele>
        <time>2017-03-10T07:15:54Z</time>
      </trkpt>
      <trkpt lat="45.22439" lon="5.99639">
        <ele>1305.4439697266</ele>
        <time>2017-03-10T07:15:57Z</time>
      </trkpt>
      <trkpt lat="45.22434" lon="5.99641">
        <ele>1304.4439697266</ele>
        <time>2017-03-10T07:16:01Z</time>
      </trkpt>
      <trkpt lat="45.2243" lon="5.99645">
        <ele>1303.4439697266</ele>
        <time>2017-03-10T07:16:04Z</time>
      </trkpt>
      <trkpt lat="45.22425" lon="5.99647">
        <ele>1304.4439697266</ele>
        <time>2017-03-10T07:16:07Z</time>
      </trkpt>
      <trkpt lat="45.22422" lon="5.99653">
        <ele>1304.4439697266</ele>
        <time>2017-03-10T07:16:10Z</time>
      </trkpt>
      <trkpt lat="45.22417" lon="5.99655">
        <ele>1303.4439697266</ele>
        <time>2017-03-10T07:16:14Z</time>
      </trkpt>
      <trkpt lat="45.22413" lon="5.99654">
        <ele>1304.4439697266</ele>
        <time>2017-03-10T07:16:18Z</time>
      </trkpt>
      <trkpt lat="45.22407" lon="5.99654">
        <ele>1306.4439697266</ele>
        <time>2017-03-10T07:16:22Z</time>
      </trkpt>
      <trkpt lat="45.22402" lon="5.99649">
        <ele>1303.4439697266</ele>
        <time>2017-03-10T07:16:27Z</time>
      </trkpt>
      <trkpt lat="45.22396" lon="5.99648">
        <ele>1304.4439697266</ele>
        <time>2017-03-10T07:16:31Z</time>
      </trkpt>
      <trkpt lat="45.2239" lon="5.99645">
        <ele>1307.4439697266</ele>
        <time>2017-03-10T07:16:35Z</time>
      </trkpt>
      <trkpt lat="45.22386" lon="5.99639">
        <ele>1310.4439697266</ele>
        <time>2017-03-10T07:16:39Z</time>
      </trkpt>
      <trkpt lat="45.22381" lon="5.99638">
        <ele>1309.4439697266</ele>
        <time>2017-03-10T07:16:43Z</time>
      </trkpt>
      <trkpt lat="45.22376" lon="5.99633">
        <ele>1307.4439697266</ele>
        <time>2017-03-10T07:16:46Z</time>
      </trkpt>
      <trkpt lat="45.22371" lon="5.99633">
        <ele>1306.4439697266</ele>
        <time>2017-03-10T07:16:51Z</time>
      </trkpt>
      <trkpt lat="45.22365" lon="5.99629">
        <ele>1304.4439697266</ele>
        <time>2017-03-10T07:16:56Z</time>
      </trkpt>
      <trkpt lat="45.22362" lon="5.99624">
        <ele>1302.4439697266</ele>
        <time>2017-03-10T07:17:00Z</time>
      </trkpt>
      <trkpt lat="45.22358" lon="5.9962">
        <ele>1302.4439697266</ele>
        <time>2017-03-10T07:17:03Z</time>
      </trkpt>
      <trkpt lat="45.22354" lon="5.99617">
        <ele>1303.4439697266</ele>
        <time>2017-03-10T07:17:06Z</time>
      </trkpt>
      <trkpt lat="45.2235" lon="5.99614">
        <ele>1303.4439697266</ele>
        <time>2017-03-10T07:17:10Z</time>
      </trkpt>
      <trkpt lat="45.22346" lon="5.99611">
        <ele>1302.4439697266</ele>
        <time>2017-03-10T07:17:14Z</time>
      </trkpt>
      <trkpt lat="45.22341" lon="5.99608">
        <ele>1301.4439697266</ele>
        <time>2017-03-10T07:17:19Z</time>
      </trkpt>
      <trkpt lat="45.22337" lon="5.99604">
        <ele>1301.4439697266</ele>
        <time>2017-03-10T07:17:22Z</time>
      </trkpt>
      <trkpt lat="45.22334" lon="5.996">
        <ele>1302.4439697266</ele>
        <time>2017-03-10T07:17:27Z</time>
      </trkpt>
      <trkpt lat="45.22332" lon="5.99594">
        <ele>1302.4439697266</ele>
        <time>2017-03-10T07:17:49Z</time>
      </trkpt>
      <trkpt lat="45.22328" lon="5.99589">
        <ele>1303.4439697266</ele>
        <time>2017-03-10T07:17:52Z</time>
      </trkpt>
      <trkpt lat="45.22323" lon="5.99588">
        <ele>1302.4439697266</ele>
        <time>2017-03-10T07:17:55Z</time>
      </trkpt>
      <trkpt lat="45.22319" lon="5.99584">
        <ele>1309.4439697266</ele>
        <time>2017-03-10T07:17:59Z</time>
      </trkpt>
      <trkpt lat="45.22314" lon="5.9958">
        <ele>1312.4439697266</ele>
        <time>2017-03-10T07:18:03Z</time>
      </trkpt>
      <trkpt lat="45.2231" lon="5.99577">
        <ele>1315.4439697266</ele>
        <time>2017-03-10T07:18:07Z</time>
      </trkpt>
      <trkpt lat="45.22304" lon="5.99575">
        <ele>1317.4439697266</ele>
        <time>2017-03-10T07:18:11Z</time>
      </trkpt>
      <trkpt lat="45.223" lon="5.99575">
        <ele>1318.4439697266</ele>
        <time>2017-03-10T07:18:16Z</time>
      </trkpt>
      <trkpt lat="45.22295" lon="5.99573">
        <ele>1318.4439697266</ele>
        <time>2017-03-10T07:18:21Z</time>
      </trkpt>
      <trkpt lat="45.2229" lon="5.99574">
        <ele>1316.4439697266</ele>
        <time>2017-03-10T07:18:29Z</time>
      </trkpt>
      <trkpt lat="45.22287" lon="5.99579">
        <ele>1315.4439697266</ele>
        <time>2017-03-10T07:18:41Z</time>
      </trkpt>
      <trkpt lat="45.22283" lon="5.99584">
        <ele>1315.4439697266</ele>
        <time>2017-03-10T07:18:52Z</time>
      </trkpt>
      <trkpt lat="45.2228" lon="5.9959">
        <ele>1315.4439697266</ele>
        <time>2017-03-10T07:18:55Z</time>
      </trkpt>
      <trkpt lat="45.22277" lon="5.99597">
        <ele>1318.4439697266</ele>
        <time>2017-03-10T07:18:59Z</time>
      </trkpt>
      <trkpt lat="45.22273" lon="5.99601">
        <ele>1317.4439697266</ele>
        <time>2017-03-10T07:19:05Z</time>
      </trkpt>
      <trkpt lat="45.22272" lon="5.99608">
        <ele>1317.4439697266</ele>
        <time>2017-03-10T07:19:08Z</time>
      </trkpt>
      <trkpt lat="45.22269" lon="5.99612">
        <ele>1318.4439697266</ele>
        <time>2017-03-10T07:19:13Z</time>
      </trkpt>
      <trkpt lat="45.22265" lon="5.99618">
        <ele>1320.4439697266</ele>
        <time>2017-03-10T07:19:17Z</time>
      </trkpt>
      <trkpt lat="45.22261" lon="5.99624">
        <ele>1323.4439697266</ele>
        <time>2017-03-10T07:19:22Z</time>
      </trkpt>
      <trkpt lat="45.22257" lon="5.99628">
        <ele>1323.4439697266</ele>
        <time>2017-03-10T07:19:29Z</time>
      </trkpt>
      <trkpt lat="45.22254" lon="5.99634">
        <ele>1326.4439697266</ele>
        <time>2017-03-10T07:19:33Z</time>
      </trkpt>
      <trkpt lat="45.2225" lon="5.99639">
        <ele>1326.4439697266</ele>
        <time>2017-03-10T07:19:39Z</time>
      </trkpt>
      <trkpt lat="45.22246" lon="5.99644">
        <ele>1330.4439697266</ele>
        <time>2017-03-10T07:19:44Z</time>
      </trkpt>
      <trkpt lat="45.22242" lon="5.99647">
        <ele>1332.4439697266</ele>
        <time>2017-03-10T07:19:50Z</time>
      </trkpt>
      <trkpt lat="45.22237" lon="5.99644">
        <ele>1337.4439697266</ele>
        <time>2017-03-10T07:21:24Z</time>
      </trkpt>
      <trkpt lat="45.22231" lon="5.99645">
        <ele>1338.4439697266</ele>
        <time>2017-03-10T07:21:29Z</time>
      </trkpt>
      <trkpt lat="45.22226" lon="5.99643">
        <ele>1338.4439697266</ele>
        <time>2017-03-10T07:21:33Z</time>
      </trkpt>
      <trkpt lat="45.22221" lon="5.99644">
        <ele>1341.4439697266</ele>
        <time>2017-03-10T07:21:38Z</time>
      </trkpt>
      <trkpt lat="45.22215" lon="5.9964">
        <ele>1339.4439697266</ele>
        <time>2017-03-10T07:21:43Z</time>
      </trkpt>
      <trkpt lat="45.2221" lon="5.99641">
        <ele>1344.4439697266</ele>
        <time>2017-03-10T07:21:56Z</time>
      </trkpt>
      <trkpt lat="45.22205" lon="5.99637">
        <ele>1343.4439697266</ele>
        <time>2017-03-10T07:22:01Z</time>
      </trkpt>
      <trkpt lat="45.22201" lon="5.99634">
        <ele>1342.4439697266</ele>
        <time>2017-03-10T07:22:06Z</time>
      </trkpt>
      <trkpt lat="45.22196" lon="5.99633">
        <ele>1344.4439697266</ele>
        <time>2017-03-10T07:22:19Z</time>
      </trkpt>
      <trkpt lat="45.22191" lon="5.99631">
        <ele>1346.4439697266</ele>
        <time>2017-03-10T07:22:25Z</time>
      </trkpt>
      <trkpt lat="45.22186" lon="5.99633">
        <ele>1346.4439697266</ele>
        <time>2017-03-10T07:22:29Z</time>
      </trkpt>
      <trkpt lat="45.22181" lon="5.99636">
        <ele>1346.4439697266</ele>
        <time>2017-03-10T07:22:39Z</time>
      </trkpt>
      <trkpt lat="45.22176" lon="5.99641">
        <ele>1344.4439697266</ele>
        <time>2017-03-10T07:22:43Z</time>
      </trkpt>
      <trkpt lat="45.22172" lon="5.99643">
        <ele>1347.4439697266</ele>
        <time>2017-03-10T07:22:48Z</time>
      </trkpt>
      <trkpt lat="45.22167" lon="5.99643">
        <ele>1353.4439697266</ele>
        <time>2017-03-10T07:22:54Z</time>
      </trkpt>
      <trkpt lat="45.22166" lon="5.9965">
        <ele>1358.4439697266</ele>
        <time>2017-03-10T07:23:09Z</time>
      </trkpt>
      <trkpt lat="45.22161" lon="5.99651">
        <ele>1360.4439697266</ele>
        <time>2017-03-10T07:23:13Z</time>
      </trkpt>
      <trkpt lat="45.22157" lon="5.99655">
        <ele>1362.4439697266</ele>
        <time>2017-03-10T07:23:18Z</time>
      </trkpt>
      <trkpt lat="45.22152" lon="5.99658">
        <ele>1367.4439697266</ele>
        <time>2017-03-10T07:23:27Z</time>
      </trkpt>
      <trkpt lat="45.22147" lon="5.9966">
        <ele>1371.4439697266</ele>
        <time>2017-03-10T07:23:32Z</time>
      </trkpt>
      <trkpt lat="45.22144" lon="5.99656">
        <ele>1371.4439697266</ele>
        <time>2017-03-10T07:23:38Z</time>
      </trkpt>
      <trkpt lat="45.22139" lon="5.99652">
        <ele>1370.4439697266</ele>
        <time>2017-03-10T07:23:52Z</time>
      </trkpt>
      <trkpt lat="45.22134" lon="5.99651">
        <ele>1371.4439697266</ele>
        <time>2017-03-10T07:23:55Z</time>
      </trkpt>
      <trkpt lat="45.22129" lon="5.99651">
        <ele>1375.4439697266</ele>
        <time>2017-03-10T07:24:02Z</time>
      </trkpt>
      <trkpt lat="45.22123" lon="5.99651">
        <ele>1372.4439697266</ele>
        <time>2017-03-10T07:24:07Z</time>
      </trkpt>
      <trkpt lat="45.22118" lon="5.99652">
        <ele>1374.4439697266</ele>
        <time>2017-03-10T07:24:12Z</time>
      </trkpt>
      <trkpt lat="45.22113" lon="5.9965">
        <ele>1376.4439697266</ele>
        <time>2017-03-10T07:24:17Z</time>
      </trkpt>
      <trkpt lat="45.22108" lon="5.99646">
        <ele>1379.4439697266</ele>
        <time>2017-03-10T07:24:22Z</time>
      </trkpt>
      <trkpt lat="45.22105" lon="5.99639">
        <ele>1375.4439697266</ele>
        <time>2017-03-10T07:24:26Z</time>
      </trkpt>
      <trkpt lat="45.22102" lon="5.99633">
        <ele>1375.4439697266</ele>
        <time>2017-03-10T07:24:29Z</time>
      </trkpt>
      <trkpt lat="45.22098" lon="5.99628">
        <ele>1375.4439697266</ele>
        <time>2017-03-10T07:24:32Z</time>
      </trkpt>
      <trkpt lat="45.22094" lon="5.99623">
        <ele>1375.4439697266</ele>
        <time>2017-03-10T07:24:36Z</time>
      </trkpt>
      <trkpt lat="45.2209" lon="5.99617">
        <ele>1373.4439697266</ele>
        <time>2017-03-10T07:24:39Z</time>
      </trkpt>
      <trkpt lat="45.22088" lon="5.99611">
        <ele>1375.4439697266</ele>
        <time>2017-03-10T07:24:42Z</time>
      </trkpt>
      <trkpt lat="45.22084" lon="5.99605">
        <ele>1376.4439697266</ele>
        <time>2017-03-10T07:24:46Z</time>
      </trkpt>
      <trkpt lat="45.22081" lon="5.996">
        <ele>1376.4439697266</ele>
        <time>2017-03-10T07:24:51Z</time>
      </trkpt>
      <trkpt lat="45.22079" lon="5.99594">
        <ele>1379.4439697266</ele>
        <time>2017-03-10T07:24:54Z</time>
      </trkpt>
      <trkpt lat="45.22075" lon="5.99589">
        <ele>1378.4439697266</ele>
        <time>2017-03-10T07:24:58Z</time>
      </trkpt>
      <trkpt lat="45.22071" lon="5.99586">
        <ele>1382.4439697266</ele>
        <time>2017-03-10T07:25:01Z</time>
      </trkpt>
      <trkpt lat="45.22066" lon="5.99582">
        <ele>1382.4439697266</ele>
        <time>2017-03-10T07:25:06Z</time>
      </trkpt>
      <trkpt lat="45.22061" lon="5.99579">
        <ele>1384.4439697266</ele>
        <time>2017-03-10T07:25:10Z</time>
      </trkpt>
      <trkpt lat="45.22055" lon="5.99575">
        <ele>1385.4439697266</ele>
        <time>2017-03-10T07:25:15Z</time>
      </trkpt>
      <trkpt lat="45.22049" lon="5.99574">
        <ele>1385.4439697266</ele>
        <time>2017-03-10T07:25:19Z</time>
      </trkpt>
      <trkpt lat="45.22044" lon="5.99574">
        <ele>1384.4429931641</ele>
        <time>2017-03-10T07:25:25Z</time>
      </trkpt>
      <trkpt lat="45.22038" lon="5.99573">
        <ele>1386.4429931641</ele>
        <time>2017-03-10T07:25:31Z</time>
      </trkpt>
      <trkpt lat="45.22033" lon="5.99572">
        <ele>1386.4429931641</ele>
        <time>2017-03-10T07:25:35Z</time>
      </trkpt>
      <trkpt lat="45.22028" lon="5.99573">
        <ele>1386.4429931641</ele>
        <time>2017-03-10T07:25:40Z</time>
      </trkpt>
      <trkpt lat="45.22022" lon="5.99571">
        <ele>1387.4429931641</ele>
        <time>2017-03-10T07:25:45Z</time>
      </trkpt>
      <trkpt lat="45.22018" lon="5.99567">
        <ele>1387.4429931641</ele>
        <time>2017-03-10T07:25:50Z</time>
      </trkpt>
      <trkpt lat="45.22013" lon="5.99566">
        <ele>1388.4429931641</ele>
        <time>2017-03-10T07:25:54Z</time>
      </trkpt>
      <trkpt lat="45.22007" lon="5.99564">
        <ele>1387.4429931641</ele>
        <time>2017-03-10T07:25:58Z</time>
      </trkpt>
      <trkpt lat="45.22002" lon="5.99561">
        <ele>1386.4429931641</ele>
        <time>2017-03-10T07:26:02Z</time>
      </trkpt>
      <trkpt lat="45.21997" lon="5.99559">
        <ele>1389.4429931641</ele>
        <time>2017-03-10T07:26:06Z</time>
      </trkpt>
      <trkpt lat="45.21992" lon="5.99557">
        <ele>1389.4429931641</ele>
        <time>2017-03-10T07:26:11Z</time>
      </trkpt>
      <trkpt lat="45.21987" lon="5.99556">
        <ele>1389.4429931641</ele>
        <time>2017-03-10T07:26:16Z</time>
      </trkpt>
      <trkpt lat="45.21982" lon="5.99555">
        <ele>1389.4429931641</ele>
        <time>2017-03-10T07:26:21Z</time>
      </trkpt>
      <trkpt lat="45.21977" lon="5.9955">
        <ele>1388.4429931641</ele>
        <time>2017-03-10T07:26:25Z</time>
      </trkpt>
      <trkpt lat="45.21973" lon="5.99546">
        <ele>1388.4429931641</ele>
        <time>2017-03-10T07:26:28Z</time>
      </trkpt>
      <trkpt lat="45.21969" lon="5.99543">
        <ele>1389.4429931641</ele>
        <time>2017-03-10T07:26:32Z</time>
      </trkpt>
      <trkpt lat="45.21965" lon="5.9954">
        <ele>1389.4429931641</ele>
        <time>2017-03-10T07:26:35Z</time>
      </trkpt>
      <trkpt lat="45.21961" lon="5.99534">
        <ele>1390.4429931641</ele>
        <time>2017-03-10T07:26:39Z</time>
      </trkpt>
      <trkpt lat="45.21958" lon="5.9953">
        <ele>1389.4429931641</ele>
        <time>2017-03-10T07:26:43Z</time>
      </trkpt>
      <trkpt lat="45.21954" lon="5.99526">
        <ele>1390.4429931641</ele>
        <time>2017-03-10T07:26:45Z</time>
      </trkpt>
      <trkpt lat="45.21951" lon="5.9952">
        <ele>1391.4429931641</ele>
        <time>2017-03-10T07:26:48Z</time>
      </trkpt>
      <trkpt lat="45.21947" lon="5.99515">
        <ele>1391.4429931641</ele>
        <time>2017-03-10T07:26:51Z</time>
      </trkpt>
      <trkpt lat="45.21944" lon="5.99509">
        <ele>1392.4429931641</ele>
        <time>2017-03-10T07:26:54Z</time>
      </trkpt>
      <trkpt lat="45.21941" lon="5.99503">
        <ele>1395.4429931641</ele>
        <time>2017-03-10T07:26:58Z</time>
      </trkpt>
      <trkpt lat="45.21937" lon="5.99499">
        <ele>1393.4429931641</ele>
        <time>2017-03-10T07:27:01Z</time>
      </trkpt>
      <trkpt lat="45.21933" lon="5.99493">
        <ele>1396.4429931641</ele>
        <time>2017-03-10T07:27:05Z</time>
      </trkpt>
      <trkpt lat="45.21929" lon="5.9949">
        <ele>1392.4429931641</ele>
        <time>2017-03-10T07:27:07Z</time>
      </trkpt>
      <trkpt lat="45.21925" lon="5.99485">
        <ele>1392.4429931641</ele>
        <time>2017-03-10T07:27:10Z</time>
      </trkpt>
      <trkpt lat="45.21921" lon="5.99482">
        <ele>1392.4429931641</ele>
        <time>2017-03-10T07:27:13Z</time>
      </trkpt>
      <trkpt lat="45.21916" lon="5.99479">
        <ele>1391.4429931641</ele>
        <time>2017-03-10T07:27:17Z</time>
      </trkpt>
      <trkpt lat="45.21913" lon="5.99474">
        <ele>1389.4429931641</ele>
        <time>2017-03-10T07:27:20Z</time>
      </trkpt>
      <trkpt lat="45.2191" lon="5.99469">
        <ele>1387.4429931641</ele>
        <time>2017-03-10T07:27:26Z</time>
      </trkpt>
      <trkpt lat="45.21905" lon="5.99462">
        <ele>1386.4429931641</ele>
        <time>2017-03-10T07:27:29Z</time>
      </trkpt>
      <trkpt lat="45.21902" lon="5.99457">
        <ele>1387.4429931641</ele>
        <time>2017-03-10T07:27:32Z</time>
      </trkpt>
      <trkpt lat="45.21899" lon="5.99451">
        <ele>1388.4429931641</ele>
        <time>2017-03-10T07:27:36Z</time>
      </trkpt>
      <trkpt lat="45.21896" lon="5.99444">
        <ele>1388.4429931641</ele>
        <time>2017-03-10T07:27:39Z</time>
      </trkpt>
      <trkpt lat="45.21894" lon="5.99438">
        <ele>1386.4429931641</ele>
        <time>2017-03-10T07:27:44Z</time>
      </trkpt>
      <trkpt lat="45.21892" lon="5.99432">
        <ele>1388.4429931641</ele>
        <time>2017-03-10T07:27:47Z</time>
      </trkpt>
      <trkpt lat="45.21891" lon="5.99424">
        <ele>1389.4429931641</ele>
        <time>2017-03-10T07:27:50Z</time>
      </trkpt>
      <trkpt lat="45.21889" lon="5.99417">
        <ele>1388.4429931641</ele>
        <time>2017-03-10T07:27:54Z</time>
      </trkpt>
      <trkpt lat="45.21888" lon="5.99411">
        <ele>1389.4429931641</ele>
        <time>2017-03-10T07:27:58Z</time>
      </trkpt>
      <trkpt lat="45.21886" lon="5.99402">
        <ele>1391.4429931641</ele>
        <time>2017-03-10T07:28:04Z</time>
      </trkpt>
      <trkpt lat="45.21883" lon="5.99396">
        <ele>1392.4429931641</ele>
        <time>2017-03-10T07:28:09Z</time>
      </trkpt>
      <trkpt lat="45.2188" lon="5.99389">
        <ele>1393.4429931641</ele>
        <time>2017-03-10T07:28:14Z</time>
      </trkpt>
      <trkpt lat="45.21876" lon="5.99385">
        <ele>1395.4429931641</ele>
        <time>2017-03-10T07:28:17Z</time>
      </trkpt>
      <trkpt lat="45.21871" lon="5.99381">
        <ele>1397.4429931641</ele>
        <time>2017-03-10T07:28:21Z</time>
      </trkpt>
      <trkpt lat="45.21867" lon="5.99379">
        <ele>1396.4429931641</ele>
        <time>2017-03-10T07:28:26Z</time>
      </trkpt>
      <trkpt lat="45.21864" lon="5.99374">
        <ele>1398.4429931641</ele>
        <time>2017-03-10T07:28:31Z</time>
      </trkpt>
      <trkpt lat="45.21864" lon="5.99367">
        <ele>1398.4429931641</ele>
        <time>2017-03-10T07:28:36Z</time>
      </trkpt>
      <trkpt lat="45.21862" lon="5.99358">
        <ele>1400.4429931641</ele>
        <time>2017-03-10T07:28:39Z</time>
      </trkpt>
      <trkpt lat="45.21859" lon="5.99353">
        <ele>1398.4429931641</ele>
        <time>2017-03-10T07:28:42Z</time>
      </trkpt>
      <trkpt lat="45.21858" lon="5.99346">
        <ele>1398.4429931641</ele>
        <time>2017-03-10T07:28:47Z</time>
      </trkpt>
      <trkpt lat="45.21856" lon="5.99338">
        <ele>1398.4429931641</ele>
        <time>2017-03-10T07:28:51Z</time>
      </trkpt>
      <trkpt lat="45.21857" lon="5.99332">
        <ele>1402.4429931641</ele>
        <time>2017-03-10T07:28:56Z</time>
      </trkpt>
      <trkpt lat="45.21855" lon="5.99326">
        <ele>1402.4429931641</ele>
        <time>2017-03-10T07:29:00Z</time>
      </trkpt>
      <trkpt lat="45.21856" lon="5.99319">
        <ele>1402.4429931641</ele>
        <time>2017-03-10T07:29:04Z</time>
      </trkpt>
      <trkpt lat="45.21853" lon="5.99313">
        <ele>1403.4429931641</ele>
        <time>2017-03-10T07:29:08Z</time>
      </trkpt>
      <trkpt lat="45.21851" lon="5.99307">
        <ele>1402.4429931641</ele>
        <time>2017-03-10T07:29:11Z</time>
      </trkpt>
      <trkpt lat="45.21848" lon="5.99301">
        <ele>1403.4429931641</ele>
        <time>2017-03-10T07:29:14Z</time>
      </trkpt>
      <trkpt lat="45.21845" lon="5.99294">
        <ele>1404.4429931641</ele>
        <time>2017-03-10T07:29:17Z</time>
      </trkpt>
      <trkpt lat="45.21844" lon="5.99286">
        <ele>1404.4429931641</ele>
        <time>2017-03-10T07:29:20Z</time>
      </trkpt>
      <trkpt lat="45.21842" lon="5.99277">
        <ele>1405.4429931641</ele>
        <time>2017-03-10T07:29:23Z</time>
      </trkpt>
      <trkpt lat="45.2184" lon="5.9927">
        <ele>1405.4429931641</ele>
        <time>2017-03-10T07:29:26Z</time>
      </trkpt>
      <trkpt lat="45.21837" lon="5.99266">
        <ele>1404.4429931641</ele>
        <time>2017-03-10T07:29:28Z</time>
      </trkpt>
      <trkpt lat="45.21833" lon="5.99259">
        <ele>1403.4429931641</ele>
        <time>2017-03-10T07:29:31Z</time>
      </trkpt>
      <trkpt lat="45.2183" lon="5.99253">
        <ele>1402.4429931641</ele>
        <time>2017-03-10T07:29:34Z</time>
      </trkpt>
      <trkpt lat="45.21828" lon="5.99246">
        <ele>1402.4429931641</ele>
        <time>2017-03-10T07:29:36Z</time>
      </trkpt>
      <trkpt lat="45.21825" lon="5.99241">
        <ele>1403.4429931641</ele>
        <time>2017-03-10T07:29:41Z</time>
      </trkpt>
      <trkpt lat="45.21821" lon="5.99234">
        <ele>1402.4429931641</ele>
        <time>2017-03-10T07:29:45Z</time>
      </trkpt>
      <trkpt lat="45.21818" lon="5.99229">
        <ele>1403.4429931641</ele>
        <time>2017-03-10T07:29:49Z</time>
      </trkpt>
      <trkpt lat="45.21816" lon="5.99222">
        <ele>1405.4429931641</ele>
        <time>2017-03-10T07:29:53Z</time>
      </trkpt>
      <trkpt lat="45.21814" lon="5.99216">
        <ele>1404.4429931641</ele>
        <time>2017-03-10T07:29:57Z</time>
      </trkpt>
      <trkpt lat="45.21811" lon="5.9921">
        <ele>1403.4429931641</ele>
        <time>2017-03-10T07:30:00Z</time>
      </trkpt>
      <trkpt lat="45.21809" lon="5.99204">
        <ele>1404.4429931641</ele>
        <time>2017-03-10T07:30:03Z</time>
      </trkpt>
      <trkpt lat="45.21805" lon="5.99199">
        <ele>1406.4420166016</ele>
        <time>2017-03-10T07:30:07Z</time>
      </trkpt>
      <trkpt lat="45.21802" lon="5.9919">
        <ele>1405.4420166016</ele>
        <time>2017-03-10T07:30:11Z</time>
      </trkpt>
      <trkpt lat="45.21801" lon="5.99183">
        <ele>1405.4420166016</ele>
        <time>2017-03-10T07:30:15Z</time>
      </trkpt>
      <trkpt lat="45.21799" lon="5.99176">
        <ele>1405.4420166016</ele>
        <time>2017-03-10T07:30:20Z</time>
      </trkpt>
      <trkpt lat="45.21795" lon="5.99169">
        <ele>1404.4420166016</ele>
        <time>2017-03-10T07:30:25Z</time>
      </trkpt>
      <trkpt lat="45.21792" lon="5.99163">
        <ele>1407.4420166016</ele>
        <time>2017-03-10T07:30:29Z</time>
      </trkpt>
      <trkpt lat="45.21789" lon="5.99157">
        <ele>1407.4420166016</ele>
        <time>2017-03-10T07:30:32Z</time>
      </trkpt>
      <trkpt lat="45.21786" lon="5.99152">
        <ele>1408.4420166016</ele>
        <time>2017-03-10T07:30:36Z</time>
      </trkpt>
      <trkpt lat="45.21782" lon="5.99145">
        <ele>1411.4420166016</ele>
        <time>2017-03-10T07:30:41Z</time>
      </trkpt>
      <trkpt lat="45.21779" lon="5.99141">
        <ele>1413.4420166016</ele>
        <time>2017-03-10T07:30:46Z</time>
      </trkpt>
      <trkpt lat="45.21774" lon="5.99136">
        <ele>1413.4420166016</ele>
        <time>2017-03-10T07:30:51Z</time>
      </trkpt>
      <trkpt lat="45.2177" lon="5.99131">
        <ele>1414.4420166016</ele>
        <time>2017-03-10T07:30:55Z</time>
      </trkpt>
      <trkpt lat="45.21766" lon="5.99128">
        <ele>1413.4420166016</ele>
        <time>2017-03-10T07:30:59Z</time>
      </trkpt>
      <trkpt lat="45.21763" lon="5.99133">
        <ele>1412.4420166016</ele>
        <time>2017-03-10T07:31:05Z</time>
      </trkpt>
      <trkpt lat="45.21758" lon="5.99137">
        <ele>1414.4420166016</ele>
        <time>2017-03-10T07:31:08Z</time>
      </trkpt>
      <trkpt lat="45.21753" lon="5.99134">
        <ele>1419.4420166016</ele>
        <time>2017-03-10T07:31:17Z</time>
      </trkpt>
      <trkpt lat="45.21749" lon="5.99128">
        <ele>1420.4420166016</ele>
        <time>2017-03-10T07:31:22Z</time>
      </trkpt>
      <trkpt lat="45.21746" lon="5.99123">
        <ele>1420.4420166016</ele>
        <time>2017-03-10T07:31:28Z</time>
      </trkpt>
      <trkpt lat="45.21744" lon="5.99115">
        <ele>1416.4420166016</ele>
        <time>2017-03-10T07:31:32Z</time>
      </trkpt>
      <trkpt lat="45.21743" lon="5.99108">
        <ele>1416.4420166016</ele>
        <time>2017-03-10T07:31:36Z</time>
      </trkpt>
      <trkpt lat="45.21742" lon="5.991">
        <ele>1416.4420166016</ele>
        <time>2017-03-10T07:31:40Z</time>
      </trkpt>
      <trkpt lat="45.21737" lon="5.99098">
        <ele>1420.4420166016</ele>
        <time>2017-03-10T07:31:45Z</time>
      </trkpt>
      <trkpt lat="45.21732" lon="5.99097">
        <ele>1421.4420166016</ele>
        <time>2017-03-10T07:31:50Z</time>
      </trkpt>
      <trkpt lat="45.21727" lon="5.99097">
        <ele>1423.4420166016</ele>
        <time>2017-03-10T07:31:55Z</time>
      </trkpt>
      <trkpt lat="45.21725" lon="5.99091">
        <ele>1424.4420166016</ele>
        <time>2017-03-10T07:32:00Z</time>
      </trkpt>
      <trkpt lat="45.21724" lon="5.99084">
        <ele>1423.4420166016</ele>
        <time>2017-03-10T07:32:07Z</time>
      </trkpt>
      <trkpt lat="45.21725" lon="5.99077">
        <ele>1422.4420166016</ele>
        <time>2017-03-10T07:32:13Z</time>
      </trkpt>
      <trkpt lat="45.2173" lon="5.9908">
        <ele>1419.4420166016</ele>
        <time>2017-03-10T07:32:53Z</time>
      </trkpt>
      <trkpt lat="45.21735" lon="5.99081">
        <ele>1420.4420166016</ele>
        <time>2017-03-10T07:32:58Z</time>
      </trkpt>
      <trkpt lat="45.21739" lon="5.99076">
        <ele>1419.4420166016</ele>
        <time>2017-03-10T07:33:06Z</time>
      </trkpt>
      <trkpt lat="45.21742" lon="5.99081">
        <ele>1415.4420166016</ele>
        <time>2017-03-10T07:33:21Z</time>
      </trkpt>
      <trkpt lat="45.21747" lon="5.99082">
        <ele>1416.4420166016</ele>
        <time>2017-03-10T07:33:29Z</time>
      </trkpt>
      <trkpt lat="45.21749" lon="5.99076">
        <ele>1414.4420166016</ele>
        <time>2017-03-10T07:33:48Z</time>
      </trkpt>
      <trkpt lat="45.21754" lon="5.99072">
        <ele>1416.4420166016</ele>
        <time>2017-03-10T07:33:53Z</time>
      </trkpt>
      <trkpt lat="45.21754" lon="5.99064">
        <ele>1419.4420166016</ele>
        <time>2017-03-10T07:34:23Z</time>
      </trkpt>
      <trkpt lat="45.21751" lon="5.99059">
        <ele>1418.4420166016</ele>
        <time>2017-03-10T07:34:27Z</time>
      </trkpt>
      <trkpt lat="45.21747" lon="5.99055">
        <ele>1416.4420166016</ele>
        <time>2017-03-10T07:34:31Z</time>
      </trkpt>
      <trkpt lat="45.21743" lon="5.99052">
        <ele>1418.4420166016</ele>
        <time>2017-03-10T07:34:35Z</time>
      </trkpt>
      <trkpt lat="45.21741" lon="5.99046">
        <ele>1420.4420166016</ele>
        <time>2017-03-10T07:34:41Z</time>
      </trkpt>
      <trkpt lat="45.21742" lon="5.99039">
        <ele>1422.4420166016</ele>
        <time>2017-03-10T07:34:45Z</time>
      </trkpt>
      <trkpt lat="45.21737" lon="5.99034">
        <ele>1427.4420166016</ele>
        <time>2017-03-10T07:34:49Z</time>
      </trkpt>
      <trkpt lat="45.21733" lon="5.99031">
        <ele>1428.4420166016</ele>
        <time>2017-03-10T07:34:54Z</time>
      </trkpt>
      <trkpt lat="45.21729" lon="5.99026">
        <ele>1432.4420166016</ele>
        <time>2017-03-10T07:34:59Z</time>
      </trkpt>
      <trkpt lat="45.21724" lon="5.99024">
        <ele>1432.4420166016</ele>
        <time>2017-03-10T07:35:03Z</time>
      </trkpt>
      <trkpt lat="45.21721" lon="5.99018">
        <ele>1431.4420166016</ele>
        <time>2017-03-10T07:35:07Z</time>
      </trkpt>
      <trkpt lat="45.21717" lon="5.99014">
        <ele>1433.4420166016</ele>
        <time>2017-03-10T07:35:12Z</time>
      </trkpt>
      <trkpt lat="45.21713" lon="5.9901">
        <ele>1433.4420166016</ele>
        <time>2017-03-10T07:35:17Z</time>
      </trkpt>
      <trkpt lat="45.21711" lon="5.99003">
        <ele>1433.4420166016</ele>
        <time>2017-03-10T07:35:21Z</time>
      </trkpt>
      <trkpt lat="45.21707" lon="5.99">
        <ele>1433.4420166016</ele>
        <time>2017-03-10T07:35:26Z</time>
      </trkpt>
      <trkpt lat="45.21703" lon="5.98995">
        <ele>1433.4420166016</ele>
        <time>2017-03-10T07:35:33Z</time>
      </trkpt>
      <trkpt lat="45.21699" lon="5.98992">
        <ele>1430.4420166016</ele>
        <time>2017-03-10T07:35:37Z</time>
      </trkpt>
      <trkpt lat="45.21696" lon="5.98986">
        <ele>1430.4420166016</ele>
        <time>2017-03-10T07:35:42Z</time>
      </trkpt>
      <trkpt lat="45.21693" lon="5.9898">
        <ele>1429.4420166016</ele>
        <time>2017-03-10T07:35:47Z</time>
      </trkpt>
      <trkpt lat="45.21691" lon="5.98974">
        <ele>1429.4420166016</ele>
        <time>2017-03-10T07:35:51Z</time>
      </trkpt>
      <trkpt lat="45.21686" lon="5.98969">
        <ele>1426.4420166016</ele>
        <time>2017-03-10T07:35:57Z</time>
      </trkpt>
      <trkpt lat="45.21685" lon="5.98961">
        <ele>1422.4420166016</ele>
        <time>2017-03-10T07:36:00Z</time>
      </trkpt>
      <trkpt lat="45.21682" lon="5.98955">
        <ele>1422.4420166016</ele>
        <time>2017-03-10T07:36:05Z</time>
      </trkpt>
      <trkpt lat="45.21677" lon="5.98951">
        <ele>1423.4420166016</ele>
        <time>2017-03-10T07:36:11Z</time>
      </trkpt>
      <trkpt lat="45.21673" lon="5.98947">
        <ele>1428.4420166016</ele>
        <time>2017-03-10T07:36:16Z</time>
      </trkpt>
      <trkpt lat="45.21669" lon="5.98944">
        <ele>1432.4420166016</ele>
        <time>2017-03-10T07:36:22Z</time>
      </trkpt>
      <trkpt lat="45.21665" lon="5.98938">
        <ele>1440.4420166016</ele>
        <time>2017-03-10T07:36:30Z</time>
      </trkpt>
      <trkpt lat="45.2166" lon="5.98937">
        <ele>1441.4420166016</ele>
        <time>2017-03-10T07:36:34Z</time>
      </trkpt>
      <trkpt lat="45.21658" lon="5.98931">
        <ele>1441.4420166016</ele>
        <time>2017-03-10T07:36:39Z</time>
      </trkpt>
      <trkpt lat="45.21653" lon="5.98925">
        <ele>1442.4420166016</ele>
        <time>2017-03-10T07:36:46Z</time>
      </trkpt>
      <trkpt lat="45.21649" lon="5.98921">
        <ele>1436.4420166016</ele>
        <time>2017-03-10T07:36:51Z</time>
      </trkpt>
      <trkpt lat="45.21645" lon="5.98917">
        <ele>1438.4420166016</ele>
        <time>2017-03-10T07:36:56Z</time>
      </trkpt>
      <trkpt lat="45.21641" lon="5.98913">
        <ele>1440.4420166016</ele>
        <time>2017-03-10T07:37:00Z</time>
      </trkpt>
      <trkpt lat="45.2164" lon="5.98906">
        <ele>1440.4420166016</ele>
        <time>2017-03-10T07:37:05Z</time>
      </trkpt>
      <trkpt lat="45.21636" lon="5.98902">
        <ele>1442.4420166016</ele>
        <time>2017-03-10T07:37:11Z</time>
      </trkpt>
      <trkpt lat="45.21632" lon="5.98897">
        <ele>1446.4420166016</ele>
        <time>2017-03-10T07:37:20Z</time>
      </trkpt>
      <trkpt lat="45.21629" lon="5.98892">
        <ele>1447.4420166016</ele>
        <time>2017-03-10T07:37:25Z</time>
      </trkpt>
      <trkpt lat="45.21628" lon="5.98884">
        <ele>1449.4420166016</ele>
        <time>2017-03-10T07:37:29Z</time>
      </trkpt>
      <trkpt lat="45.21624" lon="5.98879">
        <ele>1452.4420166016</ele>
        <time>2017-03-10T07:37:35Z</time>
      </trkpt>
      <trkpt lat="45.21623" lon="5.98873">
        <ele>1455.4420166016</ele>
        <time>2017-03-10T07:37:41Z</time>
      </trkpt>
      <trkpt lat="45.2162" lon="5.98868">
        <ele>1455.4420166016</ele>
        <time>2017-03-10T07:37:46Z</time>
      </trkpt>
      <trkpt lat="45.21618" lon="5.98862">
        <ele>1453.4420166016</ele>
        <time>2017-03-10T07:37:50Z</time>
      </trkpt>
      <trkpt lat="45.21614" lon="5.98858">
        <ele>1455.4420166016</ele>
        <time>2017-03-10T07:37:54Z</time>
      </trkpt>
      <trkpt lat="45.21613" lon="5.98851">
        <ele>1453.4420166016</ele>
        <time>2017-03-10T07:37:57Z</time>
      </trkpt>
      <trkpt lat="45.21609" lon="5.98846">
        <ele>1454.4420166016</ele>
        <time>2017-03-10T07:38:01Z</time>
      </trkpt>
      <trkpt lat="45.21607" lon="5.98839">
        <ele>1455.4420166016</ele>
        <time>2017-03-10T07:38:06Z</time>
      </trkpt>
      <trkpt lat="45.21604" lon="5.98835">
        <ele>1458.4420166016</ele>
        <time>2017-03-10T07:38:12Z</time>
      </trkpt>
      <trkpt lat="45.21602" lon="5.98828">
        <ele>1459.4420166016</ele>
        <time>2017-03-10T07:38:18Z</time>
      </trkpt>
      <trkpt lat="45.21599" lon="5.98824">
        <ele>1459.4420166016</ele>
        <time>2017-03-10T07:38:26Z</time>
      </trkpt>
      <trkpt lat="45.21598" lon="5.98816">
        <ele>1458.4420166016</ele>
        <time>2017-03-10T07:38:30Z</time>
      </trkpt>
      <trkpt lat="45.21597" lon="5.98809">
        <ele>1460.4420166016</ele>
        <time>2017-03-10T07:38:36Z</time>
      </trkpt>
      <trkpt lat="45.21593" lon="5.98805">
        <ele>1458.4420166016</ele>
        <time>2017-03-10T07:38:42Z</time>
      </trkpt>
      <trkpt lat="45.2159" lon="5.98798">
        <ele>1460.4420166016</ele>
        <time>2017-03-10T07:38:47Z</time>
      </trkpt>
      <trkpt lat="45.21586" lon="5.98795">
        <ele>1464.4410400391</ele>
        <time>2017-03-10T07:38:55Z</time>
      </trkpt>
      <trkpt lat="45.21586" lon="5.98787">
        <ele>1463.4410400391</ele>
        <time>2017-03-10T07:39:02Z</time>
      </trkpt>
      <trkpt lat="45.21586" lon="5.98781">
        <ele>1468.4410400391</ele>
        <time>2017-03-10T07:39:07Z</time>
      </trkpt>
      <trkpt lat="45.21583" lon="5.98776">
        <ele>1471.4410400391</ele>
        <time>2017-03-10T07:39:14Z</time>
      </trkpt>
      <trkpt lat="45.21579" lon="5.98772">
        <ele>1473.4410400391</ele>
        <time>2017-03-10T07:39:20Z</time>
      </trkpt>
      <trkpt lat="45.21579" lon="5.98765">
        <ele>1474.4410400391</ele>
        <time>2017-03-10T07:39:25Z</time>
      </trkpt>
      <trkpt lat="45.21576" lon="5.9876">
        <ele>1473.4410400391</ele>
        <time>2017-03-10T07:39:29Z</time>
      </trkpt>
      <trkpt lat="45.21573" lon="5.98755">
        <ele>1476.4410400391</ele>
        <time>2017-03-10T07:39:35Z</time>
      </trkpt>
      <trkpt lat="45.21569" lon="5.98752">
        <ele>1477.4410400391</ele>
        <time>2017-03-10T07:39:40Z</time>
      </trkpt>
      <trkpt lat="45.21565" lon="5.98746">
        <ele>1475.4410400391</ele>
        <time>2017-03-10T07:39:48Z</time>
      </trkpt>
      <trkpt lat="45.2156" lon="5.98742">
        <ele>1482.4410400391</ele>
        <time>2017-03-10T07:39:56Z</time>
      </trkpt>
      <trkpt lat="45.21559" lon="5.98734">
        <ele>1487.4410400391</ele>
        <time>2017-03-10T07:40:06Z</time>
      </trkpt>
      <trkpt lat="45.21558" lon="5.98728">
        <ele>1488.4410400391</ele>
        <time>2017-03-10T07:40:12Z</time>
      </trkpt>
      <trkpt lat="45.21553" lon="5.98728">
        <ele>1492.4410400391</ele>
        <time>2017-03-10T07:40:18Z</time>
      </trkpt>
      <trkpt lat="45.21549" lon="5.98724">
        <ele>1489.4410400391</ele>
        <time>2017-03-10T07:40:23Z</time>
      </trkpt>
      <trkpt lat="45.21544" lon="5.98724">
        <ele>1492.4410400391</ele>
        <time>2017-03-10T07:40:27Z</time>
      </trkpt>
      <trkpt lat="45.21542" lon="5.98717">
        <ele>1493.4410400391</ele>
        <time>2017-03-10T07:40:32Z</time>
      </trkpt>
      <trkpt lat="45.21541" lon="5.98711">
        <ele>1494.4410400391</ele>
        <time>2017-03-10T07:40:39Z</time>
      </trkpt>
      <trkpt lat="45.21536" lon="5.9871">
        <ele>1499.4410400391</ele>
        <time>2017-03-10T07:40:44Z</time>
      </trkpt>
      <trkpt lat="45.21536" lon="5.98703">
        <ele>1503.4410400391</ele>
        <time>2017-03-10T07:40:54Z</time>
      </trkpt>
      <trkpt lat="45.21535" lon="5.98696">
        <ele>1505.4410400391</ele>
        <time>2017-03-10T07:41:00Z</time>
      </trkpt>
      <trkpt lat="45.2153" lon="5.98694">
        <ele>1510.4410400391</ele>
        <time>2017-03-10T07:41:08Z</time>
      </trkpt>
      <trkpt lat="45.21525" lon="5.98691">
        <ele>1513.4410400391</ele>
        <time>2017-03-10T07:41:15Z</time>
      </trkpt>
      <trkpt lat="45.21522" lon="5.98686">
        <ele>1510.4410400391</ele>
        <time>2017-03-10T07:41:21Z</time>
      </trkpt>
      <trkpt lat="45.21516" lon="5.98684">
        <ele>1510.4410400391</ele>
        <time>2017-03-10T07:41:25Z</time>
      </trkpt>
      <trkpt lat="45.21511" lon="5.98684">
        <ele>1513.4410400391</ele>
        <time>2017-03-10T07:41:29Z</time>
      </trkpt>
      <trkpt lat="45.21508" lon="5.98679">
        <ele>1517.4410400391</ele>
        <time>2017-03-10T07:41:49Z</time>
      </trkpt>
      <trkpt lat="45.21511" lon="5.98673">
        <ele>1517.4410400391</ele>
        <time>2017-03-10T07:41:54Z</time>
      </trkpt>
      <trkpt lat="45.2151" lon="5.98666">
        <ele>1514.4410400391</ele>
        <time>2017-03-10T07:42:00Z</time>
      </trkpt>
      <trkpt lat="45.21506" lon="5.98661">
        <ele>1520.4410400391</ele>
        <time>2017-03-10T07:42:09Z</time>
      </trkpt>
      <trkpt lat="45.21501" lon="5.98658">
        <ele>1520.4410400391</ele>
        <time>2017-03-10T07:42:18Z</time>
      </trkpt>
      <trkpt lat="45.21499" lon="5.98652">
        <ele>1521.4410400391</ele>
        <time>2017-03-10T07:42:24Z</time>
      </trkpt>
      <trkpt lat="45.21499" lon="5.98645">
        <ele>1522.4410400391</ele>
        <time>2017-03-10T07:42:31Z</time>
      </trkpt>
      <trkpt lat="45.215" lon="5.98639">
        <ele>1522.4410400391</ele>
        <time>2017-03-10T07:42:41Z</time>
      </trkpt>
      <trkpt lat="45.21496" lon="5.98636">
        <ele>1525.4410400391</ele>
        <time>2017-03-10T07:42:50Z</time>
      </trkpt>
      <trkpt lat="45.21497" lon="5.9863">
        <ele>1529.4410400391</ele>
        <time>2017-03-10T07:43:00Z</time>
      </trkpt>
      <trkpt lat="45.21492" lon="5.98627">
        <ele>1533.4410400391</ele>
        <time>2017-03-10T07:43:12Z</time>
      </trkpt>
      <trkpt lat="45.21491" lon="5.9862">
        <ele>1537.4410400391</ele>
        <time>2017-03-10T07:43:23Z</time>
      </trkpt>
      <trkpt lat="45.21492" lon="5.98614">
        <ele>1536.4410400391</ele>
        <time>2017-03-10T07:43:30Z</time>
      </trkpt>
      <trkpt lat="45.2149" lon="5.98608">
        <ele>1534.4410400391</ele>
        <time>2017-03-10T07:43:38Z</time>
      </trkpt>
      <trkpt lat="45.21489" lon="5.98602">
        <ele>1538.4410400391</ele>
        <time>2017-03-10T07:43:52Z</time>
      </trkpt>
      <trkpt lat="45.21486" lon="5.98598">
        <ele>1536.4410400391</ele>
        <time>2017-03-10T07:43:58Z</time>
      </trkpt>
      <trkpt lat="45.21481" lon="5.98595">
        <ele>1536.4410400391</ele>
        <time>2017-03-10T07:44:04Z</time>
      </trkpt>
      <trkpt lat="45.21476" lon="5.98594">
        <ele>1536.4410400391</ele>
        <time>2017-03-10T07:44:13Z</time>
      </trkpt>
      <trkpt lat="45.21472" lon="5.9859">
        <ele>1540.4410400391</ele>
        <time>2017-03-10T07:44:24Z</time>
      </trkpt>
      <trkpt lat="45.21475" lon="5.98584">
        <ele>1544.4410400391</ele>
        <time>2017-03-10T07:44:32Z</time>
      </trkpt>
      <trkpt lat="45.21475" lon="5.98577">
        <ele>1545.4410400391</ele>
        <time>2017-03-10T07:44:40Z</time>
      </trkpt>
      <trkpt lat="45.21476" lon="5.98571">
        <ele>1550.4410400391</ele>
        <time>2017-03-10T07:44:44Z</time>
      </trkpt>
      <trkpt lat="45.21472" lon="5.98571">
        <ele>1553.4410400391</ele>
        <time>2017-03-10T07:44:50Z</time>
      </trkpt>
      <trkpt lat="45.21466" lon="5.98572">
        <ele>1554.4410400391</ele>
        <time>2017-03-10T07:44:57Z</time>
      </trkpt>
      <trkpt lat="45.21462" lon="5.98572">
        <ele>1559.4410400391</ele>
        <time>2017-03-10T07:45:07Z</time>
      </trkpt>
      <trkpt lat="45.21461" lon="5.98566">
        <ele>1560.4410400391</ele>
        <time>2017-03-10T07:45:21Z</time>
      </trkpt>
      <trkpt lat="45.21462" lon="5.98559">
        <ele>1562.4410400391</ele>
        <time>2017-03-10T07:45:28Z</time>
      </trkpt>
      <trkpt lat="45.21463" lon="5.98552">
        <ele>1563.4410400391</ele>
        <time>2017-03-10T07:45:35Z</time>
      </trkpt>
      <trkpt lat="45.21459" lon="5.9855">
        <ele>1564.4410400391</ele>
        <time>2017-03-10T07:45:42Z</time>
      </trkpt>
      <trkpt lat="45.21454" lon="5.98547">
        <ele>1569.4410400391</ele>
        <time>2017-03-10T07:45:51Z</time>
      </trkpt>
      <trkpt lat="45.21449" lon="5.98547">
        <ele>1568.4410400391</ele>
        <time>2017-03-10T07:46:01Z</time>
      </trkpt>
      <trkpt lat="45.21446" lon="5.98552">
        <ele>1570.4410400391</ele>
        <time>2017-03-10T07:46:11Z</time>
      </trkpt>
      <trkpt lat="45.21445" lon="5.98545">
        <ele>1570.4410400391</ele>
        <time>2017-03-10T07:46:18Z</time>
      </trkpt>
      <trkpt lat="45.21445" lon="5.98537">
        <ele>1571.4410400391</ele>
        <time>2017-03-10T07:46:26Z</time>
      </trkpt>
      <trkpt lat="45.21444" lon="5.9853">
        <ele>1573.4410400391</ele>
        <time>2017-03-10T07:46:34Z</time>
      </trkpt>
      <trkpt lat="45.2144" lon="5.9853">
        <ele>1578.4410400391</ele>
        <time>2017-03-10T07:46:53Z</time>
      </trkpt>
      <trkpt lat="45.21435" lon="5.98533">
        <ele>1572.4410400391</ele>
        <time>2017-03-10T07:46:59Z</time>
      </trkpt>
      <trkpt lat="45.21431" lon="5.98538">
        <ele>1573.4410400391</ele>
        <time>2017-03-10T07:47:07Z</time>
      </trkpt>
      <trkpt lat="45.21427" lon="5.98535">
        <ele>1577.4410400391</ele>
        <time>2017-03-10T07:47:22Z</time>
      </trkpt>
      <trkpt lat="45.21426" lon="5.98528">
        <ele>1578.4410400391</ele>
        <time>2017-03-10T07:47:31Z</time>
      </trkpt>
      <trkpt lat="45.21427" lon="5.98522">
        <ele>1581.4410400391</ele>
        <time>2017-03-10T07:47:36Z</time>
      </trkpt>
      <trkpt lat="45.21428" lon="5.98515">
        <ele>1582.4410400391</ele>
        <time>2017-03-10T07:47:42Z</time>
      </trkpt>
      <trkpt lat="45.21428" lon="5.98508">
        <ele>1581.4410400391</ele>
        <time>2017-03-10T07:47:49Z</time>
      </trkpt>
      <trkpt lat="45.21431" lon="5.98503">
        <ele>1583.4410400391</ele>
        <time>2017-03-10T07:47:57Z</time>
      </trkpt>
      <trkpt lat="45.21435" lon="5.98497">
        <ele>1584.4410400391</ele>
        <time>2017-03-10T07:48:02Z</time>
      </trkpt>
      <trkpt lat="45.21437" lon="5.9849">
        <ele>1586.4410400391</ele>
        <time>2017-03-10T07:48:09Z</time>
      </trkpt>
      <trkpt lat="45.21438" lon="5.98484">
        <ele>1587.4410400391</ele>
        <time>2017-03-10T07:48:16Z</time>
      </trkpt>
      <trkpt lat="45.21438" lon="5.98477">
        <ele>1587.4410400391</ele>
        <time>2017-03-10T07:48:23Z</time>
      </trkpt>
      <trkpt lat="45.21434" lon="5.98473">
        <ele>1592.4410400391</ele>
        <time>2017-03-10T07:48:34Z</time>
      </trkpt>
      <trkpt lat="45.2143" lon="5.98476">
        <ele>1592.4410400391</ele>
        <time>2017-03-10T07:48:43Z</time>
      </trkpt>
      <trkpt lat="45.21425" lon="5.98479">
        <ele>1595.4410400391</ele>
        <time>2017-03-10T07:48:50Z</time>
      </trkpt>
      <trkpt lat="45.2142" lon="5.98483">
        <ele>1598.4410400391</ele>
        <time>2017-03-10T07:48:55Z</time>
      </trkpt>
      <trkpt lat="45.21416" lon="5.98484">
        <ele>1600.4410400391</ele>
        <time>2017-03-10T07:49:02Z</time>
      </trkpt>
      <trkpt lat="45.21411" lon="5.98486">
        <ele>1600.4410400391</ele>
        <time>2017-03-10T07:49:09Z</time>
      </trkpt>
      <trkpt lat="45.2141" lon="5.9848">
        <ele>1599.4410400391</ele>
        <time>2017-03-10T07:49:28Z</time>
      </trkpt>
      <trkpt lat="45.21412" lon="5.98473">
        <ele>1603.4410400391</ele>
        <time>2017-03-10T07:49:34Z</time>
      </trkpt>
      <trkpt lat="45.21406" lon="5.98474">
        <ele>1602.4410400391</ele>
        <time>2017-03-10T07:49:43Z</time>
      </trkpt>
      <trkpt lat="45.21402" lon="5.98475">
        <ele>1604.4410400391</ele>
        <time>2017-03-10T07:49:49Z</time>
      </trkpt>
      <trkpt lat="45.21398" lon="5.9848">
        <ele>1604.4410400391</ele>
        <time>2017-03-10T07:49:54Z</time>
      </trkpt>
      <trkpt lat="45.21393" lon="5.98485">
        <ele>1606.4410400391</ele>
        <time>2017-03-10T07:50:06Z</time>
      </trkpt>
      <trkpt lat="45.2139" lon="5.9849">
        <ele>1610.4410400391</ele>
        <time>2017-03-10T07:50:14Z</time>
      </trkpt>
      <trkpt lat="45.21386" lon="5.98494">
        <ele>1610.4410400391</ele>
        <time>2017-03-10T07:50:18Z</time>
      </trkpt>
      <trkpt lat="45.21383" lon="5.98489">
        <ele>1615.4410400391</ele>
        <time>2017-03-10T07:50:45Z</time>
      </trkpt>
      <trkpt lat="45.21378" lon="5.98487">
        <ele>1617.4410400391</ele>
        <time>2017-03-10T07:51:06Z</time>
      </trkpt>
      <trkpt lat="45.21374" lon="5.9849">
        <ele>1618.4410400391</ele>
        <time>2017-03-10T07:51:12Z</time>
      </trkpt>
      <trkpt lat="45.21371" lon="5.98483">
        <ele>1620.4410400391</ele>
        <time>2017-03-10T07:51:20Z</time>
      </trkpt>
      <trkpt lat="45.21367" lon="5.98479">
        <ele>1622.4410400391</ele>
        <time>2017-03-10T07:51:30Z</time>
      </trkpt>
      <trkpt lat="45.21362" lon="5.9848">
        <ele>1623.4410400391</ele>
        <time>2017-03-10T07:51:42Z</time>
      </trkpt>
      <trkpt lat="45.21362" lon="5.98473">
        <ele>1628.4410400391</ele>
        <time>2017-03-10T07:52:06Z</time>
      </trkpt>
      <trkpt lat="45.21359" lon="5.98478">
        <ele>1628.4410400391</ele>
        <time>2017-03-10T07:52:18Z</time>
      </trkpt>
      <trkpt lat="45.21354" lon="5.98478">
        <ele>1629.4410400391</ele>
        <time>2017-03-10T07:52:27Z</time>
      </trkpt>
      <trkpt lat="45.21351" lon="5.98484">
        <ele>1634.4410400391</ele>
        <time>2017-03-10T07:52:33Z</time>
      </trkpt>
      <trkpt lat="45.21346" lon="5.98485">
        <ele>1637.4410400391</ele>
        <time>2017-03-10T07:52:44Z</time>
      </trkpt>
      <trkpt lat="45.21346" lon="5.98479">
        <ele>1641.4410400391</ele>
        <time>2017-03-10T07:52:58Z</time>
      </trkpt>
      <trkpt lat="45.21346" lon="5.98472">
        <ele>1639.4410400391</ele>
        <time>2017-03-10T07:53:03Z</time>
      </trkpt>
      <trkpt lat="45.21344" lon="5.98466">
        <ele>1640.4410400391</ele>
        <time>2017-03-10T07:53:09Z</time>
      </trkpt>
      <trkpt lat="45.21344" lon="5.98459">
        <ele>1638.4410400391</ele>
        <time>2017-03-10T07:53:20Z</time>
      </trkpt>
      <trkpt lat="45.21344" lon="5.98452">
        <ele>1639.4410400391</ele>
        <time>2017-03-10T07:53:26Z</time>
      </trkpt>
      <trkpt lat="45.21344" lon="5.98445">
        <ele>1640.4410400391</ele>
        <time>2017-03-10T07:53:29Z</time>
      </trkpt>
      <trkpt lat="45.21343" lon="5.98439">
        <ele>1639.4410400391</ele>
        <time>2017-03-10T07:53:37Z</time>
      </trkpt>
      <trkpt lat="45.21338" lon="5.98441">
        <ele>1660.4410400391</ele>
        <time>2017-03-10T07:53:55Z</time>
      </trkpt>
      <trkpt lat="45.21334" lon="5.98437">
        <ele>1658.4399414062</ele>
        <time>2017-03-10T07:54:23Z</time>
      </trkpt>
      <trkpt lat="45.21329" lon="5.98434">
        <ele>1661.4399414062</ele>
        <time>2017-03-10T07:54:39Z</time>
      </trkpt>
      <trkpt lat="45.21325" lon="5.98437">
        <ele>1661.4399414062</ele>
        <time>2017-03-10T07:54:46Z</time>
      </trkpt>
      <trkpt lat="45.2132" lon="5.98436">
        <ele>1663.4399414062</ele>
        <time>2017-03-10T07:54:54Z</time>
      </trkpt>
      <trkpt lat="45.21317" lon="5.98429">
        <ele>1664.4399414062</ele>
        <time>2017-03-10T07:55:04Z</time>
      </trkpt>
      <trkpt lat="45.21314" lon="5.98435">
        <ele>1675.4399414062</ele>
        <time>2017-03-10T07:55:25Z</time>
      </trkpt>
      <trkpt lat="45.2131" lon="5.98436">
        <ele>1676.4399414062</ele>
        <time>2017-03-10T07:55:39Z</time>
      </trkpt>
      <trkpt lat="45.21304" lon="5.9844">
        <ele>1674.4399414062</ele>
        <time>2017-03-10T07:56:00Z</time>
      </trkpt>
      <trkpt lat="45.21302" lon="5.98446">
        <ele>1676.4399414062</ele>
        <time>2017-03-10T07:56:08Z</time>
      </trkpt>
      <trkpt lat="45.21298" lon="5.98451">
        <ele>1676.4399414062</ele>
        <time>2017-03-10T07:56:13Z</time>
      </trkpt>
      <trkpt lat="45.21293" lon="5.9845">
        <ele>1678.4399414062</ele>
        <time>2017-03-10T07:56:30Z</time>
      </trkpt>
      <trkpt lat="45.21292" lon="5.98456">
        <ele>1681.4399414062</ele>
        <time>2017-03-10T07:56:42Z</time>
      </trkpt>
      <trkpt lat="45.2129" lon="5.9845">
        <ele>1685.4399414062</ele>
        <time>2017-03-10T07:57:10Z</time>
      </trkpt>
      <trkpt lat="45.21286" lon="5.98456">
        <ele>1689.4399414062</ele>
        <time>2017-03-10T07:57:18Z</time>
      </trkpt>
      <trkpt lat="45.2128" lon="5.9846">
        <ele>1693.4399414062</ele>
        <time>2017-03-10T07:57:40Z</time>
      </trkpt>
      <trkpt lat="45.21275" lon="5.98457">
        <ele>1691.4399414062</ele>
        <time>2017-03-10T07:57:54Z</time>
      </trkpt>
      <trkpt lat="45.21276" lon="5.9845">
        <ele>1696.4399414062</ele>
        <time>2017-03-10T07:58:01Z</time>
      </trkpt>
      <trkpt lat="45.21276" lon="5.98443">
        <ele>1698.4399414062</ele>
        <time>2017-03-10T07:58:06Z</time>
      </trkpt>
      <trkpt lat="45.2128" lon="5.98441">
        <ele>1701.4399414062</ele>
        <time>2017-03-10T07:58:14Z</time>
      </trkpt>
      <trkpt lat="45.21277" lon="5.98445">
        <ele>1702.4399414062</ele>
        <time>2017-03-10T07:58:23Z</time>
      </trkpt>
      <trkpt lat="45.21275" lon="5.98452">
        <ele>1703.4399414062</ele>
        <time>2017-03-10T07:58:26Z</time>
      </trkpt>
      <trkpt lat="45.21271" lon="5.98457">
        <ele>1706.4399414062</ele>
        <time>2017-03-10T07:58:30Z</time>
      </trkpt>
      <trkpt lat="45.21267" lon="5.98461">
        <ele>1710.4399414062</ele>
        <time>2017-03-10T07:58:41Z</time>
      </trkpt>
      <trkpt lat="45.21264" lon="5.98456">
        <ele>1708.4399414062</ele>
        <time>2017-03-10T07:58:49Z</time>
      </trkpt>
      <trkpt lat="45.21261" lon="5.98451">
        <ele>1708.4399414062</ele>
        <time>2017-03-10T07:58:58Z</time>
      </trkpt>
      <trkpt lat="45.21256" lon="5.98453">
        <ele>1713.4399414062</ele>
        <time>2017-03-10T07:59:22Z</time>
      </trkpt>
      <trkpt lat="45.21253" lon="5.98458">
        <ele>1712.4399414062</ele>
        <time>2017-03-10T07:59:26Z</time>
      </trkpt>
      <trkpt lat="45.21248" lon="5.98463">
        <ele>1715.4399414062</ele>
        <time>2017-03-10T07:59:37Z</time>
      </trkpt>
      <trkpt lat="45.21244" lon="5.98466">
        <ele>1714.4399414062</ele>
        <time>2017-03-10T07:59:42Z</time>
      </trkpt>
      <trkpt lat="45.21247" lon="5.9846">
        <ele>1719.4399414062</ele>
        <time>2017-03-10T08:00:07Z</time>
      </trkpt>
      <trkpt lat="45.21246" lon="5.98453">
        <ele>1720.4399414062</ele>
        <time>2017-03-10T08:00:14Z</time>
      </trkpt>
      <trkpt lat="45.21244" lon="5.98446">
        <ele>1718.4399414062</ele>
        <time>2017-03-10T08:00:23Z</time>
      </trkpt>
      <trkpt lat="45.21245" lon="5.98438">
        <ele>1723.4399414062</ele>
        <time>2017-03-10T08:00:30Z</time>
      </trkpt>
      <trkpt lat="45.21243" lon="5.98433">
        <ele>1724.4399414062</ele>
        <time>2017-03-10T08:00:37Z</time>
      </trkpt>
      <trkpt lat="45.21241" lon="5.98426">
        <ele>1722.4399414062</ele>
        <time>2017-03-10T08:00:42Z</time>
      </trkpt>
      <trkpt lat="45.21236" lon="5.9843">
        <ele>1722.4399414062</ele>
        <time>2017-03-10T08:00:53Z</time>
      </trkpt>
      <trkpt lat="45.21233" lon="5.98436">
        <ele>1724.4399414062</ele>
        <time>2017-03-10T08:01:08Z</time>
      </trkpt>
      <trkpt lat="45.2123" lon="5.98441">
        <ele>1726.4399414062</ele>
        <time>2017-03-10T08:01:13Z</time>
      </trkpt>
      <trkpt lat="45.21228" lon="5.98435">
        <ele>1732.4399414062</ele>
        <time>2017-03-10T08:01:40Z</time>
      </trkpt>
      <trkpt lat="45.21228" lon="5.98429">
        <ele>1731.4399414062</ele>
        <time>2017-03-10T08:01:45Z</time>
      </trkpt>
      <trkpt lat="45.21224" lon="5.98434">
        <ele>1732.4399414062</ele>
        <time>2017-03-10T08:01:56Z</time>
      </trkpt>
      <trkpt lat="45.21221" lon="5.98439">
        <ele>1736.4399414062</ele>
        <time>2017-03-10T08:02:03Z</time>
      </trkpt>
      <trkpt lat="45.21218" lon="5.98444">
        <ele>1739.4399414062</ele>
        <time>2017-03-10T08:02:14Z</time>
      </trkpt>
      <trkpt lat="45.21214" lon="5.98449">
        <ele>1740.4399414062</ele>
        <time>2017-03-10T08:02:21Z</time>
      </trkpt>
      <trkpt lat="45.21209" lon="5.98448">
        <ele>1738.4399414062</ele>
        <time>2017-03-10T08:02:31Z</time>
      </trkpt>
      <trkpt lat="45.21211" lon="5.98455">
        <ele>1746.4399414062</ele>
        <time>2017-03-10T08:02:52Z</time>
      </trkpt>
      <trkpt lat="45.21214" lon="5.98459">
        <ele>1733.4399414062</ele>
        <time>2017-03-10T08:03:05Z</time>
      </trkpt>
      <trkpt lat="45.21216" lon="5.98466">
        <ele>1750.4399414062</ele>
        <time>2017-03-10T08:03:30Z</time>
      </trkpt>
      <trkpt lat="45.21218" lon="5.98472">
        <ele>1750.4399414062</ele>
        <time>2017-03-10T08:04:02Z</time>
      </trkpt>
      <trkpt lat="45.21222" lon="5.98476">
        <ele>1755.4399414062</ele>
        <time>2017-03-10T08:04:20Z</time>
      </trkpt>
      <trkpt lat="45.21224" lon="5.98482">
        <ele>1757.4399414062</ele>
        <time>2017-03-10T08:04:31Z</time>
      </trkpt>
      <trkpt lat="45.21221" lon="5.98488">
        <ele>1754.4399414062</ele>
        <time>2017-03-10T08:04:56Z</time>
      </trkpt>
      <trkpt lat="45.21225" lon="5.98492">
        <ele>1756.4399414062</ele>
        <time>2017-03-10T08:06:23Z</time>
      </trkpt>
      <trkpt lat="45.21226" lon="5.98499">
        <ele>1760.4399414062</ele>
        <time>2017-03-10T08:06:41Z</time>
      </trkpt>
      <trkpt lat="45.21225" lon="5.98506">
        <ele>1754.4399414062</ele>
        <time>2017-03-10T08:06:46Z</time>
      </trkpt>
      <trkpt lat="45.21226" lon="5.98512">
        <ele>1754.4399414062</ele>
        <time>2017-03-10T08:06:53Z</time>
      </trkpt>
      <trkpt lat="45.21229" lon="5.98518">
        <ele>1759.4399414062</ele>
        <time>2017-03-10T08:06:59Z</time>
      </trkpt>
      <trkpt lat="45.21229" lon="5.98524">
        <ele>1760.4399414062</ele>
        <time>2017-03-10T08:07:10Z</time>
      </trkpt>
      <trkpt lat="45.21229" lon="5.98531">
        <ele>1760.4399414062</ele>
        <time>2017-03-10T08:07:16Z</time>
      </trkpt>
      <trkpt lat="45.21227" lon="5.98537">
        <ele>1762.4399414062</ele>
        <time>2017-03-10T08:08:40Z</time>
      </trkpt>
      <trkpt lat="45.21223" lon="5.98543">
        <ele>1761.4399414062</ele>
        <time>2017-03-10T08:09:27Z</time>
      </trkpt>
      <trkpt lat="45.21221" lon="5.98551">
        <ele>1759.4399414062</ele>
        <time>2017-03-10T08:09:35Z</time>
      </trkpt>
      <trkpt lat="45.21219" lon="5.98558">
        <ele>1761.4399414062</ele>
        <time>2017-03-10T08:09:40Z</time>
      </trkpt>
      <trkpt lat="45.2122" lon="5.98565">
        <ele>1762.4399414062</ele>
        <time>2017-03-10T08:09:52Z</time>
      </trkpt>
      <trkpt lat="45.21221" lon="5.98573">
        <ele>1765.4399414062</ele>
        <time>2017-03-10T08:09:58Z</time>
      </trkpt>
      <trkpt lat="45.21219" lon="5.98579">
        <ele>1766.4399414062</ele>
        <time>2017-03-10T08:10:02Z</time>
      </trkpt>
      <trkpt lat="45.21217" lon="5.98586">
        <ele>1767.4399414062</ele>
        <time>2017-03-10T08:10:05Z</time>
      </trkpt>
      <trkpt lat="45.21215" lon="5.98592">
        <ele>1768.4399414062</ele>
        <time>2017-03-10T08:10:10Z</time>
      </trkpt>
      <trkpt lat="45.21211" lon="5.98598">
        <ele>1771.4399414062</ele>
        <time>2017-03-10T08:10:16Z</time>
      </trkpt>
      <trkpt lat="45.21206" lon="5.98602">
        <ele>1771.4399414062</ele>
        <time>2017-03-10T08:10:26Z</time>
      </trkpt>
      <trkpt lat="45.21202" lon="5.98606">
        <ele>1773.4399414062</ele>
        <time>2017-03-10T08:10:29Z</time>
      </trkpt>
      <trkpt lat="45.21197" lon="5.98608">
        <ele>1773.4399414062</ele>
        <time>2017-03-10T08:10:36Z</time>
      </trkpt>
      <trkpt lat="45.21194" lon="5.98603">
        <ele>1775.4399414062</ele>
        <time>2017-03-10T08:10:42Z</time>
      </trkpt>
      <trkpt lat="45.21189" lon="5.98606">
        <ele>1778.4399414062</ele>
        <time>2017-03-10T08:10:49Z</time>
      </trkpt>
      <trkpt lat="45.21185" lon="5.98609">
        <ele>1779.4399414062</ele>
        <time>2017-03-10T08:10:52Z</time>
      </trkpt>
      <trkpt lat="45.2118" lon="5.98611">
        <ele>1784.4399414062</ele>
        <time>2017-03-10T08:11:01Z</time>
      </trkpt>
      <trkpt lat="45.21175" lon="5.98614">
        <ele>1783.4399414062</ele>
        <time>2017-03-10T08:11:06Z</time>
      </trkpt>
      <trkpt lat="45.2117" lon="5.98615">
        <ele>1778.4399414062</ele>
        <time>2017-03-10T08:11:24Z</time>
      </trkpt>
      <trkpt lat="45.21166" lon="5.98618">
        <ele>1779.4399414062</ele>
        <time>2017-03-10T08:11:34Z</time>
      </trkpt>
      <trkpt lat="45.21162" lon="5.98614">
        <ele>1787.4399414062</ele>
        <time>2017-03-10T08:12:06Z</time>
      </trkpt>
      <trkpt lat="45.2116" lon="5.98608">
        <ele>1789.4399414062</ele>
        <time>2017-03-10T08:12:12Z</time>
      </trkpt>
      <trkpt lat="45.2116" lon="5.98601">
        <ele>1789.4399414062</ele>
        <time>2017-03-10T08:12:20Z</time>
      </trkpt>
      <trkpt lat="45.21156" lon="5.98603">
        <ele>1796.4399414062</ele>
        <time>2017-03-10T08:12:36Z</time>
      </trkpt>
      <trkpt lat="45.21151" lon="5.98607">
        <ele>1797.4399414062</ele>
        <time>2017-03-10T08:12:44Z</time>
      </trkpt>
      <trkpt lat="45.21148" lon="5.98612">
        <ele>1798.4399414062</ele>
        <time>2017-03-10T08:12:56Z</time>
      </trkpt>
      <trkpt lat="45.21145" lon="5.98618">
        <ele>1801.4399414062</ele>
        <time>2017-03-10T08:13:10Z</time>
      </trkpt>
      <trkpt lat="45.21141" lon="5.98613">
        <ele>1798.4399414062</ele>
        <time>2017-03-10T08:13:18Z</time>
      </trkpt>
      <trkpt lat="45.21141" lon="5.98607">
        <ele>1802.4399414062</ele>
        <time>2017-03-10T08:13:28Z</time>
      </trkpt>
      <trkpt lat="45.21142" lon="5.986">
        <ele>1804.4399414062</ele>
        <time>2017-03-10T08:13:39Z</time>
      </trkpt>
      <trkpt lat="45.21142" lon="5.98594">
        <ele>1807.4399414062</ele>
        <time>2017-03-10T08:13:45Z</time>
      </trkpt>
      <trkpt lat="45.21142" lon="5.98587">
        <ele>1808.4399414062</ele>
        <time>2017-03-10T08:13:51Z</time>
      </trkpt>
      <trkpt lat="45.2114" lon="5.98581">
        <ele>1810.4399414062</ele>
        <time>2017-03-10T08:14:07Z</time>
      </trkpt>
      <trkpt lat="45.21135" lon="5.98577">
        <ele>1819.4399414062</ele>
        <time>2017-03-10T08:14:38Z</time>
      </trkpt>
      <trkpt lat="45.21131" lon="5.98582">
        <ele>1818.4399414062</ele>
        <time>2017-03-10T08:14:42Z</time>
      </trkpt>
      <trkpt lat="45.21128" lon="5.98578">
        <ele>1818.4399414062</ele>
        <time>2017-03-10T08:15:04Z</time>
      </trkpt>
      <trkpt lat="45.21123" lon="5.98579">
        <ele>1827.4399414062</ele>
        <time>2017-03-10T08:15:19Z</time>
      </trkpt>
      <trkpt lat="45.21118" lon="5.98576">
        <ele>1834.4399414062</ele>
        <time>2017-03-10T08:15:32Z</time>
      </trkpt>
      <trkpt lat="45.21113" lon="5.98573">
        <ele>1832.4399414062</ele>
        <time>2017-03-10T08:15:38Z</time>
      </trkpt>
      <trkpt lat="45.21116" lon="5.98569">
        <ele>1833.4399414062</ele>
        <time>2017-03-10T08:15:48Z</time>
      </trkpt>
      <trkpt lat="45.21119" lon="5.98563">
        <ele>1833.4399414062</ele>
        <time>2017-03-10T08:15:56Z</time>
      </trkpt>
      <trkpt lat="45.21114" lon="5.98563">
        <ele>1836.4399414062</ele>
        <time>2017-03-10T08:16:12Z</time>
      </trkpt>
      <trkpt lat="45.21111" lon="5.98557">
        <ele>1842.4399414062</ele>
        <time>2017-03-10T08:16:38Z</time>
      </trkpt>
      <trkpt lat="45.21106" lon="5.98555">
        <ele>1843.4399414062</ele>
        <time>2017-03-10T08:16:52Z</time>
      </trkpt>
      <trkpt lat="45.21102" lon="5.98557">
        <ele>1847.4399414062</ele>
        <time>2017-03-10T08:17:20Z</time>
      </trkpt>
      <trkpt lat="45.21097" lon="5.98557">
        <ele>1853.4399414062</ele>
        <time>2017-03-10T08:17:27Z</time>
      </trkpt>
      <trkpt lat="45.21093" lon="5.9856">
        <ele>1851.4399414062</ele>
        <time>2017-03-10T08:17:35Z</time>
      </trkpt>
      <trkpt lat="45.21089" lon="5.98564">
        <ele>1855.4399414062</ele>
        <time>2017-03-10T08:17:54Z</time>
      </trkpt>
      <trkpt lat="45.21086" lon="5.98559">
        <ele>1857.4399414062</ele>
        <time>2017-03-10T08:18:11Z</time>
      </trkpt>
      <trkpt lat="45.21082" lon="5.98562">
        <ele>1861.4399414062</ele>
        <time>2017-03-10T08:18:17Z</time>
      </trkpt>
      <trkpt lat="45.21079" lon="5.98567">
        <ele>1861.4399414062</ele>
        <time>2017-03-10T08:18:26Z</time>
      </trkpt>
      <trkpt lat="45.21076" lon="5.98573">
        <ele>1863.4399414062</ele>
        <time>2017-03-10T08:18:39Z</time>
      </trkpt>
      <trkpt lat="45.21074" lon="5.98567">
        <ele>1868.4399414062</ele>
        <time>2017-03-10T08:18:49Z</time>
      </trkpt>
      <trkpt lat="45.21072" lon="5.98561">
        <ele>1870.4399414062</ele>
        <time>2017-03-10T08:19:01Z</time>
      </trkpt>
      <trkpt lat="45.21072" lon="5.98554">
        <ele>1870.4399414062</ele>
        <time>2017-03-10T08:19:08Z</time>
      </trkpt>
      <trkpt lat="45.21067" lon="5.98557">
        <ele>1877.4399414062</ele>
        <time>2017-03-10T08:19:24Z</time>
      </trkpt>
      <trkpt lat="45.21063" lon="5.9856">
        <ele>1876.4399414062</ele>
        <time>2017-03-10T08:19:35Z</time>
      </trkpt>
      <trkpt lat="45.21061" lon="5.98566">
        <ele>1878.4399414062</ele>
        <time>2017-03-10T08:19:40Z</time>
      </trkpt>
      <trkpt lat="45.21058" lon="5.9856">
        <ele>1882.4399414062</ele>
        <time>2017-03-10T08:19:57Z</time>
      </trkpt>
      <trkpt lat="45.21058" lon="5.98553">
        <ele>1885.4399414062</ele>
        <time>2017-03-10T08:20:09Z</time>
      </trkpt>
      <trkpt lat="45.21057" lon="5.98547">
        <ele>1886.4399414062</ele>
        <time>2017-03-10T08:20:21Z</time>
      </trkpt>
      <trkpt lat="45.21055" lon="5.98541">
        <ele>1882.4399414062</ele>
        <time>2017-03-10T08:20:30Z</time>
      </trkpt>
      <trkpt lat="45.21054" lon="5.98533">
        <ele>1885.4399414062</ele>
        <time>2017-03-10T08:20:41Z</time>
      </trkpt>
      <trkpt lat="45.21056" lon="5.98527">
        <ele>1887.4399414062</ele>
        <time>2017-03-10T08:20:50Z</time>
      </trkpt>
      <trkpt lat="45.21052" lon="5.98528">
        <ele>1887.4399414062</ele>
        <time>2017-03-10T08:21:23Z</time>
      </trkpt>
      <trkpt lat="45.21048" lon="5.98532">
        <ele>1890.4399414062</ele>
        <time>2017-03-10T08:21:35Z</time>
      </trkpt>
      <trkpt lat="45.21045" lon="5.98537">
        <ele>1892.4399414062</ele>
        <time>2017-03-10T08:21:43Z</time>
      </trkpt>
      <trkpt lat="45.21041" lon="5.98544">
        <ele>1894.4399414062</ele>
        <time>2017-03-10T08:21:57Z</time>
      </trkpt>
      <trkpt lat="45.21038" lon="5.98548">
        <ele>1895.4399414062</ele>
        <time>2017-03-10T08:22:01Z</time>
      </trkpt>
      <trkpt lat="45.21035" lon="5.98553">
        <ele>1898.4399414062</ele>
        <time>2017-03-10T08:22:08Z</time>
      </trkpt>
      <trkpt lat="45.21034" lon="5.9856">
        <ele>1901.4399414062</ele>
        <time>2017-03-10T08:22:24Z</time>
      </trkpt>
      <trkpt lat="45.21032" lon="5.98566">
        <ele>1903.4399414062</ele>
        <time>2017-03-10T08:22:30Z</time>
      </trkpt>
      <trkpt lat="45.2103" lon="5.98572">
        <ele>1909.4399414062</ele>
        <time>2017-03-10T08:22:35Z</time>
      </trkpt>
      <trkpt lat="45.21028" lon="5.98579">
        <ele>1909.4399414062</ele>
        <time>2017-03-10T08:22:39Z</time>
      </trkpt>
      <trkpt lat="45.21026" lon="5.98585">
        <ele>1909.4399414062</ele>
        <time>2017-03-10T08:22:45Z</time>
      </trkpt>
      <trkpt lat="45.21025" lon="5.98591">
        <ele>1910.4399414062</ele>
        <time>2017-03-10T08:22:51Z</time>
      </trkpt>
      <trkpt lat="45.21022" lon="5.98598">
        <ele>1910.4399414062</ele>
        <time>2017-03-10T08:22:56Z</time>
      </trkpt>
      <trkpt lat="45.21022" lon="5.98605">
        <ele>1911.4399414062</ele>
        <time>2017-03-10T08:23:05Z</time>
      </trkpt>
      <trkpt lat="45.21021" lon="5.98611">
        <ele>1915.4399414062</ele>
        <time>2017-03-10T08:23:21Z</time>
      </trkpt>
      <trkpt lat="45.21016" lon="5.98611">
        <ele>1919.4399414062</ele>
        <time>2017-03-10T08:23:43Z</time>
      </trkpt>
      <trkpt lat="45.21011" lon="5.98614">
        <ele>1921.4399414062</ele>
        <time>2017-03-10T08:23:48Z</time>
      </trkpt>
      <trkpt lat="45.21007" lon="5.98616">
        <ele>1924.4399414062</ele>
        <time>2017-03-10T08:23:53Z</time>
      </trkpt>
      <trkpt lat="45.21002" lon="5.98616">
        <ele>1925.4399414062</ele>
        <time>2017-03-10T08:23:57Z</time>
      </trkpt>
      <trkpt lat="45.20997" lon="5.98619">
        <ele>1928.4399414062</ele>
        <time>2017-03-10T08:24:05Z</time>
      </trkpt>
      <trkpt lat="45.21004" lon="5.98616">
        <ele>1927.4399414062</ele>
        <time>2017-03-10T08:25:03Z</time>
      </trkpt>
      <trkpt lat="45.21009" lon="5.98616">
        <ele>1928.4399414062</ele>
        <time>2017-03-10T08:25:11Z</time>
      </trkpt>
      <trkpt lat="45.21004" lon="5.98617">
        <ele>1926.4399414062</ele>
        <time>2017-03-10T08:25:38Z</time>
      </trkpt>
      <trkpt lat="45.20999" lon="5.98617">
        <ele>1924.4399414062</ele>
        <time>2017-03-10T08:25:43Z</time>
      </trkpt>
      <trkpt lat="45.20994" lon="5.9862">
        <ele>1926.4399414062</ele>
        <time>2017-03-10T08:25:49Z</time>
      </trkpt>
      <trkpt lat="45.20989" lon="5.98623">
        <ele>1930.4399414062</ele>
        <time>2017-03-10T08:25:54Z</time>
      </trkpt>
      <trkpt lat="45.20985" lon="5.98628">
        <ele>1930.4399414062</ele>
        <time>2017-03-10T08:26:00Z</time>
      </trkpt>
      <trkpt lat="45.20981" lon="5.98629">
        <ele>1930.4399414062</ele>
        <time>2017-03-10T08:26:08Z</time>
      </trkpt>
      <trkpt lat="45.20976" lon="5.9863">
        <ele>1931.4399414062</ele>
        <time>2017-03-10T08:26:15Z</time>
      </trkpt>
      <trkpt lat="45.20972" lon="5.98633">
        <ele>1933.4399414062</ele>
        <time>2017-03-10T08:26:19Z</time>
      </trkpt>
      <trkpt lat="45.2097" lon="5.9864">
        <ele>1934.4399414062</ele>
        <time>2017-03-10T08:26:25Z</time>
      </trkpt>
      <trkpt lat="45.20966" lon="5.98645">
        <ele>1936.4399414062</ele>
        <time>2017-03-10T08:26:33Z</time>
      </trkpt>
      <trkpt lat="45.20965" lon="5.98651">
        <ele>1934.4399414062</ele>
        <time>2017-03-10T08:26:35Z</time>
      </trkpt>
      <trkpt lat="45.20963" lon="5.98659">
        <ele>1932.4399414062</ele>
        <time>2017-03-10T08:26:38Z</time>
      </trkpt>
      <trkpt lat="45.20963" lon="5.98667">
        <ele>1932.4399414062</ele>
        <time>2017-03-10T08:26:42Z</time>
      </trkpt>
      <trkpt lat="45.20962" lon="5.98676">
        <ele>1927.4399414062</ele>
        <time>2017-03-10T08:26:47Z</time>
      </trkpt>
      <trkpt lat="45.20959" lon="5.98684">
        <ele>1927.4399414062</ele>
        <time>2017-03-10T08:26:50Z</time>
      </trkpt>
      <trkpt lat="45.20956" lon="5.98679">
        <ele>1927.4399414062</ele>
        <time>2017-03-10T08:26:58Z</time>
      </trkpt>
      <trkpt lat="45.20954" lon="5.98673">
        <ele>1928.4399414062</ele>
        <time>2017-03-10T08:27:00Z</time>
      </trkpt>
      <trkpt lat="45.20951" lon="5.98664">
        <ele>1926.4399414062</ele>
        <time>2017-03-10T08:27:02Z</time>
      </trkpt>
      <trkpt lat="45.20945" lon="5.98658">
        <ele>1922.4399414062</ele>
        <time>2017-03-10T08:27:03Z</time>
      </trkpt>
      <trkpt lat="45.20936" lon="5.98653">
        <ele>1921.4399414062</ele>
        <time>2017-03-10T08:27:05Z</time>
      </trkpt>
      <trkpt lat="45.20929" lon="5.98653">
        <ele>1921.4399414062</ele>
        <time>2017-03-10T08:27:07Z</time>
      </trkpt>
      <trkpt lat="45.20925" lon="5.98661">
        <ele>1919.4399414062</ele>
        <time>2017-03-10T08:27:10Z</time>
      </trkpt>
      <trkpt lat="45.20923" lon="5.98667">
        <ele>1914.4399414062</ele>
        <time>2017-03-10T08:27:13Z</time>
      </trkpt>
      <trkpt lat="45.20923" lon="5.98673">
        <ele>1904.4399414062</ele>
        <time>2017-03-10T08:27:51Z</time>
      </trkpt>
      <trkpt lat="45.20922" lon="5.9868">
        <ele>1908.4399414062</ele>
        <time>2017-03-10T08:27:54Z</time>
      </trkpt>
      <trkpt lat="45.20921" lon="5.98688">
        <ele>1908.4399414062</ele>
        <time>2017-03-10T08:27:57Z</time>
      </trkpt>
      <trkpt lat="45.20918" lon="5.98696">
        <ele>1905.4399414062</ele>
        <time>2017-03-10T08:28:00Z</time>
      </trkpt>
      <trkpt lat="45.20916" lon="5.98704">
        <ele>1905.4399414062</ele>
        <time>2017-03-10T08:28:03Z</time>
      </trkpt>
      <trkpt lat="45.20914" lon="5.98712">
        <ele>1905.4399414062</ele>
        <time>2017-03-10T08:28:07Z</time>
      </trkpt>
      <trkpt lat="45.20912" lon="5.9872">
        <ele>1905.4399414062</ele>
        <time>2017-03-10T08:28:11Z</time>
      </trkpt>
      <trkpt lat="45.2091" lon="5.98726">
        <ele>1905.4399414062</ele>
        <time>2017-03-10T08:28:14Z</time>
      </trkpt>
      <trkpt lat="45.20907" lon="5.98734">
        <ele>1905.4399414062</ele>
        <time>2017-03-10T08:28:17Z</time>
      </trkpt>
      <trkpt lat="45.20904" lon="5.9874">
        <ele>1904.4399414062</ele>
        <time>2017-03-10T08:28:20Z</time>
      </trkpt>
      <trkpt lat="45.20901" lon="5.98747">
        <ele>1906.4399414062</ele>
        <time>2017-03-10T08:28:23Z</time>
      </trkpt>
      <trkpt lat="45.209" lon="5.98753">
        <ele>1906.4399414062</ele>
        <time>2017-03-10T08:28:27Z</time>
      </trkpt>
      <trkpt lat="45.20897" lon="5.9876">
        <ele>1906.4399414062</ele>
        <time>2017-03-10T08:28:31Z</time>
      </trkpt>
      <trkpt lat="45.20896" lon="5.98767">
        <ele>1907.4399414062</ele>
        <time>2017-03-10T08:28:36Z</time>
      </trkpt>
      <trkpt lat="45.20895" lon="5.98774">
        <ele>1908.4399414062</ele>
        <time>2017-03-10T08:28:40Z</time>
      </trkpt>
      <trkpt lat="45.20894" lon="5.98782">
        <ele>1906.4399414062</ele>
        <time>2017-03-10T08:28:44Z</time>
      </trkpt>
      <trkpt lat="45.20893" lon="5.98788">
        <ele>1906.4399414062</ele>
        <time>2017-03-10T08:28:47Z</time>
      </trkpt>
      <trkpt lat="45.20893" lon="5.98795">
        <ele>1906.4399414062</ele>
        <time>2017-03-10T08:28:50Z</time>
      </trkpt>
      <trkpt lat="45.20894" lon="5.98801">
        <ele>1906.4399414062</ele>
        <time>2017-03-10T08:28:53Z</time>
      </trkpt>
      <trkpt lat="45.20896" lon="5.98809">
        <ele>1906.4399414062</ele>
        <time>2017-03-10T08:28:56Z</time>
      </trkpt>
      <trkpt lat="45.20898" lon="5.98817">
        <ele>1905.4399414062</ele>
        <time>2017-03-10T08:29:00Z</time>
      </trkpt>
      <trkpt lat="45.20897" lon="5.98825">
        <ele>1905.4399414062</ele>
        <time>2017-03-10T08:29:04Z</time>
      </trkpt>
      <trkpt lat="45.20895" lon="5.98832">
        <ele>1904.4399414062</ele>
        <time>2017-03-10T08:29:08Z</time>
      </trkpt>
      <trkpt lat="45.20891" lon="5.98836">
        <ele>1904.4399414062</ele>
        <time>2017-03-10T08:29:12Z</time>
      </trkpt>
      <trkpt lat="45.20886" lon="5.98839">
        <ele>1905.4399414062</ele>
        <time>2017-03-10T08:29:17Z</time>
      </trkpt>
      <trkpt lat="45.20881" lon="5.98843">
        <ele>1905.4399414062</ele>
        <time>2017-03-10T08:29:21Z</time>
      </trkpt>
      <trkpt lat="45.20877" lon="5.98846">
        <ele>1905.4399414062</ele>
        <time>2017-03-10T08:29:25Z</time>
      </trkpt>
      <trkpt lat="45.20873" lon="5.9885">
        <ele>1906.4399414062</ele>
        <time>2017-03-10T08:29:29Z</time>
      </trkpt>
      <trkpt lat="45.20869" lon="5.98854">
        <ele>1904.4399414062</ele>
        <time>2017-03-10T08:29:34Z</time>
      </trkpt>
      <trkpt lat="45.20864" lon="5.98857">
        <ele>1906.4399414062</ele>
        <time>2017-03-10T08:29:39Z</time>
      </trkpt>
      <trkpt lat="45.20861" lon="5.98862">
        <ele>1906.4399414062</ele>
        <time>2017-03-10T08:29:44Z</time>
      </trkpt>
      <trkpt lat="45.20856" lon="5.98864">
        <ele>1906.4399414062</ele>
        <time>2017-03-10T08:29:48Z</time>
      </trkpt>
      <trkpt lat="45.20851" lon="5.98867">
        <ele>1906.4399414062</ele>
        <time>2017-03-10T08:29:54Z</time>
      </trkpt>
      <trkpt lat="45.20846" lon="5.98868">
        <ele>1904.4399414062</ele>
        <time>2017-03-10T08:30:00Z</time>
      </trkpt>
      <trkpt lat="45.20841" lon="5.9887">
        <ele>1905.4399414062</ele>
        <time>2017-03-10T08:30:05Z</time>
      </trkpt>
      <trkpt lat="45.20837" lon="5.98873">
        <ele>1905.4399414062</ele>
        <time>2017-03-10T08:30:10Z</time>
      </trkpt>
      <trkpt lat="45.20833" lon="5.98877">
        <ele>1907.4399414062</ele>
        <time>2017-03-10T08:30:15Z</time>
      </trkpt>
      <trkpt lat="45.20828" lon="5.9888">
        <ele>1907.4399414062</ele>
        <time>2017-03-10T08:30:19Z</time>
      </trkpt>
      <trkpt lat="45.20824" lon="5.98882">
        <ele>1906.4399414062</ele>
        <time>2017-03-10T08:30:24Z</time>
      </trkpt>
      <trkpt lat="45.20819" lon="5.98886">
        <ele>1904.4399414062</ele>
        <time>2017-03-10T08:30:28Z</time>
      </trkpt>
      <trkpt lat="45.20815" lon="5.98888">
        <ele>1910.4399414062</ele>
        <time>2017-03-10T08:30:33Z</time>
      </trkpt>
      <trkpt lat="45.2081" lon="5.9889">
        <ele>1909.4399414062</ele>
        <time>2017-03-10T08:30:37Z</time>
      </trkpt>
      <trkpt lat="45.20805" lon="5.98892">
        <ele>1910.4399414062</ele>
        <time>2017-03-10T08:30:42Z</time>
      </trkpt>
      <trkpt lat="45.20799" lon="5.98893">
        <ele>1911.4399414062</ele>
        <time>2017-03-10T08:30:47Z</time>
      </trkpt>
      <trkpt lat="45.20795" lon="5.98896">
        <ele>1909.4399414062</ele>
        <time>2017-03-10T08:30:53Z</time>
      </trkpt>
      <trkpt lat="45.2079" lon="5.98898">
        <ele>1910.4399414062</ele>
        <time>2017-03-10T08:30:58Z</time>
      </trkpt>
      <trkpt lat="45.20785" lon="5.98901">
        <ele>1909.4399414062</ele>
        <time>2017-03-10T08:31:04Z</time>
      </trkpt>
      <trkpt lat="45.2078" lon="5.98901">
        <ele>1911.4399414062</ele>
        <time>2017-03-10T08:31:09Z</time>
      </trkpt>
      <trkpt lat="45.20776" lon="5.98902">
        <ele>1910.4399414062</ele>
        <time>2017-03-10T08:31:14Z</time>
      </trkpt>
      <trkpt lat="45.20771" lon="5.98903">
        <ele>1914.4399414062</ele>
        <time>2017-03-10T08:31:20Z</time>
      </trkpt>
      <trkpt lat="45.20765" lon="5.98902">
        <ele>1918.4399414062</ele>
        <time>2017-03-10T08:31:27Z</time>
      </trkpt>
      <trkpt lat="45.20761" lon="5.98901">
        <ele>1917.4399414062</ele>
        <time>2017-03-10T08:31:32Z</time>
      </trkpt>
      <trkpt lat="45.20756" lon="5.98902">
        <ele>1920.4399414062</ele>
        <time>2017-03-10T08:31:37Z</time>
      </trkpt>
      <trkpt lat="45.20751" lon="5.98904">
        <ele>1920.4399414062</ele>
        <time>2017-03-10T08:31:42Z</time>
      </trkpt>
      <trkpt lat="45.20745" lon="5.98904">
        <ele>1921.4399414062</ele>
        <time>2017-03-10T08:31:47Z</time>
      </trkpt>
      <trkpt lat="45.2074" lon="5.98904">
        <ele>1925.4399414062</ele>
        <time>2017-03-10T08:31:53Z</time>
      </trkpt>
      <trkpt lat="45.20734" lon="5.98904">
        <ele>1925.4399414062</ele>
        <time>2017-03-10T08:31:59Z</time>
      </trkpt>
      <trkpt lat="45.20729" lon="5.98904">
        <ele>1928.4399414062</ele>
        <time>2017-03-10T08:32:05Z</time>
      </trkpt>
      <trkpt lat="45.20723" lon="5.98906">
        <ele>1927.4399414062</ele>
        <time>2017-03-10T08:32:10Z</time>
      </trkpt>
      <trkpt lat="45.20718" lon="5.98904">
        <ele>1927.4399414062</ele>
        <time>2017-03-10T08:32:15Z</time>
      </trkpt>
      <trkpt lat="45.20714" lon="5.98905">
        <ele>1926.4399414062</ele>
        <time>2017-03-10T08:32:20Z</time>
      </trkpt>
      <trkpt lat="45.20708" lon="5.98905">
        <ele>1925.4399414062</ele>
        <time>2017-03-10T08:32:24Z</time>
      </trkpt>
      <trkpt lat="45.20703" lon="5.98905">
        <ele>1922.4399414062</ele>
        <time>2017-03-10T08:32:28Z</time>
      </trkpt>
      <trkpt lat="45.20698" lon="5.98904">
        <ele>1924.4399414062</ele>
        <time>2017-03-10T08:32:32Z</time>
      </trkpt>
      <trkpt lat="45.20693" lon="5.98905">
        <ele>1923.4399414062</ele>
        <time>2017-03-10T08:32:37Z</time>
      </trkpt>
      <trkpt lat="45.20687" lon="5.98905">
        <ele>1921.4399414062</ele>
        <time>2017-03-10T08:32:42Z</time>
      </trkpt>
      <trkpt lat="45.20683" lon="5.98903">
        <ele>1923.4399414062</ele>
        <time>2017-03-10T08:32:47Z</time>
      </trkpt>
      <trkpt lat="45.20679" lon="5.98903">
        <ele>1922.4399414062</ele>
        <time>2017-03-10T08:32:55Z</time>
      </trkpt>
      <trkpt lat="45.20673" lon="5.989">
        <ele>1921.4399414062</ele>
        <time>2017-03-10T08:33:00Z</time>
      </trkpt>
      <trkpt lat="45.20668" lon="5.98899">
        <ele>1920.4399414062</ele>
        <time>2017-03-10T08:33:04Z</time>
      </trkpt>
      <trkpt lat="45.20663" lon="5.98897">
        <ele>1919.4399414062</ele>
        <time>2017-03-10T08:33:08Z</time>
      </trkpt>
      <trkpt lat="45.2066" lon="5.98893">
        <ele>1922.4399414062</ele>
        <time>2017-03-10T08:33:19Z</time>
      </trkpt>
      <trkpt lat="45.20656" lon="5.98889">
        <ele>1924.4399414062</ele>
        <time>2017-03-10T08:33:23Z</time>
      </trkpt>
      <trkpt lat="45.20651" lon="5.98887">
        <ele>1927.4399414062</ele>
        <time>2017-03-10T08:33:27Z</time>
      </trkpt>
      <trkpt lat="45.20646" lon="5.98884">
        <ele>1923.4399414062</ele>
        <time>2017-03-10T08:33:32Z</time>
      </trkpt>
      <trkpt lat="45.20643" lon="5.9888">
        <ele>1928.4399414062</ele>
        <time>2017-03-10T08:33:36Z</time>
      </trkpt>
      <trkpt lat="45.20638" lon="5.98877">
        <ele>1930.4399414062</ele>
        <time>2017-03-10T08:33:40Z</time>
      </trkpt>
      <trkpt lat="45.20634" lon="5.98873">
        <ele>1928.4399414062</ele>
        <time>2017-03-10T08:33:45Z</time>
      </trkpt>
      <trkpt lat="45.20629" lon="5.9887">
        <ele>1923.4399414062</ele>
        <time>2017-03-10T08:33:50Z</time>
      </trkpt>
      <trkpt lat="45.20625" lon="5.98865">
        <ele>1924.4399414062</ele>
        <time>2017-03-10T08:33:55Z</time>
      </trkpt>
      <trkpt lat="45.2062" lon="5.98861">
        <ele>1925.4399414062</ele>
        <time>2017-03-10T08:33:59Z</time>
      </trkpt>
      <trkpt lat="45.20616" lon="5.98856">
        <ele>1927.4399414062</ele>
        <time>2017-03-10T08:34:03Z</time>
      </trkpt>
      <trkpt lat="45.20613" lon="5.9885">
        <ele>1930.4399414062</ele>
        <time>2017-03-10T08:34:08Z</time>
      </trkpt>
      <trkpt lat="45.20609" lon="5.98846">
        <ele>1932.4399414062</ele>
        <time>2017-03-10T08:34:12Z</time>
      </trkpt>
      <trkpt lat="45.20603" lon="5.98842">
        <ele>1932.4399414062</ele>
        <time>2017-03-10T08:34:18Z</time>
      </trkpt>
      <trkpt lat="45.20599" lon="5.98838">
        <ele>1933.4399414062</ele>
        <time>2017-03-10T08:34:22Z</time>
      </trkpt>
      <trkpt lat="45.20595" lon="5.98834">
        <ele>1931.4399414062</ele>
        <time>2017-03-10T08:34:26Z</time>
      </trkpt>
      <trkpt lat="45.20591" lon="5.98829">
        <ele>1932.4399414062</ele>
        <time>2017-03-10T08:34:30Z</time>
      </trkpt>
      <trkpt lat="45.20587" lon="5.98826">
        <ele>1933.4399414062</ele>
        <time>2017-03-10T08:34:34Z</time>
      </trkpt>
      <trkpt lat="45.20581" lon="5.98824">
        <ele>1932.4399414062</ele>
        <time>2017-03-10T08:34:39Z</time>
      </trkpt>
      <trkpt lat="45.20576" lon="5.98823">
        <ele>1934.4399414062</ele>
        <time>2017-03-10T08:34:45Z</time>
      </trkpt>
      <trkpt lat="45.20571" lon="5.98822">
        <ele>1933.4399414062</ele>
        <time>2017-03-10T08:34:49Z</time>
      </trkpt>
      <trkpt lat="45.20566" lon="5.9882">
        <ele>1935.4389648438</ele>
        <time>2017-03-10T08:34:54Z</time>
      </trkpt>
      <trkpt lat="45.20562" lon="5.98824">
        <ele>1942.4389648438</ele>
        <time>2017-03-10T08:35:00Z</time>
      </trkpt>
      <trkpt lat="45.20557" lon="5.98828">
        <ele>1945.4389648438</ele>
        <time>2017-03-10T08:35:06Z</time>
      </trkpt>
      <trkpt lat="45.20553" lon="5.98831">
        <ele>1946.4389648438</ele>
        <time>2017-03-10T08:35:12Z</time>
      </trkpt>
      <trkpt lat="45.20548" lon="5.98834">
        <ele>1952.4389648438</ele>
        <time>2017-03-10T08:35:22Z</time>
      </trkpt>
      <trkpt lat="45.20544" lon="5.98837">
        <ele>1951.4389648438</ele>
        <time>2017-03-10T08:35:29Z</time>
      </trkpt>
      <trkpt lat="45.2054" lon="5.98841">
        <ele>1952.4389648438</ele>
        <time>2017-03-10T08:35:35Z</time>
      </trkpt>
      <trkpt lat="45.20538" lon="5.98834">
        <ele>1954.4389648438</ele>
        <time>2017-03-10T08:35:45Z</time>
      </trkpt>
      <trkpt lat="45.20533" lon="5.98837">
        <ele>1957.4389648438</ele>
        <time>2017-03-10T08:35:53Z</time>
      </trkpt>
      <trkpt lat="45.20529" lon="5.9884">
        <ele>1961.4389648438</ele>
        <time>2017-03-10T08:36:02Z</time>
      </trkpt>
      <trkpt lat="45.20524" lon="5.98844">
        <ele>1959.4389648438</ele>
        <time>2017-03-10T08:36:07Z</time>
      </trkpt>
      <trkpt lat="45.2052" lon="5.98847">
        <ele>1963.4389648438</ele>
        <time>2017-03-10T08:36:13Z</time>
      </trkpt>
      <trkpt lat="45.20515" lon="5.98848">
        <ele>1965.4389648438</ele>
        <time>2017-03-10T08:36:21Z</time>
      </trkpt>
      <trkpt lat="45.20519" lon="5.98846">
        <ele>1966.4389648438</ele>
        <time>2017-03-10T08:36:46Z</time>
      </trkpt>
      <trkpt lat="45.20516" lon="5.98841">
        <ele>1971.4389648438</ele>
        <time>2017-03-10T08:38:59Z</time>
      </trkpt>
      <trkpt lat="45.20511" lon="5.9884">
        <ele>1973.4389648438</ele>
        <time>2017-03-10T08:39:04Z</time>
      </trkpt>
      <trkpt lat="45.20506" lon="5.98839">
        <ele>1976.4389648438</ele>
        <time>2017-03-10T08:39:09Z</time>
      </trkpt>
      <trkpt lat="45.20501" lon="5.98839">
        <ele>1976.4389648438</ele>
        <time>2017-03-10T08:39:14Z</time>
      </trkpt>
      <trkpt lat="45.20495" lon="5.98839">
        <ele>1979.4389648438</ele>
        <time>2017-03-10T08:39:21Z</time>
      </trkpt>
      <trkpt lat="45.20494" lon="5.98833">
        <ele>1978.4389648438</ele>
        <time>2017-03-10T08:39:28Z</time>
      </trkpt>
      <trkpt lat="45.20492" lon="5.98827">
        <ele>1980.4389648438</ele>
        <time>2017-03-10T08:39:35Z</time>
      </trkpt>
      <trkpt lat="45.2049" lon="5.98821">
        <ele>1980.4389648438</ele>
        <time>2017-03-10T08:39:44Z</time>
      </trkpt>
      <trkpt lat="45.20489" lon="5.98813">
        <ele>1980.4389648438</ele>
        <time>2017-03-10T08:39:48Z</time>
      </trkpt>
      <trkpt lat="45.20488" lon="5.98806">
        <ele>1976.4389648438</ele>
        <time>2017-03-10T08:39:54Z</time>
      </trkpt>
      <trkpt lat="45.2049" lon="5.98799">
        <ele>1979.4389648438</ele>
        <time>2017-03-10T08:40:00Z</time>
      </trkpt>
      <trkpt lat="45.20492" lon="5.98793">
        <ele>1980.4389648438</ele>
        <time>2017-03-10T08:40:04Z</time>
      </trkpt>
      <trkpt lat="45.20491" lon="5.98784">
        <ele>1982.4389648438</ele>
        <time>2017-03-10T08:40:10Z</time>
      </trkpt>
      <trkpt lat="45.20493" lon="5.98778">
        <ele>1983.4389648438</ele>
        <time>2017-03-10T08:40:13Z</time>
      </trkpt>
      <trkpt lat="45.20488" lon="5.98777">
        <ele>1986.4389648438</ele>
        <time>2017-03-10T08:40:23Z</time>
      </trkpt>
      <trkpt lat="45.20483" lon="5.9878">
        <ele>1988.4389648438</ele>
        <time>2017-03-10T08:40:29Z</time>
      </trkpt>
      <trkpt lat="45.20479" lon="5.98785">
        <ele>1988.4389648438</ele>
        <time>2017-03-10T08:40:33Z</time>
      </trkpt>
      <trkpt lat="45.20474" lon="5.98788">
        <ele>1989.4389648438</ele>
        <time>2017-03-10T08:40:38Z</time>
      </trkpt>
      <trkpt lat="45.2047" lon="5.98792">
        <ele>1988.4389648438</ele>
        <time>2017-03-10T08:40:43Z</time>
      </trkpt>
      <trkpt lat="45.20465" lon="5.98795">
        <ele>1987.4389648438</ele>
        <time>2017-03-10T08:40:48Z</time>
      </trkpt>
      <trkpt lat="45.20461" lon="5.98797">
        <ele>1986.4389648438</ele>
        <time>2017-03-10T08:40:52Z</time>
      </trkpt>
      <trkpt lat="45.20456" lon="5.98797">
        <ele>1991.4389648438</ele>
        <time>2017-03-10T08:40:58Z</time>
      </trkpt>
      <trkpt lat="45.20451" lon="5.98801">
        <ele>1996.4389648438</ele>
        <time>2017-03-10T08:41:05Z</time>
      </trkpt>
      <trkpt lat="45.20446" lon="5.98804">
        <ele>1996.4389648438</ele>
        <time>2017-03-10T08:41:10Z</time>
      </trkpt>
      <trkpt lat="45.20445" lon="5.98797">
        <ele>2000.4389648438</ele>
        <time>2017-03-10T08:41:18Z</time>
      </trkpt>
      <trkpt lat="45.20446" lon="5.9879">
        <ele>1997.4389648438</ele>
        <time>2017-03-10T08:41:24Z</time>
      </trkpt>
      <trkpt lat="45.20447" lon="5.98783">
        <ele>1999.4389648438</ele>
        <time>2017-03-10T08:41:29Z</time>
      </trkpt>
      <trkpt lat="45.20449" lon="5.98776">
        <ele>2001.4389648438</ele>
        <time>2017-03-10T08:41:34Z</time>
      </trkpt>
      <trkpt lat="45.20452" lon="5.9877">
        <ele>2000.4389648438</ele>
        <time>2017-03-10T08:41:38Z</time>
      </trkpt>
      <trkpt lat="45.20453" lon="5.98764">
        <ele>2000.4389648438</ele>
        <time>2017-03-10T08:41:42Z</time>
      </trkpt>
      <trkpt lat="45.20454" lon="5.98758">
        <ele>2002.4389648438</ele>
        <time>2017-03-10T08:41:46Z</time>
      </trkpt>
      <trkpt lat="45.20456" lon="5.98752">
        <ele>2000.4389648438</ele>
        <time>2017-03-10T08:41:51Z</time>
      </trkpt>
      <trkpt lat="45.20457" lon="5.98745">
        <ele>2001.4389648438</ele>
        <time>2017-03-10T08:41:57Z</time>
      </trkpt>
      <trkpt lat="45.20458" lon="5.98738">
        <ele>2004.4389648438</ele>
        <time>2017-03-10T08:42:02Z</time>
      </trkpt>
      <trkpt lat="45.20461" lon="5.98733">
        <ele>2004.4389648438</ele>
        <time>2017-03-10T08:42:07Z</time>
      </trkpt>
      <trkpt lat="45.20463" lon="5.98726">
        <ele>2008.4389648438</ele>
        <time>2017-03-10T08:42:14Z</time>
      </trkpt>
      <trkpt lat="45.20458" lon="5.98722">
        <ele>2009.4389648438</ele>
        <time>2017-03-10T08:42:26Z</time>
      </trkpt>
      <trkpt lat="45.20454" lon="5.98721">
        <ele>2010.4389648438</ele>
        <time>2017-03-10T08:42:30Z</time>
      </trkpt>
      <trkpt lat="45.2045" lon="5.98725">
        <ele>2012.4389648438</ele>
        <time>2017-03-10T08:42:34Z</time>
      </trkpt>
      <trkpt lat="45.20446" lon="5.98728">
        <ele>2011.4389648438</ele>
        <time>2017-03-10T08:42:38Z</time>
      </trkpt>
      <trkpt lat="45.20441" lon="5.9873">
        <ele>2011.4389648438</ele>
        <time>2017-03-10T08:42:42Z</time>
      </trkpt>
      <trkpt lat="45.20437" lon="5.98736">
        <ele>2013.4389648438</ele>
        <time>2017-03-10T08:42:48Z</time>
      </trkpt>
      <trkpt lat="45.20433" lon="5.9874">
        <ele>2014.4389648438</ele>
        <time>2017-03-10T08:42:52Z</time>
      </trkpt>
      <trkpt lat="45.20429" lon="5.98745">
        <ele>2017.4389648438</ele>
        <time>2017-03-10T08:42:57Z</time>
      </trkpt>
      <trkpt lat="45.20425" lon="5.98747">
        <ele>2019.4389648438</ele>
        <time>2017-03-10T08:43:04Z</time>
      </trkpt>
      <trkpt lat="45.20421" lon="5.98752">
        <ele>2018.4389648438</ele>
        <time>2017-03-10T08:43:08Z</time>
      </trkpt>
      <trkpt lat="45.20416" lon="5.98754">
        <ele>2021.4389648438</ele>
        <time>2017-03-10T08:43:17Z</time>
      </trkpt>
      <trkpt lat="45.20411" lon="5.98756">
        <ele>2023.4389648438</ele>
        <time>2017-03-10T08:43:25Z</time>
      </trkpt>
      <trkpt lat="45.20407" lon="5.9876">
        <ele>2023.4389648438</ele>
        <time>2017-03-10T08:43:29Z</time>
      </trkpt>
      <trkpt lat="45.20403" lon="5.98762">
        <ele>2024.4389648438</ele>
        <time>2017-03-10T08:43:36Z</time>
      </trkpt>
      <trkpt lat="45.204" lon="5.98768">
        <ele>2025.4389648438</ele>
        <time>2017-03-10T08:43:42Z</time>
      </trkpt>
      <trkpt lat="45.20397" lon="5.98773">
        <ele>2026.4389648438</ele>
        <time>2017-03-10T08:43:46Z</time>
      </trkpt>
      <trkpt lat="45.20395" lon="5.98779">
        <ele>2030.4389648438</ele>
        <time>2017-03-10T08:43:55Z</time>
      </trkpt>
      <trkpt lat="45.20394" lon="5.98786">
        <ele>2034.4389648438</ele>
        <time>2017-03-10T08:44:01Z</time>
      </trkpt>
      <trkpt lat="45.20391" lon="5.98792">
        <ele>2035.4389648438</ele>
        <time>2017-03-10T08:44:07Z</time>
      </trkpt>
      <trkpt lat="45.20387" lon="5.98795">
        <ele>2035.4389648438</ele>
        <time>2017-03-10T08:44:13Z</time>
      </trkpt>
      <trkpt lat="45.20382" lon="5.98796">
        <ele>2033.4389648438</ele>
        <time>2017-03-10T08:44:17Z</time>
      </trkpt>
      <trkpt lat="45.20376" lon="5.98797">
        <ele>2032.4389648438</ele>
        <time>2017-03-10T08:44:22Z</time>
      </trkpt>
      <trkpt lat="45.20372" lon="5.98794">
        <ele>2031.4389648438</ele>
        <time>2017-03-10T08:44:27Z</time>
      </trkpt>
      <trkpt lat="45.20367" lon="5.98793">
        <ele>2028.4389648438</ele>
        <time>2017-03-10T08:44:31Z</time>
      </trkpt>
      <trkpt lat="45.20362" lon="5.98793">
        <ele>2030.4389648438</ele>
        <time>2017-03-10T08:44:36Z</time>
      </trkpt>
      <trkpt lat="45.20357" lon="5.98792">
        <ele>2027.4389648438</ele>
        <time>2017-03-10T08:44:41Z</time>
      </trkpt>
      <trkpt lat="45.20352" lon="5.9879">
        <ele>2028.4389648438</ele>
        <time>2017-03-10T08:44:45Z</time>
      </trkpt>
      <trkpt lat="45.20348" lon="5.98788">
        <ele>2026.4389648438</ele>
        <time>2017-03-10T08:44:49Z</time>
      </trkpt>
      <trkpt lat="45.20342" lon="5.98789">
        <ele>2029.4389648438</ele>
        <time>2017-03-10T08:44:58Z</time>
      </trkpt>
      <trkpt lat="45.20337" lon="5.98789">
        <ele>2028.4389648438</ele>
        <time>2017-03-10T08:45:03Z</time>
      </trkpt>
      <trkpt lat="45.20333" lon="5.98789">
        <ele>2029.4389648438</ele>
        <time>2017-03-10T08:45:07Z</time>
      </trkpt>
      <trkpt lat="45.20328" lon="5.98789">
        <ele>2031.4389648438</ele>
        <time>2017-03-10T08:45:14Z</time>
      </trkpt>
      <trkpt lat="45.20323" lon="5.98788">
        <ele>2032.4389648438</ele>
        <time>2017-03-10T08:45:18Z</time>
      </trkpt>
      <trkpt lat="45.20318" lon="5.98789">
        <ele>2030.4389648438</ele>
        <time>2017-03-10T08:45:22Z</time>
      </trkpt>
      <trkpt lat="45.20313" lon="5.98789">
        <ele>2026.4389648438</ele>
        <time>2017-03-10T08:45:26Z</time>
      </trkpt>
      <trkpt lat="45.20308" lon="5.98788">
        <ele>2025.4389648438</ele>
        <time>2017-03-10T08:45:31Z</time>
      </trkpt>
      <trkpt lat="45.20303" lon="5.98789">
        <ele>2026.4389648438</ele>
        <time>2017-03-10T08:45:36Z</time>
      </trkpt>
      <trkpt lat="45.20297" lon="5.98788">
        <ele>2026.4389648438</ele>
        <time>2017-03-10T08:45:41Z</time>
      </trkpt>
      <trkpt lat="45.20293" lon="5.98784">
        <ele>2029.4389648438</ele>
        <time>2017-03-10T08:45:45Z</time>
      </trkpt>
      <trkpt lat="45.20288" lon="5.98782">
        <ele>2032.4389648438</ele>
        <time>2017-03-10T08:45:51Z</time>
      </trkpt>
      <trkpt lat="45.20283" lon="5.9878">
        <ele>2034.4389648438</ele>
        <time>2017-03-10T08:45:56Z</time>
      </trkpt>
      <trkpt lat="45.20278" lon="5.98782">
        <ele>2038.4389648438</ele>
        <time>2017-03-10T08:46:03Z</time>
      </trkpt>
      <trkpt lat="45.20272" lon="5.98782">
        <ele>2046.4389648438</ele>
        <time>2017-03-10T08:46:12Z</time>
      </trkpt>
      <trkpt lat="45.20267" lon="5.98782">
        <ele>2046.4389648438</ele>
        <time>2017-03-10T08:46:18Z</time>
      </trkpt>
      <trkpt lat="45.20263" lon="5.98783">
        <ele>2044.4389648438</ele>
        <time>2017-03-10T08:46:23Z</time>
      </trkpt>
      <trkpt lat="45.20258" lon="5.98784">
        <ele>2042.4389648438</ele>
        <time>2017-03-10T08:46:29Z</time>
      </trkpt>
      <trkpt lat="45.20254" lon="5.98783">
        <ele>2040.4389648438</ele>
        <time>2017-03-10T08:46:34Z</time>
      </trkpt>
      <trkpt lat="45.20249" lon="5.98786">
        <ele>2042.4389648438</ele>
        <time>2017-03-10T08:46:42Z</time>
      </trkpt>
      <trkpt lat="45.20244" lon="5.98789">
        <ele>2042.4389648438</ele>
        <time>2017-03-10T08:46:56Z</time>
      </trkpt>
      <trkpt lat="45.20239" lon="5.98789">
        <ele>2043.4389648438</ele>
        <time>2017-03-10T08:47:06Z</time>
      </trkpt>
      <trkpt lat="45.20235" lon="5.98788">
        <ele>2047.4389648438</ele>
        <time>2017-03-10T08:47:14Z</time>
      </trkpt>
      <trkpt lat="45.2023" lon="5.98786">
        <ele>2050.4389648438</ele>
        <time>2017-03-10T08:47:18Z</time>
      </trkpt>
      <trkpt lat="45.20226" lon="5.98786">
        <ele>2049.4389648438</ele>
        <time>2017-03-10T08:47:22Z</time>
      </trkpt>
      <trkpt lat="45.20221" lon="5.98784">
        <ele>2051.4389648438</ele>
        <time>2017-03-10T08:47:33Z</time>
      </trkpt>
      <trkpt lat="45.20216" lon="5.98785">
        <ele>2056.4389648438</ele>
        <time>2017-03-10T08:47:42Z</time>
      </trkpt>
      <trkpt lat="45.20207" lon="5.98789">
        <ele>2070.4389648438</ele>
        <time>2017-03-10T08:47:57Z</time>
      </trkpt>
      <trkpt lat="45.20202" lon="5.98791">
        <ele>2068.4389648438</ele>
        <time>2017-03-10T08:48:01Z</time>
      </trkpt>
      <trkpt lat="45.20197" lon="5.9879">
        <ele>2068.4389648438</ele>
        <time>2017-03-10T08:48:08Z</time>
      </trkpt>
      <trkpt lat="45.20193" lon="5.98796">
        <ele>2071.4389648438</ele>
        <time>2017-03-10T08:48:14Z</time>
      </trkpt>
      <trkpt lat="45.20188" lon="5.98799">
        <ele>2073.4389648438</ele>
        <time>2017-03-10T08:48:22Z</time>
      </trkpt>
      <trkpt lat="45.20184" lon="5.98799">
        <ele>2067.4389648438</ele>
        <time>2017-03-10T08:48:27Z</time>
      </trkpt>
      <trkpt lat="45.20179" lon="5.98802">
        <ele>2065.4389648438</ele>
        <time>2017-03-10T08:48:35Z</time>
      </trkpt>
      <trkpt lat="45.20172" lon="5.98805">
        <ele>2066.4389648438</ele>
        <time>2017-03-10T08:48:41Z</time>
      </trkpt>
      <trkpt lat="45.20169" lon="5.9881">
        <ele>2066.4389648438</ele>
        <time>2017-03-10T08:48:49Z</time>
      </trkpt>
      <trkpt lat="45.20165" lon="5.98813">
        <ele>2068.4389648438</ele>
        <time>2017-03-10T08:48:59Z</time>
      </trkpt>
      <trkpt lat="45.20161" lon="5.98817">
        <ele>2067.4389648438</ele>
        <time>2017-03-10T08:49:03Z</time>
      </trkpt>
      <trkpt lat="45.20156" lon="5.98819">
        <ele>2061.4389648438</ele>
        <time>2017-03-10T08:49:10Z</time>
      </trkpt>
      <trkpt lat="45.20151" lon="5.98819">
        <ele>2057.4389648438</ele>
        <time>2017-03-10T08:49:19Z</time>
      </trkpt>
      <trkpt lat="45.20147" lon="5.98823">
        <ele>2057.4389648438</ele>
        <time>2017-03-10T08:49:27Z</time>
      </trkpt>
      <trkpt lat="45.20142" lon="5.98822">
        <ele>2058.4389648438</ele>
        <time>2017-03-10T08:49:35Z</time>
      </trkpt>
      <trkpt lat="45.20138" lon="5.98824">
        <ele>2053.4389648438</ele>
        <time>2017-03-10T08:49:40Z</time>
      </trkpt>
      <trkpt lat="45.20133" lon="5.98826">
        <ele>2055.4389648438</ele>
        <time>2017-03-10T08:49:45Z</time>
      </trkpt>
      <trkpt lat="45.20128" lon="5.98827">
        <ele>2059.4389648438</ele>
        <time>2017-03-10T08:49:52Z</time>
      </trkpt>
      <trkpt lat="45.20125" lon="5.98833">
        <ele>2070.4389648438</ele>
        <time>2017-03-10T08:50:00Z</time>
      </trkpt>
      <trkpt lat="45.20121" lon="5.98837">
        <ele>2069.4389648438</ele>
        <time>2017-03-10T08:50:06Z</time>
      </trkpt>
      <trkpt lat="45.20116" lon="5.98842">
        <ele>2076.4389648438</ele>
        <time>2017-03-10T08:50:15Z</time>
      </trkpt>
      <trkpt lat="45.20113" lon="5.98848">
        <ele>2079.4389648438</ele>
        <time>2017-03-10T08:50:20Z</time>
      </trkpt>
      <trkpt lat="45.20108" lon="5.98853">
        <ele>2078.4389648438</ele>
        <time>2017-03-10T08:50:25Z</time>
      </trkpt>
      <trkpt lat="45.20104" lon="5.98857">
        <ele>2079.4389648438</ele>
        <time>2017-03-10T08:50:32Z</time>
      </trkpt>
      <trkpt lat="45.20101" lon="5.98863">
        <ele>1957.4389648438</ele>
        <time>2017-03-10T08:50:39Z</time>
      </trkpt>
      <trkpt lat="45.20098" lon="5.98867">
        <ele>2005.4389648438</ele>
        <time>2017-03-10T08:50:43Z</time>
      </trkpt>
      <trkpt lat="45.20095" lon="5.98873">
        <ele>2024.4389648438</ele>
        <time>2017-03-10T08:50:47Z</time>
      </trkpt>
      <trkpt lat="45.20098" lon="5.98869">
        <ele>2055.4389648438</ele>
        <time>2017-03-10T08:50:53Z</time>
      </trkpt>
      <trkpt lat="45.20101" lon="5.98862">
        <ele>2008.4389648438</ele>
        <time>2017-03-10T08:51:01Z</time>
      </trkpt>
      <trkpt lat="45.20102" lon="5.98856">
        <ele>2054.4389648438</ele>
        <time>2017-03-10T08:51:05Z</time>
      </trkpt>
      <trkpt lat="45.20102" lon="5.98849">
        <ele>2073.4389648438</ele>
        <time>2017-03-10T08:51:11Z</time>
      </trkpt>
      <trkpt lat="45.20102" lon="5.98842">
        <ele>2084.4389648438</ele>
        <time>2017-03-10T08:51:15Z</time>
      </trkpt>
      <trkpt lat="45.20102" lon="5.98835">
        <ele>2092.4389648438</ele>
        <time>2017-03-10T08:51:19Z</time>
      </trkpt>
      <trkpt lat="45.20102" lon="5.98828">
        <ele>2095.4389648438</ele>
        <time>2017-03-10T08:51:25Z</time>
      </trkpt>
      <trkpt lat="45.20103" lon="5.98821">
        <ele>2099.4389648438</ele>
        <time>2017-03-10T08:51:30Z</time>
      </trkpt>
      <trkpt lat="45.20102" lon="5.98814">
        <ele>2101.4389648438</ele>
        <time>2017-03-10T08:51:36Z</time>
      </trkpt>
      <trkpt lat="45.20105" lon="5.98809">
        <ele>2107.4389648438</ele>
        <time>2017-03-10T08:51:40Z</time>
      </trkpt>
      <trkpt lat="45.20108" lon="5.98801">
        <ele>2111.4389648438</ele>
        <time>2017-03-10T08:51:45Z</time>
      </trkpt>
      <trkpt lat="45.20111" lon="5.98795">
        <ele>2120.4389648438</ele>
        <time>2017-03-10T08:51:53Z</time>
      </trkpt>
      <trkpt lat="45.20115" lon="5.98791">
        <ele>2122.4389648438</ele>
        <time>2017-03-10T08:51:58Z</time>
      </trkpt>
      <trkpt lat="45.20118" lon="5.98785">
        <ele>2124.4389648438</ele>
        <time>2017-03-10T08:52:03Z</time>
      </trkpt>
      <trkpt lat="45.2012" lon="5.98779">
        <ele>2127.4389648438</ele>
        <time>2017-03-10T08:52:10Z</time>
      </trkpt>
      <trkpt lat="45.20122" lon="5.98773">
        <ele>2129.4389648438</ele>
        <time>2017-03-10T08:52:16Z</time>
      </trkpt>
      <trkpt lat="45.20126" lon="5.98767">
        <ele>2133.4389648438</ele>
        <time>2017-03-10T08:52:23Z</time>
      </trkpt>
      <trkpt lat="45.2013" lon="5.98764">
        <ele>2135.4389648438</ele>
        <time>2017-03-10T08:52:29Z</time>
      </trkpt>
      <trkpt lat="45.20126" lon="5.98768">
        <ele>2135.4389648438</ele>
        <time>2017-03-10T08:52:37Z</time>
      </trkpt>
      <trkpt lat="45.20121" lon="5.9877">
        <ele>2139.4389648438</ele>
        <time>2017-03-10T08:52:43Z</time>
      </trkpt>
      <trkpt lat="45.20117" lon="5.98773">
        <ele>2140.4389648438</ele>
        <time>2017-03-10T08:52:49Z</time>
      </trkpt>
      <trkpt lat="45.20113" lon="5.98774">
        <ele>2141.4389648438</ele>
        <time>2017-03-10T08:52:54Z</time>
      </trkpt>
      <trkpt lat="45.20108" lon="5.98776">
        <ele>2142.4389648438</ele>
        <time>2017-03-10T08:53:01Z</time>
      </trkpt>
      <trkpt lat="45.20107" lon="5.98768">
        <ele>2140.4379882812</ele>
        <time>2017-03-10T08:53:17Z</time>
      </trkpt>
      <trkpt lat="45.2011" lon="5.98763">
        <ele>2139.4379882812</ele>
        <time>2017-03-10T08:53:22Z</time>
      </trkpt>
      <trkpt lat="45.2011" lon="5.98756">
        <ele>2139.4379882812</ele>
        <time>2017-03-10T08:53:28Z</time>
      </trkpt>
      <trkpt lat="45.20105" lon="5.98754">
        <ele>2138.4379882812</ele>
        <time>2017-03-10T08:53:40Z</time>
      </trkpt>
      <trkpt lat="45.20101" lon="5.98755">
        <ele>2138.4379882812</ele>
        <time>2017-03-10T08:53:45Z</time>
      </trkpt>
      <trkpt lat="45.20095" lon="5.98757">
        <ele>2136.4379882812</ele>
        <time>2017-03-10T08:53:52Z</time>
      </trkpt>
      <trkpt lat="45.20091" lon="5.9876">
        <ele>2136.4379882812</ele>
        <time>2017-03-10T08:53:56Z</time>
      </trkpt>
      <trkpt lat="45.20086" lon="5.98763">
        <ele>2136.4379882812</ele>
        <time>2017-03-10T08:54:00Z</time>
      </trkpt>
      <trkpt lat="45.20081" lon="5.98764">
        <ele>2135.4379882812</ele>
        <time>2017-03-10T08:54:05Z</time>
      </trkpt>
      <trkpt lat="45.20077" lon="5.98768">
        <ele>2137.4379882812</ele>
        <time>2017-03-10T08:54:11Z</time>
      </trkpt>
      <trkpt lat="45.20081" lon="5.98762">
        <ele>2148.4379882812</ele>
        <time>2017-03-10T08:54:23Z</time>
      </trkpt>
      <trkpt lat="45.20084" lon="5.98756">
        <ele>2151.4379882812</ele>
        <time>2017-03-10T08:54:30Z</time>
      </trkpt>
      <trkpt lat="45.20088" lon="5.98752">
        <ele>2155.4379882812</ele>
        <time>2017-03-10T08:54:34Z</time>
      </trkpt>
      <trkpt lat="45.20092" lon="5.98748">
        <ele>2159.4379882812</ele>
        <time>2017-03-10T08:54:38Z</time>
      </trkpt>
      <trkpt lat="45.20087" lon="5.98748">
        <ele>2172.4379882812</ele>
        <time>2017-03-10T08:55:02Z</time>
      </trkpt>
      <trkpt lat="45.20083" lon="5.98752">
        <ele>2173.4379882812</ele>
        <time>2017-03-10T08:55:08Z</time>
      </trkpt>
      <trkpt lat="45.20078" lon="5.98752">
        <ele>2171.4379882812</ele>
        <time>2017-03-10T08:55:12Z</time>
      </trkpt>
      <trkpt lat="45.20073" lon="5.98753">
        <ele>2170.4379882812</ele>
        <time>2017-03-10T08:55:16Z</time>
      </trkpt>
      <trkpt lat="45.20068" lon="5.98756">
        <ele>2171.4379882812</ele>
        <time>2017-03-10T08:55:22Z</time>
      </trkpt>
      <trkpt lat="45.20069" lon="5.98749">
        <ele>2181.4379882812</ele>
        <time>2017-03-10T08:55:43Z</time>
      </trkpt>
      <trkpt lat="45.20063" lon="5.98748">
        <ele>2179.4379882812</ele>
        <time>2017-03-10T08:55:54Z</time>
      </trkpt>
      <trkpt lat="45.20059" lon="5.98752">
        <ele>2184.4379882812</ele>
        <time>2017-03-10T08:56:02Z</time>
      </trkpt>
      <trkpt lat="45.20055" lon="5.98757">
        <ele>2186.4379882812</ele>
        <time>2017-03-10T08:56:09Z</time>
      </trkpt>
      <trkpt lat="45.20052" lon="5.98763">
        <ele>2186.4379882812</ele>
        <time>2017-03-10T08:56:14Z</time>
      </trkpt>
      <trkpt lat="45.20054" lon="5.98756">
        <ele>2190.4379882812</ele>
        <time>2017-03-10T08:56:33Z</time>
      </trkpt>
      <trkpt lat="45.20049" lon="5.98755">
        <ele>2188.4379882812</ele>
        <time>2017-03-10T08:56:42Z</time>
      </trkpt>
      <trkpt lat="45.20045" lon="5.9876">
        <ele>2191.4379882812</ele>
        <time>2017-03-10T08:56:51Z</time>
      </trkpt>
      <trkpt lat="45.20041" lon="5.98764">
        <ele>2195.4379882812</ele>
        <time>2017-03-10T08:56:58Z</time>
      </trkpt>
      <trkpt lat="45.20039" lon="5.98758">
        <ele>2195.4379882812</ele>
        <time>2017-03-10T08:57:13Z</time>
      </trkpt>
      <trkpt lat="45.20039" lon="5.9875">
        <ele>2196.4379882812</ele>
        <time>2017-03-10T08:57:25Z</time>
      </trkpt>
      <trkpt lat="45.20035" lon="5.98753">
        <ele>2202.4379882812</ele>
        <time>2017-03-10T08:57:39Z</time>
      </trkpt>
      <trkpt lat="45.20033" lon="5.98746">
        <ele>2212.4379882812</ele>
        <time>2017-03-10T08:57:56Z</time>
      </trkpt>
      <trkpt lat="45.20035" lon="5.98739">
        <ele>2213.4379882812</ele>
        <time>2017-03-10T08:58:02Z</time>
      </trkpt>
      <trkpt lat="45.20037" lon="5.98732">
        <ele>2216.4379882812</ele>
        <time>2017-03-10T08:59:02Z</time>
      </trkpt>
      <trkpt lat="45.20039" lon="5.98725">
        <ele>2216.4379882812</ele>
        <time>2017-03-10T08:59:06Z</time>
      </trkpt>
      <trkpt lat="45.2004" lon="5.98718">
        <ele>2214.4379882812</ele>
        <time>2017-03-10T08:59:10Z</time>
      </trkpt>
      <trkpt lat="45.20044" lon="5.98714">
        <ele>2216.4379882812</ele>
        <time>2017-03-10T08:59:16Z</time>
      </trkpt>
      <trkpt lat="45.20049" lon="5.98709">
        <ele>2218.4379882812</ele>
        <time>2017-03-10T08:59:20Z</time>
      </trkpt>
      <trkpt lat="45.20052" lon="5.98703">
        <ele>2219.4379882812</ele>
        <time>2017-03-10T08:59:26Z</time>
      </trkpt>
      <trkpt lat="45.20055" lon="5.98699">
        <ele>2222.4379882812</ele>
        <time>2017-03-10T08:59:31Z</time>
      </trkpt>
      <trkpt lat="45.20058" lon="5.98694">
        <ele>2222.4379882812</ele>
        <time>2017-03-10T08:59:37Z</time>
      </trkpt>
      <trkpt lat="45.20058" lon="5.98686">
        <ele>2221.4379882812</ele>
        <time>2017-03-10T08:59:42Z</time>
      </trkpt>
      <trkpt lat="45.20059" lon="5.9868">
        <ele>2220.4379882812</ele>
        <time>2017-03-10T08:59:48Z</time>
      </trkpt>
      <trkpt lat="45.2006" lon="5.98673">
        <ele>2221.4379882812</ele>
        <time>2017-03-10T08:59:54Z</time>
      </trkpt>
      <trkpt lat="45.20061" lon="5.98666">
        <ele>2225.4379882812</ele>
        <time>2017-03-10T09:00:02Z</time>
      </trkpt>
      <trkpt lat="45.20055" lon="5.98667">
        <ele>2224.4379882812</ele>
        <time>2017-03-10T09:00:08Z</time>
      </trkpt>
      <trkpt lat="45.20049" lon="5.98668">
        <ele>2219.4379882812</ele>
        <time>2017-03-10T09:00:15Z</time>
      </trkpt>
      <trkpt lat="45.20045" lon="5.98671">
        <ele>2219.4379882812</ele>
        <time>2017-03-10T09:00:20Z</time>
      </trkpt>
      <trkpt lat="45.20041" lon="5.98677">
        <ele>2224.4379882812</ele>
        <time>2017-03-10T09:00:30Z</time>
      </trkpt>
      <trkpt lat="45.20037" lon="5.9868">
        <ele>2224.4379882812</ele>
        <time>2017-03-10T09:00:34Z</time>
      </trkpt>
      <trkpt lat="45.20032" lon="5.98682">
        <ele>2223.4379882812</ele>
        <time>2017-03-10T09:00:39Z</time>
      </trkpt>
      <trkpt lat="45.20028" lon="5.98685">
        <ele>2222.4379882812</ele>
        <time>2017-03-10T09:00:43Z</time>
      </trkpt>
      <trkpt lat="45.20023" lon="5.98687">
        <ele>2225.4379882812</ele>
        <time>2017-03-10T09:00:49Z</time>
      </trkpt>
      <trkpt lat="45.20019" lon="5.9869">
        <ele>2226.4379882812</ele>
        <time>2017-03-10T09:00:54Z</time>
      </trkpt>
      <trkpt lat="45.20015" lon="5.98695">
        <ele>2227.4379882812</ele>
        <time>2017-03-10T09:01:00Z</time>
      </trkpt>
      <trkpt lat="45.20011" lon="5.98698">
        <ele>2227.4379882812</ele>
        <time>2017-03-10T09:01:04Z</time>
      </trkpt>
      <trkpt lat="45.20009" lon="5.98705">
        <ele>2235.4379882812</ele>
        <time>2017-03-10T09:01:10Z</time>
      </trkpt>
      <trkpt lat="45.20006" lon="5.98712">
        <ele>2238.4379882812</ele>
        <time>2017-03-10T09:01:18Z</time>
      </trkpt>
      <trkpt lat="45.20002" lon="5.98718">
        <ele>2240.4379882812</ele>
        <time>2017-03-10T09:01:24Z</time>
      </trkpt>
      <trkpt lat="45.2" lon="5.98724">
        <ele>2242.4379882812</ele>
        <time>2017-03-10T09:01:30Z</time>
      </trkpt>
      <trkpt lat="45.19997" lon="5.98729">
        <ele>2240.4379882812</ele>
        <time>2017-03-10T09:01:36Z</time>
      </trkpt>
      <trkpt lat="45.19993" lon="5.98734">
        <ele>2238.4379882812</ele>
        <time>2017-03-10T09:01:40Z</time>
      </trkpt>
      <trkpt lat="45.1999" lon="5.9874">
        <ele>2239.4379882812</ele>
        <time>2017-03-10T09:01:47Z</time>
      </trkpt>
      <trkpt lat="45.19986" lon="5.98745">
        <ele>2237.4379882812</ele>
        <time>2017-03-10T09:01:50Z</time>
      </trkpt>
      <trkpt lat="45.19983" lon="5.98749">
        <ele>2234.4379882812</ele>
        <time>2017-03-10T09:01:56Z</time>
      </trkpt>
      <trkpt lat="45.1998" lon="5.98756">
        <ele>2236.4379882812</ele>
        <time>2017-03-10T09:02:00Z</time>
      </trkpt>
      <trkpt lat="45.19982" lon="5.9875">
        <ele>2237.4379882812</ele>
        <time>2017-03-10T09:02:07Z</time>
      </trkpt>
      <trkpt lat="45.19983" lon="5.98756">
        <ele>2237.4379882812</ele>
        <time>2017-03-10T09:02:23Z</time>
      </trkpt>
      <trkpt lat="45.19979" lon="5.98762">
        <ele>2240.4379882812</ele>
        <time>2017-03-10T09:02:26Z</time>
      </trkpt>
      <trkpt lat="45.19976" lon="5.98769">
        <ele>2240.4379882812</ele>
        <time>2017-03-10T09:02:30Z</time>
      </trkpt>
      <trkpt lat="45.19973" lon="5.98776">
        <ele>2243.4379882812</ele>
        <time>2017-03-10T09:02:34Z</time>
      </trkpt>
      <trkpt lat="45.19969" lon="5.98783">
        <ele>2242.4379882812</ele>
        <time>2017-03-10T09:02:38Z</time>
      </trkpt>
      <trkpt lat="45.19965" lon="5.98787">
        <ele>2239.4379882812</ele>
        <time>2017-03-10T09:02:44Z</time>
      </trkpt>
      <trkpt lat="45.19962" lon="5.98793">
        <ele>2242.4379882812</ele>
        <time>2017-03-10T09:02:47Z</time>
      </trkpt>
      <trkpt lat="45.19959" lon="5.98799">
        <ele>2241.4379882812</ele>
        <time>2017-03-10T09:02:50Z</time>
      </trkpt>
      <trkpt lat="45.19956" lon="5.98805">
        <ele>2240.4379882812</ele>
        <time>2017-03-10T09:02:52Z</time>
      </trkpt>
      <trkpt lat="45.19954" lon="5.98812">
        <ele>2239.4379882812</ele>
        <time>2017-03-10T09:02:56Z</time>
      </trkpt>
      <trkpt lat="45.1995" lon="5.98816">
        <ele>2238.4379882812</ele>
        <time>2017-03-10T09:02:59Z</time>
      </trkpt>
      <trkpt lat="45.19947" lon="5.9882">
        <ele>2236.4379882812</ele>
        <time>2017-03-10T09:03:03Z</time>
      </trkpt>
      <trkpt lat="45.19944" lon="5.98826">
        <ele>1851.4379882812</ele>
        <time>2017-03-10T09:03:06Z</time>
      </trkpt>
      <trkpt lat="45.19943" lon="5.98833">
        <ele>1991.4379882812</ele>
        <time>2017-03-10T09:03:09Z</time>
      </trkpt>
      <trkpt lat="45.19945" lon="5.98839">
        <ele>2125.4379882812</ele>
        <time>2017-03-10T09:03:15Z</time>
      </trkpt>
      <trkpt lat="45.19946" lon="5.98847">
        <ele>2186.4379882812</ele>
        <time>2017-03-10T09:03:21Z</time>
      </trkpt>
      <trkpt lat="45.19945" lon="5.98855">
        <ele>2214.4379882812</ele>
        <time>2017-03-10T09:03:29Z</time>
      </trkpt>
      <trkpt lat="45.19945" lon="5.98864">
        <ele>2227.4379882812</ele>
        <time>2017-03-10T09:03:40Z</time>
      </trkpt>
      <trkpt lat="45.19945" lon="5.98871">
        <ele>2226.4379882812</ele>
        <time>2017-03-10T09:03:45Z</time>
      </trkpt>
      <trkpt lat="45.19942" lon="5.98878">
        <ele>2229.4379882812</ele>
        <time>2017-03-10T09:03:48Z</time>
      </trkpt>
      <trkpt lat="45.19942" lon="5.98885">
        <ele>2230.4379882812</ele>
        <time>2017-03-10T09:03:53Z</time>
      </trkpt>
      <trkpt lat="45.19939" lon="5.98892">
        <ele>2230.4379882812</ele>
        <time>2017-03-10T09:04:02Z</time>
      </trkpt>
      <trkpt lat="45.19935" lon="5.98896">
        <ele>2230.4379882812</ele>
        <time>2017-03-10T09:04:07Z</time>
      </trkpt>
      <trkpt lat="45.19933" lon="5.98903">
        <ele>2233.4379882812</ele>
        <time>2017-03-10T09:04:14Z</time>
      </trkpt>
      <trkpt lat="45.19932" lon="5.9891">
        <ele>1939.4379882812</ele>
        <time>2017-03-10T09:04:20Z</time>
      </trkpt>
      <trkpt lat="45.19932" lon="5.98916">
        <ele>2093.4379882812</ele>
        <time>2017-03-10T09:04:26Z</time>
      </trkpt>
      <trkpt lat="45.19932" lon="5.98923">
        <ele>2155.4379882812</ele>
        <time>2017-03-10T09:04:30Z</time>
      </trkpt>
      <trkpt lat="45.19931" lon="5.9893">
        <ele>2208.4379882812</ele>
        <time>2017-03-10T09:04:36Z</time>
      </trkpt>
      <trkpt lat="45.19929" lon="5.98936">
        <ele>2224.4379882812</ele>
        <time>2017-03-10T09:04:41Z</time>
      </trkpt>
      <trkpt lat="45.19928" lon="5.98943">
        <ele>2237.4379882812</ele>
        <time>2017-03-10T09:04:47Z</time>
      </trkpt>
      <trkpt lat="45.19926" lon="5.98948">
        <ele>2243.4379882812</ele>
        <time>2017-03-10T09:04:52Z</time>
      </trkpt>
      <trkpt lat="45.19922" lon="5.98957">
        <ele>2246.4379882812</ele>
        <time>2017-03-10T09:04:59Z</time>
      </trkpt>
      <trkpt lat="45.1992" lon="5.98963">
        <ele>2248.4379882812</ele>
        <time>2017-03-10T09:05:03Z</time>
      </trkpt>
      <trkpt lat="45.19919" lon="5.9897">
        <ele>2256.4379882812</ele>
        <time>2017-03-10T09:05:11Z</time>
      </trkpt>
      <trkpt lat="45.19918" lon="5.98977">
        <ele>2263.4379882812</ele>
        <time>2017-03-10T09:05:16Z</time>
      </trkpt>
      <trkpt lat="45.19919" lon="5.98983">
        <ele>2265.4379882812</ele>
        <time>2017-03-10T09:05:21Z</time>
      </trkpt>
      <trkpt lat="45.19919" lon="5.98989">
        <ele>2267.4379882812</ele>
        <time>2017-03-10T09:05:25Z</time>
      </trkpt>
      <trkpt lat="45.19923" lon="5.98994">
        <ele>2268.4379882812</ele>
        <time>2017-03-10T09:05:28Z</time>
      </trkpt>
      <trkpt lat="45.19923" lon="5.99001">
        <ele>2272.4379882812</ele>
        <time>2017-03-10T09:05:34Z</time>
      </trkpt>
      <trkpt lat="45.19926" lon="5.99008">
        <ele>2275.4379882812</ele>
        <time>2017-03-10T09:05:40Z</time>
      </trkpt>
      <trkpt lat="45.19926" lon="5.99016">
        <ele>2274.4379882812</ele>
        <time>2017-03-10T09:05:47Z</time>
      </trkpt>
      <trkpt lat="45.19929" lon="5.99022">
        <ele>2279.4379882812</ele>
        <time>2017-03-10T09:05:52Z</time>
      </trkpt>
      <trkpt lat="45.19929" lon="5.99029">
        <ele>2279.4389648438</ele>
        <time>2017-03-10T09:05:57Z</time>
      </trkpt>
      <trkpt lat="45.19931" lon="5.99036">
        <ele>2280.4389648438</ele>
        <time>2017-03-10T09:06:03Z</time>
      </trkpt>
      <trkpt lat="45.19933" lon="5.99043">
        <ele>2283.4389648438</ele>
        <time>2017-03-10T09:06:10Z</time>
      </trkpt>
      <trkpt lat="45.19934" lon="5.9905">
        <ele>2283.4389648438</ele>
        <time>2017-03-10T09:06:17Z</time>
      </trkpt>
      <trkpt lat="45.19938" lon="5.99054">
        <ele>2285.4389648438</ele>
        <time>2017-03-10T09:06:21Z</time>
      </trkpt>
      <trkpt lat="45.19942" lon="5.99058">
        <ele>2284.4389648438</ele>
        <time>2017-03-10T09:06:27Z</time>
      </trkpt>
      <trkpt lat="45.19946" lon="5.99063">
        <ele>2283.4389648438</ele>
        <time>2017-03-10T09:06:33Z</time>
      </trkpt>
      <trkpt lat="45.19947" lon="5.99069">
        <ele>2283.4389648438</ele>
        <time>2017-03-10T09:06:38Z</time>
      </trkpt>
      <trkpt lat="45.19947" lon="5.99076">
        <ele>2285.4389648438</ele>
        <time>2017-03-10T09:06:44Z</time>
      </trkpt>
      <trkpt lat="45.19947" lon="5.99083">
        <ele>2286.4389648438</ele>
        <time>2017-03-10T09:06:50Z</time>
      </trkpt>
      <trkpt lat="45.19949" lon="5.9909">
        <ele>2289.4389648438</ele>
        <time>2017-03-10T09:06:57Z</time>
      </trkpt>
      <trkpt lat="45.19945" lon="5.99085">
        <ele>2291.4389648438</ele>
        <time>2017-03-10T09:07:06Z</time>
      </trkpt>
      <trkpt lat="45.1994" lon="5.99083">
        <ele>2297.4389648438</ele>
        <time>2017-03-10T09:07:14Z</time>
      </trkpt>
      <trkpt lat="45.19936" lon="5.99078">
        <ele>2297.4389648438</ele>
        <time>2017-03-10T09:07:21Z</time>
      </trkpt>
      <trkpt lat="45.19931" lon="5.99074">
        <ele>2299.4389648438</ele>
        <time>2017-03-10T09:07:30Z</time>
      </trkpt>
      <trkpt lat="45.19926" lon="5.99075">
        <ele>2296.4389648438</ele>
        <time>2017-03-10T09:07:32Z</time>
      </trkpt>
      <trkpt lat="45.19924" lon="5.99068">
        <ele>2297.4389648438</ele>
        <time>2017-03-10T09:07:39Z</time>
      </trkpt>
      <trkpt lat="45.19927" lon="5.99073">
        <ele>2296.4389648438</ele>
        <time>2017-03-10T09:07:51Z</time>
      </trkpt>
      <trkpt lat="45.19928" lon="5.9908">
        <ele>2299.4389648438</ele>
        <time>2017-03-10T09:07:56Z</time>
      </trkpt>
      <trkpt lat="45.19929" lon="5.99088">
        <ele>2299.4389648438</ele>
        <time>2017-03-10T09:08:02Z</time>
      </trkpt>
      <trkpt lat="45.19931" lon="5.99094">
        <ele>2302.4389648438</ele>
        <time>2017-03-10T09:08:06Z</time>
      </trkpt>
      <trkpt lat="45.19933" lon="5.99101">
        <ele>2303.4389648438</ele>
        <time>2017-03-10T09:08:10Z</time>
      </trkpt>
      <trkpt lat="45.19933" lon="5.99109">
        <ele>2305.4389648438</ele>
        <time>2017-03-10T09:08:19Z</time>
      </trkpt>
      <trkpt lat="45.19934" lon="5.99115">
        <ele>2302.4389648438</ele>
        <time>2017-03-10T09:08:23Z</time>
      </trkpt>
      <trkpt lat="45.19932" lon="5.99123">
        <ele>2301.4389648438</ele>
        <time>2017-03-10T09:08:29Z</time>
      </trkpt>
      <trkpt lat="45.19929" lon="5.99118">
        <ele>2306.4389648438</ele>
        <time>2017-03-10T09:08:37Z</time>
      </trkpt>
      <trkpt lat="45.19926" lon="5.99112">
        <ele>2309.4389648438</ele>
        <time>2017-03-10T09:08:44Z</time>
      </trkpt>
      <trkpt lat="45.19922" lon="5.99111">
        <ele>2308.4389648438</ele>
        <time>2017-03-10T09:08:46Z</time>
      </trkpt>
      <trkpt lat="45.19916" lon="5.9911">
        <ele>2311.4389648438</ele>
        <time>2017-03-10T09:08:49Z</time>
      </trkpt>
      <trkpt lat="45.19912" lon="5.99105">
        <ele>2312.4389648438</ele>
        <time>2017-03-10T09:09:00Z</time>
      </trkpt>
      <trkpt lat="45.19907" lon="5.99101">
        <ele>2317.4389648438</ele>
        <time>2017-03-10T09:09:06Z</time>
      </trkpt>
      <trkpt lat="45.19903" lon="5.99096">
        <ele>2319.4389648438</ele>
        <time>2017-03-10T09:09:14Z</time>
      </trkpt>
      <trkpt lat="45.199" lon="5.99091">
        <ele>2322.4389648438</ele>
        <time>2017-03-10T09:09:21Z</time>
      </trkpt>
      <trkpt lat="45.19896" lon="5.99088">
        <ele>2325.4389648438</ele>
        <time>2017-03-10T09:09:26Z</time>
      </trkpt>
      <trkpt lat="45.19894" lon="5.99082">
        <ele>2323.4389648438</ele>
        <time>2017-03-10T09:09:34Z</time>
      </trkpt>
      <trkpt lat="45.19891" lon="5.99077">
        <ele>2325.4379882812</ele>
        <time>2017-03-10T09:09:39Z</time>
      </trkpt>
      <trkpt lat="45.19887" lon="5.99075">
        <ele>2324.4379882812</ele>
        <time>2017-03-10T09:09:44Z</time>
      </trkpt>
      <trkpt lat="45.19882" lon="5.99071">
        <ele>2326.4379882812</ele>
        <time>2017-03-10T09:09:50Z</time>
      </trkpt>
      <trkpt lat="45.19878" lon="5.99067">
        <ele>2327.4379882812</ele>
        <time>2017-03-10T09:09:57Z</time>
      </trkpt>
      <trkpt lat="45.19874" lon="5.99063">
        <ele>2326.4379882812</ele>
        <time>2017-03-10T09:10:03Z</time>
      </trkpt>
      <trkpt lat="45.19869" lon="5.99059">
        <ele>2327.4379882812</ele>
        <time>2017-03-10T09:10:09Z</time>
      </trkpt>
      <trkpt lat="45.19867" lon="5.99053">
        <ele>2332.4379882812</ele>
        <time>2017-03-10T09:10:14Z</time>
      </trkpt>
      <trkpt lat="45.19865" lon="5.99047">
        <ele>2333.4379882812</ele>
        <time>2017-03-10T09:10:19Z</time>
      </trkpt>
      <trkpt lat="45.19862" lon="5.9904">
        <ele>2335.4379882812</ele>
        <time>2017-03-10T09:10:25Z</time>
      </trkpt>
      <trkpt lat="45.19859" lon="5.99033">
        <ele>2336.4379882812</ele>
        <time>2017-03-10T09:10:33Z</time>
      </trkpt>
      <trkpt lat="45.19857" lon="5.99028">
        <ele>2335.4379882812</ele>
        <time>2017-03-10T09:10:36Z</time>
      </trkpt>
      <trkpt lat="45.19851" lon="5.99026">
        <ele>2340.4379882812</ele>
        <time>2017-03-10T09:10:44Z</time>
      </trkpt>
      <trkpt lat="45.19848" lon="5.99032">
        <ele>2340.4379882812</ele>
        <time>2017-03-10T09:10:50Z</time>
      </trkpt>
      <trkpt lat="45.19844" lon="5.99039">
        <ele>2342.4379882812</ele>
        <time>2017-03-10T09:10:57Z</time>
      </trkpt>
      <trkpt lat="45.19841" lon="5.99044">
        <ele>2342.4379882812</ele>
        <time>2017-03-10T09:11:02Z</time>
      </trkpt>
      <trkpt lat="45.19843" lon="5.9905">
        <ele>2346.4379882812</ele>
        <time>2017-03-10T09:11:08Z</time>
      </trkpt>
      <trkpt lat="45.19842" lon="5.99057">
        <ele>2350.4379882812</ele>
        <time>2017-03-10T09:11:14Z</time>
      </trkpt>
      <trkpt lat="45.19844" lon="5.99064">
        <ele>2351.4379882812</ele>
        <time>2017-03-10T09:11:19Z</time>
      </trkpt>
      <trkpt lat="45.1984" lon="5.99059">
        <ele>2353.4379882812</ele>
        <time>2017-03-10T09:11:27Z</time>
      </trkpt>
      <trkpt lat="45.19837" lon="5.99054">
        <ele>2352.4379882812</ele>
        <time>2017-03-10T09:11:34Z</time>
      </trkpt>
      <trkpt lat="45.19835" lon="5.99047">
        <ele>2354.4379882812</ele>
        <time>2017-03-10T09:11:41Z</time>
      </trkpt>
      <trkpt lat="45.19834" lon="5.9904">
        <ele>2356.4379882812</ele>
        <time>2017-03-10T09:11:47Z</time>
      </trkpt>
      <trkpt lat="45.19832" lon="5.99034">
        <ele>2357.4379882812</ele>
        <time>2017-03-10T09:11:52Z</time>
      </trkpt>
      <trkpt lat="45.19833" lon="5.99027">
        <ele>2361.4379882812</ele>
        <time>2017-03-10T09:12:10Z</time>
      </trkpt>
      <trkpt lat="45.19832" lon="5.99021">
        <ele>2363.4379882812</ele>
        <time>2017-03-10T09:12:14Z</time>
      </trkpt>
      <trkpt lat="45.19832" lon="5.99014">
        <ele>2363.4379882812</ele>
        <time>2017-03-10T09:12:19Z</time>
      </trkpt>
      <trkpt lat="45.19831" lon="5.99008">
        <ele>2363.4379882812</ele>
        <time>2017-03-10T09:12:25Z</time>
      </trkpt>
      <trkpt lat="45.19827" lon="5.99009">
        <ele>2271.4379882812</ele>
        <time>2017-03-10T09:12:32Z</time>
      </trkpt>
      <trkpt lat="45.19824" lon="5.99014">
        <ele>2341.4379882812</ele>
        <time>2017-03-10T09:12:37Z</time>
      </trkpt>
      <trkpt lat="45.19819" lon="5.99017">
        <ele>2365.4379882812</ele>
        <time>2017-03-10T09:12:41Z</time>
      </trkpt>
      <trkpt lat="45.19815" lon="5.99022">
        <ele>2364.4379882812</ele>
        <time>2017-03-10T09:12:46Z</time>
      </trkpt>
      <trkpt lat="45.19813" lon="5.99029">
        <ele>2368.4379882812</ele>
        <time>2017-03-10T09:12:52Z</time>
      </trkpt>
      <trkpt lat="45.19811" lon="5.99035">
        <ele>2371.4379882812</ele>
        <time>2017-03-10T09:12:59Z</time>
      </trkpt>
      <trkpt lat="45.19809" lon="5.99042">
        <ele>2373.4379882812</ele>
        <time>2017-03-10T09:13:07Z</time>
      </trkpt>
      <trkpt lat="45.19806" lon="5.99036">
        <ele>2373.4379882812</ele>
        <time>2017-03-10T09:13:18Z</time>
      </trkpt>
      <trkpt lat="45.19805" lon="5.99027">
        <ele>2374.4379882812</ele>
        <time>2017-03-10T09:13:23Z</time>
      </trkpt>
      <trkpt lat="45.19805" lon="5.9902">
        <ele>2377.4379882812</ele>
        <time>2017-03-10T09:13:28Z</time>
      </trkpt>
      <trkpt lat="45.19806" lon="5.99014">
        <ele>2379.4379882812</ele>
        <time>2017-03-10T09:13:33Z</time>
      </trkpt>
      <trkpt lat="45.19801" lon="5.99015">
        <ele>2378.4379882812</ele>
        <time>2017-03-10T09:13:43Z</time>
      </trkpt>
      <trkpt lat="45.19796" lon="5.99022">
        <ele>2376.4379882812</ele>
        <time>2017-03-10T09:14:45Z</time>
      </trkpt>
      <trkpt lat="45.19798" lon="5.99027">
        <ele>2371.4379882812</ele>
        <time>2017-03-10T09:15:43Z</time>
      </trkpt>
      <trkpt lat="45.19795" lon="5.99033">
        <ele>2377.4379882812</ele>
        <time>2017-03-10T09:16:57Z</time>
      </trkpt>
      <trkpt lat="45.1979" lon="5.99033">
        <ele>2382.4379882812</ele>
        <time>2017-03-10T09:17:03Z</time>
      </trkpt>
      <trkpt lat="45.19789" lon="5.99026">
        <ele>2382.4379882812</ele>
        <time>2017-03-10T09:17:09Z</time>
      </trkpt>
      <trkpt lat="45.19786" lon="5.99022">
        <ele>2383.4379882812</ele>
        <time>2017-03-10T09:17:19Z</time>
      </trkpt>
      <trkpt lat="45.19785" lon="5.99029">
        <ele>2382.4379882812</ele>
        <time>2017-03-10T09:17:22Z</time>
      </trkpt>
      <trkpt lat="45.19781" lon="5.99034">
        <ele>2381.4379882812</ele>
        <time>2017-03-10T09:17:27Z</time>
      </trkpt>
      <trkpt lat="45.19777" lon="5.99038">
        <ele>2383.4379882812</ele>
        <time>2017-03-10T09:17:30Z</time>
      </trkpt>
      <trkpt lat="45.19776" lon="5.99044">
        <ele>2387.4379882812</ele>
        <time>2017-03-10T09:17:35Z</time>
      </trkpt>
      <trkpt lat="45.19777" lon="5.99052">
        <ele>2388.4379882812</ele>
        <time>2017-03-10T09:17:42Z</time>
      </trkpt>
      <trkpt lat="45.1978" lon="5.99059">
        <ele>2388.4379882812</ele>
        <time>2017-03-10T09:17:46Z</time>
      </trkpt>
      <trkpt lat="45.1978" lon="5.99067">
        <ele>2384.4379882812</ele>
        <time>2017-03-10T09:17:52Z</time>
      </trkpt>
      <trkpt lat="45.19782" lon="5.99074">
        <ele>2384.4379882812</ele>
        <time>2017-03-10T09:17:58Z</time>
      </trkpt>
      <trkpt lat="45.19779" lon="5.99078">
        <ele>2385.4379882812</ele>
        <time>2017-03-10T09:18:02Z</time>
      </trkpt>
      <trkpt lat="45.19777" lon="5.99084">
        <ele>2385.4379882812</ele>
        <time>2017-03-10T09:18:07Z</time>
      </trkpt>
      <trkpt lat="45.19779" lon="5.99091">
        <ele>2383.4379882812</ele>
        <time>2017-03-10T09:18:11Z</time>
      </trkpt>
      <trkpt lat="45.19776" lon="5.99096">
        <ele>2389.4379882812</ele>
        <time>2017-03-10T09:18:16Z</time>
      </trkpt>
      <trkpt lat="45.1977" lon="5.99097">
        <ele>2389.4379882812</ele>
        <time>2017-03-10T09:18:22Z</time>
      </trkpt>
      <trkpt lat="45.19766" lon="5.99104">
        <ele>2392.4379882812</ele>
        <time>2017-03-10T09:18:27Z</time>
      </trkpt>
      <trkpt lat="45.19764" lon="5.99111">
        <ele>2393.4379882812</ele>
        <time>2017-03-10T09:18:34Z</time>
      </trkpt>
      <trkpt lat="45.1976" lon="5.99117">
        <ele>2393.4379882812</ele>
        <time>2017-03-10T09:18:39Z</time>
      </trkpt>
      <trkpt lat="45.19759" lon="5.99123">
        <ele>2392.4379882812</ele>
        <time>2017-03-10T09:18:45Z</time>
      </trkpt>
      <trkpt lat="45.1976" lon="5.9913">
        <ele>2393.4379882812</ele>
        <time>2017-03-10T09:18:50Z</time>
      </trkpt>
      <trkpt lat="45.19758" lon="5.99137">
        <ele>2396.4379882812</ele>
        <time>2017-03-10T09:18:56Z</time>
      </trkpt>
      <trkpt lat="45.19756" lon="5.99143">
        <ele>2396.4379882812</ele>
        <time>2017-03-10T09:19:01Z</time>
      </trkpt>
      <trkpt lat="45.19754" lon="5.9915">
        <ele>2397.4379882812</ele>
        <time>2017-03-10T09:19:06Z</time>
      </trkpt>
      <trkpt lat="45.19751" lon="5.99156">
        <ele>2399.4379882812</ele>
        <time>2017-03-10T09:19:12Z</time>
      </trkpt>
      <trkpt lat="45.19752" lon="5.99164">
        <ele>2401.4379882812</ele>
        <time>2017-03-10T09:19:18Z</time>
      </trkpt>
      <trkpt lat="45.19753" lon="5.99171">
        <ele>2402.4379882812</ele>
        <time>2017-03-10T09:19:23Z</time>
      </trkpt>
      <trkpt lat="45.19751" lon="5.99178">
        <ele>2401.4379882812</ele>
        <time>2017-03-10T09:19:30Z</time>
      </trkpt>
      <trkpt lat="45.19752" lon="5.99187">
        <ele>2403.4379882812</ele>
        <time>2017-03-10T09:19:44Z</time>
      </trkpt>
      <trkpt lat="45.19753" lon="5.99193">
        <ele>2403.4379882812</ele>
        <time>2017-03-10T09:19:51Z</time>
      </trkpt>
      <trkpt lat="45.19754" lon="5.99201">
        <ele>2402.4379882812</ele>
        <time>2017-03-10T09:19:56Z</time>
      </trkpt>
      <trkpt lat="45.19754" lon="5.99209">
        <ele>2402.4379882812</ele>
        <time>2017-03-10T09:20:03Z</time>
      </trkpt>
      <trkpt lat="45.19754" lon="5.99216">
        <ele>2403.4379882812</ele>
        <time>2017-03-10T09:20:08Z</time>
      </trkpt>
      <trkpt lat="45.19754" lon="5.99223">
        <ele>2406.4379882812</ele>
        <time>2017-03-10T09:20:15Z</time>
      </trkpt>
      <trkpt lat="45.19756" lon="5.99231">
        <ele>2413.4379882812</ele>
        <time>2017-03-10T09:24:30Z</time>
      </trkpt>
      <trkpt lat="45.19758" lon="5.99237">
        <ele>2411.4379882812</ele>
        <time>2017-03-10T09:24:33Z</time>
      </trkpt>
      <trkpt lat="45.19759" lon="5.99245">
        <ele>2409.4379882812</ele>
        <time>2017-03-10T09:24:36Z</time>
      </trkpt>
      <trkpt lat="45.1976" lon="5.99251">
        <ele>2408.4379882812</ele>
        <time>2017-03-10T09:24:54Z</time>
      </trkpt>
      <trkpt lat="45.19764" lon="5.9926">
        <ele>2406.4379882812</ele>
        <time>2017-03-10T09:24:57Z</time>
      </trkpt>
      <trkpt lat="45.19764" lon="5.99268">
        <ele>2404.4389648438</ele>
        <time>2017-03-10T09:24:59Z</time>
      </trkpt>
      <trkpt lat="45.19762" lon="5.99275">
        <ele>2404.4389648438</ele>
        <time>2017-03-10T09:25:01Z</time>
      </trkpt>
      <trkpt lat="45.19762" lon="5.99282">
        <ele>2403.4389648438</ele>
        <time>2017-03-10T09:25:07Z</time>
      </trkpt>
      <trkpt lat="45.19769" lon="5.99284">
        <ele>2406.4389648438</ele>
        <time>2017-03-10T09:25:09Z</time>
      </trkpt>
      <trkpt lat="45.19781" lon="5.99292">
        <ele>2402.4389648438</ele>
        <time>2017-03-10T09:25:12Z</time>
      </trkpt>
      <trkpt lat="45.1979" lon="5.99305">
        <ele>2399.4389648438</ele>
        <time>2017-03-10T09:25:14Z</time>
      </trkpt>
      <trkpt lat="45.19792" lon="5.99312">
        <ele>2397.4389648438</ele>
        <time>2017-03-10T09:25:15Z</time>
      </trkpt>
      <trkpt lat="45.19805" lon="5.9933">
        <ele>2391.4389648438</ele>
        <time>2017-03-10T09:25:17Z</time>
      </trkpt>
      <trkpt lat="45.19815" lon="5.99356">
        <ele>2384.4389648438</ele>
        <time>2017-03-10T09:25:19Z</time>
      </trkpt>
      <trkpt lat="45.19826" lon="5.99367">
        <ele>2381.4389648438</ele>
        <time>2017-03-10T09:25:20Z</time>
      </trkpt>
      <trkpt lat="45.19834" lon="5.99394">
        <ele>2377.4389648438</ele>
        <time>2017-03-10T09:25:22Z</time>
      </trkpt>
      <trkpt lat="45.19831" lon="5.99412">
        <ele>2373.4389648438</ele>
        <time>2017-03-10T09:25:23Z</time>
      </trkpt>
      <trkpt lat="45.19835" lon="5.99447">
        <ele>2369.4389648438</ele>
        <time>2017-03-10T09:25:25Z</time>
      </trkpt>
      <trkpt lat="45.19852" lon="5.99464">
        <ele>2369.4389648438</ele>
        <time>2017-03-10T09:25:27Z</time>
      </trkpt>
      <trkpt lat="45.19865" lon="5.99473">
        <ele>2367.4389648438</ele>
        <time>2017-03-10T09:25:29Z</time>
      </trkpt>
      <trkpt lat="45.1987" lon="5.99468">
        <ele>2367.4389648438</ele>
        <time>2017-03-10T09:25:31Z</time>
      </trkpt>
      <trkpt lat="45.19875" lon="5.99466">
        <ele>2360.4389648438</ele>
        <time>2017-03-10T09:25:39Z</time>
      </trkpt>
      <trkpt lat="45.19885" lon="5.99471">
        <ele>2046.4389648438</ele>
        <time>2017-03-10T09:25:44Z</time>
      </trkpt>
      <trkpt lat="45.19891" lon="5.99473">
        <ele>2219.4389648438</ele>
        <time>2017-03-10T09:25:47Z</time>
      </trkpt>
      <trkpt lat="45.19895" lon="5.99476">
        <ele>2288.4389648438</ele>
        <time>2017-03-10T09:25:51Z</time>
      </trkpt>
      <trkpt lat="45.199" lon="5.99479">
        <ele>2325.4389648438</ele>
        <time>2017-03-10T09:25:59Z</time>
      </trkpt>
      <trkpt lat="45.19904" lon="5.99478">
        <ele>2349.4389648438</ele>
        <time>2017-03-10T09:26:05Z</time>
      </trkpt>
      <trkpt lat="45.19909" lon="5.9948">
        <ele>2348.4389648438</ele>
        <time>2017-03-10T09:26:12Z</time>
      </trkpt>
      <trkpt lat="45.19914" lon="5.99484">
        <ele>2346.4389648438</ele>
        <time>2017-03-10T09:26:22Z</time>
      </trkpt>
      <trkpt lat="45.19917" lon="5.9949">
        <ele>2344.4389648438</ele>
        <time>2017-03-10T09:26:31Z</time>
      </trkpt>
      <trkpt lat="45.19922" lon="5.99492">
        <ele>2343.4389648438</ele>
        <time>2017-03-10T09:26:38Z</time>
      </trkpt>
      <trkpt lat="45.19927" lon="5.99492">
        <ele>2346.4389648438</ele>
        <time>2017-03-10T09:26:48Z</time>
      </trkpt>
      <trkpt lat="45.1993" lon="5.99498">
        <ele>2350.4389648438</ele>
        <time>2017-03-10T09:28:57Z</time>
      </trkpt>
      <trkpt lat="45.19933" lon="5.99503">
        <ele>2345.4389648438</ele>
        <time>2017-03-10T09:31:16Z</time>
      </trkpt>
      <trkpt lat="45.19934" lon="5.9951">
        <ele>2343.4389648438</ele>
        <time>2017-03-10T09:31:21Z</time>
      </trkpt>
      <trkpt lat="45.19937" lon="5.99515">
        <ele>2343.4389648438</ele>
        <time>2017-03-10T09:31:25Z</time>
      </trkpt>
      <trkpt lat="45.1994" lon="5.99521">
        <ele>2345.4389648438</ele>
        <time>2017-03-10T09:31:32Z</time>
      </trkpt>
      <trkpt lat="45.1994" lon="5.99528">
        <ele>2348.4389648438</ele>
        <time>2017-03-10T09:31:39Z</time>
      </trkpt>
      <trkpt lat="45.19941" lon="5.99534">
        <ele>2348.4389648438</ele>
        <time>2017-03-10T09:31:44Z</time>
      </trkpt>
      <trkpt lat="45.19939" lon="5.9954">
        <ele>2347.4389648438</ele>
        <time>2017-03-10T09:31:49Z</time>
      </trkpt>
      <trkpt lat="45.19936" lon="5.99547">
        <ele>2349.4389648438</ele>
        <time>2017-03-10T09:31:54Z</time>
      </trkpt>
      <trkpt lat="45.19939" lon="5.99553">
        <ele>2349.4389648438</ele>
        <time>2017-03-10T09:32:00Z</time>
      </trkpt>
      <trkpt lat="45.19936" lon="5.99558">
        <ele>2346.4389648438</ele>
        <time>2017-03-10T09:32:07Z</time>
      </trkpt>
      <trkpt lat="45.19939" lon="5.99564">
        <ele>2353.4389648438</ele>
        <time>2017-03-10T09:32:17Z</time>
      </trkpt>
      <trkpt lat="45.19944" lon="5.99569">
        <ele>2355.4389648438</ele>
        <time>2017-03-10T09:32:23Z</time>
      </trkpt>
      <trkpt lat="45.19948" lon="5.99575">
        <ele>2354.4389648438</ele>
        <time>2017-03-10T09:32:26Z</time>
      </trkpt>
      <trkpt lat="45.19953" lon="5.99578">
        <ele>2355.4389648438</ele>
        <time>2017-03-10T09:32:29Z</time>
      </trkpt>
      <trkpt lat="45.19957" lon="5.99582">
        <ele>2354.4389648438</ele>
        <time>2017-03-10T09:32:33Z</time>
      </trkpt>
      <trkpt lat="45.1996" lon="5.99589">
        <ele>2355.4389648438</ele>
        <time>2017-03-10T09:32:40Z</time>
      </trkpt>
      <trkpt lat="45.19964" lon="5.99592">
        <ele>2357.4389648438</ele>
        <time>2017-03-10T09:32:50Z</time>
      </trkpt>
      <trkpt lat="45.19968" lon="5.99597">
        <ele>2358.4389648438</ele>
        <time>2017-03-10T09:32:56Z</time>
      </trkpt>
      <trkpt lat="45.19971" lon="5.99602">
        <ele>2359.4389648438</ele>
        <time>2017-03-10T09:33:01Z</time>
      </trkpt>
      <trkpt lat="45.19975" lon="5.99607">
        <ele>2360.4389648438</ele>
        <time>2017-03-10T09:33:07Z</time>
      </trkpt>
      <trkpt lat="45.19979" lon="5.99613">
        <ele>2362.4389648438</ele>
        <time>2017-03-10T09:33:13Z</time>
      </trkpt>
      <trkpt lat="45.19983" lon="5.99617">
        <ele>2363.4389648438</ele>
        <time>2017-03-10T09:33:21Z</time>
      </trkpt>
      <trkpt lat="45.19987" lon="5.99621">
        <ele>2363.4389648438</ele>
        <time>2017-03-10T09:33:25Z</time>
      </trkpt>
      <trkpt lat="45.1999" lon="5.99626">
        <ele>2360.4389648438</ele>
        <time>2017-03-10T09:33:31Z</time>
      </trkpt>
      <trkpt lat="45.19994" lon="5.9963">
        <ele>2363.4389648438</ele>
        <time>2017-03-10T09:33:39Z</time>
      </trkpt>
      <trkpt lat="45.19996" lon="5.99636">
        <ele>2370.4389648438</ele>
        <time>2017-03-10T09:33:46Z</time>
      </trkpt>
      <trkpt lat="45.19995" lon="5.99643">
        <ele>2370.4389648438</ele>
        <time>2017-03-10T09:33:52Z</time>
      </trkpt>
      <trkpt lat="45.19991" lon="5.9965">
        <ele>2372.4389648438</ele>
        <time>2017-03-10T09:33:56Z</time>
      </trkpt>
      <trkpt lat="45.19989" lon="5.99657">
        <ele>2370.4399414062</ele>
        <time>2017-03-10T09:34:07Z</time>
      </trkpt>
      <trkpt lat="45.19987" lon="5.99663">
        <ele>2373.4399414062</ele>
        <time>2017-03-10T09:34:18Z</time>
      </trkpt>
      <trkpt lat="45.19984" lon="5.99668">
        <ele>2377.4399414062</ele>
        <time>2017-03-10T09:34:23Z</time>
      </trkpt>
      <trkpt lat="45.19989" lon="5.99669">
        <ele>2380.4399414062</ele>
        <time>2017-03-10T09:34:31Z</time>
      </trkpt>
      <trkpt lat="45.19994" lon="5.9967">
        <ele>2382.4399414062</ele>
        <time>2017-03-10T09:34:35Z</time>
      </trkpt>
      <trkpt lat="45.19999" lon="5.99671">
        <ele>2385.4399414062</ele>
        <time>2017-03-10T09:34:41Z</time>
      </trkpt>
      <trkpt lat="45.20005" lon="5.9967">
        <ele>2390.4399414062</ele>
        <time>2017-03-10T09:34:52Z</time>
      </trkpt>
      <trkpt lat="45.20009" lon="5.9967">
        <ele>2394.4399414062</ele>
        <time>2017-03-10T09:34:57Z</time>
      </trkpt>
      <trkpt lat="45.20014" lon="5.9967">
        <ele>2393.4399414062</ele>
        <time>2017-03-10T09:35:08Z</time>
      </trkpt>
      <trkpt lat="45.20019" lon="5.99669">
        <ele>2394.4399414062</ele>
        <time>2017-03-10T09:35:29Z</time>
      </trkpt>
      <trkpt lat="45.20024" lon="5.99666">
        <ele>2399.4399414062</ele>
        <time>2017-03-10T09:35:35Z</time>
      </trkpt>
      <trkpt lat="45.20029" lon="5.99666">
        <ele>2399.4399414062</ele>
        <time>2017-03-10T09:35:41Z</time>
      </trkpt>
      <trkpt lat="45.20029" lon="5.99673">
        <ele>2400.4399414062</ele>
        <time>2017-03-10T09:35:51Z</time>
      </trkpt>
      <trkpt lat="45.20025" lon="5.99676">
        <ele>2401.4399414062</ele>
        <time>2017-03-10T09:35:57Z</time>
      </trkpt>
      <trkpt lat="45.20029" lon="5.99678">
        <ele>2404.4399414062</ele>
        <time>2017-03-10T09:36:15Z</time>
      </trkpt>
      <trkpt lat="45.20034" lon="5.99678">
        <ele>2410.4399414062</ele>
        <time>2017-03-10T09:36:27Z</time>
      </trkpt>
      <trkpt lat="45.20039" lon="5.99677">
        <ele>2411.4399414062</ele>
        <time>2017-03-10T09:37:04Z</time>
      </trkpt>
      <trkpt lat="45.20044" lon="5.9968">
        <ele>2411.4399414062</ele>
        <time>2017-03-10T09:37:10Z</time>
      </trkpt>
      <trkpt lat="45.20048" lon="5.99685">
        <ele>2124.4399414062</ele>
        <time>2017-03-10T09:37:18Z</time>
      </trkpt>
      <trkpt lat="45.20047" lon="5.99692">
        <ele>2277.4399414062</ele>
        <time>2017-03-10T09:37:23Z</time>
      </trkpt>
      <trkpt lat="45.2005" lon="5.99698">
        <ele>2328.4399414062</ele>
        <time>2017-03-10T09:37:28Z</time>
      </trkpt>
      <trkpt lat="45.20054" lon="5.99704">
        <ele>2362.4399414062</ele>
        <time>2017-03-10T09:37:32Z</time>
      </trkpt>
      <trkpt lat="45.20058" lon="5.99709">
        <ele>2370.4399414062</ele>
        <time>2017-03-10T09:37:36Z</time>
      </trkpt>
      <trkpt lat="45.20062" lon="5.99713">
        <ele>2378.4399414062</ele>
        <time>2017-03-10T09:37:39Z</time>
      </trkpt>
      <trkpt lat="45.20063" lon="5.9972">
        <ele>2386.4399414062</ele>
        <time>2017-03-10T09:37:44Z</time>
      </trkpt>
      <trkpt lat="45.20059" lon="5.99724">
        <ele>2392.4399414062</ele>
        <time>2017-03-10T09:37:49Z</time>
      </trkpt>
      <trkpt lat="45.20063" lon="5.99728">
        <ele>2392.4399414062</ele>
        <time>2017-03-10T09:37:53Z</time>
      </trkpt>
      <trkpt lat="45.20066" lon="5.99735">
        <ele>2396.4399414062</ele>
        <time>2017-03-10T09:37:59Z</time>
      </trkpt>
      <trkpt lat="45.20071" lon="5.99737">
        <ele>2400.4399414062</ele>
        <time>2017-03-10T09:38:03Z</time>
      </trkpt>
      <trkpt lat="45.20076" lon="5.99741">
        <ele>2405.4399414062</ele>
        <time>2017-03-10T09:38:09Z</time>
      </trkpt>
      <trkpt lat="45.2008" lon="5.99744">
        <ele>2408.4399414062</ele>
        <time>2017-03-10T09:38:12Z</time>
      </trkpt>
      <trkpt lat="45.20083" lon="5.99748">
        <ele>2414.4399414062</ele>
        <time>2017-03-10T09:38:18Z</time>
      </trkpt>
      <trkpt lat="45.20085" lon="5.99754">
        <ele>2416.4399414062</ele>
        <time>2017-03-10T09:38:25Z</time>
      </trkpt>
      <trkpt lat="45.20088" lon="5.99759">
        <ele>2414.4399414062</ele>
        <time>2017-03-10T09:38:31Z</time>
      </trkpt>
      <trkpt lat="45.20092" lon="5.99765">
        <ele>2417.4399414062</ele>
        <time>2017-03-10T09:38:39Z</time>
      </trkpt>
      <trkpt lat="45.20094" lon="5.9977">
        <ele>2423.4399414062</ele>
        <time>2017-03-10T09:38:59Z</time>
      </trkpt>
      <trkpt lat="45.20096" lon="5.99776">
        <ele>2423.4399414062</ele>
        <time>2017-03-10T09:39:05Z</time>
      </trkpt>
      <trkpt lat="45.20099" lon="5.99783">
        <ele>2420.4399414062</ele>
        <time>2017-03-10T09:39:11Z</time>
      </trkpt>
      <trkpt lat="45.20101" lon="5.9979">
        <ele>2424.4399414062</ele>
        <time>2017-03-10T09:39:17Z</time>
      </trkpt>
      <trkpt lat="45.20101" lon="5.99796">
        <ele>2430.4399414062</ele>
        <time>2017-03-10T09:39:23Z</time>
      </trkpt>
      <trkpt lat="45.201" lon="5.99803">
        <ele>2436.4399414062</ele>
        <time>2017-03-10T09:40:41Z</time>
      </trkpt>
      <trkpt lat="45.20103" lon="5.99807">
        <ele>2439.4399414062</ele>
        <time>2017-03-10T09:40:47Z</time>
      </trkpt>
      <trkpt lat="45.20108" lon="5.99809">
        <ele>2440.4399414062</ele>
        <time>2017-03-10T09:40:52Z</time>
      </trkpt>
      <trkpt lat="45.20112" lon="5.99813">
        <ele>2439.4399414062</ele>
        <time>2017-03-10T09:41:00Z</time>
      </trkpt>
      <trkpt lat="45.20115" lon="5.99819">
        <ele>2440.4399414062</ele>
        <time>2017-03-10T09:41:04Z</time>
      </trkpt>
      <trkpt lat="45.20119" lon="5.99822">
        <ele>2440.4399414062</ele>
        <time>2017-03-10T09:41:09Z</time>
      </trkpt>
      <trkpt lat="45.20123" lon="5.99827">
        <ele>2441.4399414062</ele>
        <time>2017-03-10T09:41:13Z</time>
      </trkpt>
      <trkpt lat="45.20121" lon="5.99834">
        <ele>2439.4399414062</ele>
        <time>2017-03-10T09:41:19Z</time>
      </trkpt>
      <trkpt lat="45.20121" lon="5.99841">
        <ele>2438.4399414062</ele>
        <time>2017-03-10T09:41:25Z</time>
      </trkpt>
      <trkpt lat="45.20122" lon="5.99848">
        <ele>2439.4399414062</ele>
        <time>2017-03-10T09:41:31Z</time>
      </trkpt>
      <trkpt lat="45.20126" lon="5.99851">
        <ele>2441.4399414062</ele>
        <time>2017-03-10T09:41:35Z</time>
      </trkpt>
      <trkpt lat="45.20127" lon="5.99858">
        <ele>2444.4399414062</ele>
        <time>2017-03-10T09:41:39Z</time>
      </trkpt>
      <trkpt lat="45.20127" lon="5.99864">
        <ele>2447.4399414062</ele>
        <time>2017-03-10T09:41:44Z</time>
      </trkpt>
      <trkpt lat="45.20127" lon="5.99871">
        <ele>2452.4399414062</ele>
        <time>2017-03-10T09:41:51Z</time>
      </trkpt>
      <trkpt lat="45.20131" lon="5.99876">
        <ele>2451.4399414062</ele>
        <time>2017-03-10T09:41:56Z</time>
      </trkpt>
      <trkpt lat="45.20132" lon="5.99882">
        <ele>2454.4399414062</ele>
        <time>2017-03-10T09:42:07Z</time>
      </trkpt>
      <trkpt lat="45.20131" lon="5.99891">
        <ele>2455.4399414062</ele>
        <time>2017-03-10T09:42:32Z</time>
      </trkpt>
      <trkpt lat="45.20135" lon="5.99895">
        <ele>2455.4399414062</ele>
        <time>2017-03-10T09:42:35Z</time>
      </trkpt>
      <trkpt lat="45.20135" lon="5.99903">
        <ele>2458.4399414062</ele>
        <time>2017-03-10T09:42:42Z</time>
      </trkpt>
      <trkpt lat="45.20134" lon="5.9991">
        <ele>2461.4399414062</ele>
        <time>2017-03-10T09:42:56Z</time>
      </trkpt>
      <trkpt lat="45.20134" lon="5.99918">
        <ele>2461.4399414062</ele>
        <time>2017-03-10T09:43:00Z</time>
      </trkpt>
      <trkpt lat="45.20128" lon="5.99921">
        <ele>2463.4399414062</ele>
        <time>2017-03-10T09:43:07Z</time>
      </trkpt>
      <trkpt lat="45.20129" lon="5.99927">
        <ele>2466.4399414062</ele>
        <time>2017-03-10T09:43:18Z</time>
      </trkpt>
      <trkpt lat="45.20134" lon="5.99933">
        <ele>2469.4399414062</ele>
        <time>2017-03-10T09:43:26Z</time>
      </trkpt>
      <trkpt lat="45.20137" lon="5.99937">
        <ele>2471.4399414062</ele>
        <time>2017-03-10T09:43:38Z</time>
      </trkpt>
      <trkpt lat="45.20142" lon="5.99939">
        <ele>2472.4399414062</ele>
        <time>2017-03-10T09:43:59Z</time>
      </trkpt>
      <trkpt lat="45.20144" lon="5.99946">
        <ele>2472.4399414062</ele>
        <time>2017-03-10T09:44:05Z</time>
      </trkpt>
      <trkpt lat="45.20146" lon="5.99954">
        <ele>2472.4399414062</ele>
        <time>2017-03-10T09:44:09Z</time>
      </trkpt>
      <trkpt lat="45.2015" lon="5.99957">
        <ele>2469.4399414062</ele>
        <time>2017-03-10T09:44:14Z</time>
      </trkpt>
      <trkpt lat="45.20152" lon="5.99965">
        <ele>2469.4399414062</ele>
        <time>2017-03-10T09:44:29Z</time>
      </trkpt>
      <trkpt lat="45.20155" lon="5.99971">
        <ele>2468.4399414062</ele>
        <time>2017-03-10T09:44:33Z</time>
      </trkpt>
      <trkpt lat="45.2016" lon="5.99972">
        <ele>2470.4399414062</ele>
        <time>2017-03-10T09:45:11Z</time>
      </trkpt>
      <trkpt lat="45.20165" lon="5.9998">
        <ele>2469.4399414062</ele>
        <time>2017-03-10T09:51:47Z</time>
      </trkpt>
      <trkpt lat="45.2017" lon="5.99988">
        <ele>2467.4399414062</ele>
        <time>2017-03-10T09:51:49Z</time>
      </trkpt>
      <trkpt lat="45.20175" lon="5.99994">
        <ele>2466.4399414062</ele>
        <time>2017-03-10T09:51:51Z</time>
      </trkpt>
      <trkpt lat="45.20178" lon="5.99999">
        <ele>2462.4399414062</ele>
        <time>2017-03-10T09:52:14Z</time>
      </trkpt>
      <trkpt lat="45.20183" lon="6.00007">
        <ele>2460.4399414062</ele>
        <time>2017-03-10T09:52:16Z</time>
      </trkpt>
      <trkpt lat="45.20185" lon="6.00017">
        <ele>2460.4399414062</ele>
        <time>2017-03-10T09:52:18Z</time>
      </trkpt>
      <trkpt lat="45.20186" lon="6.00029">
        <ele>2457.4399414062</ele>
        <time>2017-03-10T09:52:20Z</time>
      </trkpt>
      <trkpt lat="45.20189" lon="6.00035">
        <ele>2456.4399414062</ele>
        <time>2017-03-10T09:52:21Z</time>
      </trkpt>
      <trkpt lat="45.20194" lon="6.00043">
        <ele>2455.4399414062</ele>
        <time>2017-03-10T09:52:23Z</time>
      </trkpt>
      <trkpt lat="45.202" lon="6.00048">
        <ele>2454.4399414062</ele>
        <time>2017-03-10T09:52:25Z</time>
      </trkpt>
      <trkpt lat="45.20205" lon="6.00049">
        <ele>2451.4399414062</ele>
        <time>2017-03-10T09:52:33Z</time>
      </trkpt>
      <trkpt lat="45.20208" lon="6.00055">
        <ele>2448.4399414062</ele>
        <time>2017-03-10T09:52:46Z</time>
      </trkpt>
      <trkpt lat="45.20213" lon="6.00056">
        <ele>2447.4409179688</ele>
        <time>2017-03-10T09:52:48Z</time>
      </trkpt>
      <trkpt lat="45.20218" lon="6.00057">
        <ele>2447.4409179688</ele>
        <time>2017-03-10T09:52:50Z</time>
      </trkpt>
      <trkpt lat="45.20225" lon="6.00057">
        <ele>2446.4409179688</ele>
        <time>2017-03-10T09:52:52Z</time>
      </trkpt>
      <trkpt lat="45.20234" lon="6.00055">
        <ele>2446.4409179688</ele>
        <time>2017-03-10T09:52:54Z</time>
      </trkpt>
      <trkpt lat="45.20243" lon="6.00051">
        <ele>2445.4409179688</ele>
        <time>2017-03-10T09:52:56Z</time>
      </trkpt>
      <trkpt lat="45.2025" lon="6.00052">
        <ele>2443.4409179688</ele>
        <time>2017-03-10T09:52:58Z</time>
      </trkpt>
      <trkpt lat="45.20252" lon="6.0006">
        <ele>2442.4409179688</ele>
        <time>2017-03-10T09:53:00Z</time>
      </trkpt>
      <trkpt lat="45.20253" lon="6.00073">
        <ele>2464.4409179688</ele>
        <time>2017-03-10T09:53:02Z</time>
      </trkpt>
      <trkpt lat="45.20255" lon="6.00095">
        <ele>2459.4409179688</ele>
        <time>2017-03-10T09:53:04Z</time>
      </trkpt>
      <trkpt lat="45.2025" lon="6.00126">
        <ele>2454.4409179688</ele>
        <time>2017-03-10T09:53:06Z</time>
      </trkpt>
      <trkpt lat="45.20254" lon="6.00152">
        <ele>2443.4409179688</ele>
        <time>2017-03-10T09:53:09Z</time>
      </trkpt>
      <trkpt lat="45.20251" lon="6.00159">
        <ele>2440.4409179688</ele>
        <time>2017-03-10T09:53:10Z</time>
      </trkpt>
      <trkpt lat="45.20257" lon="6.00167">
        <ele>2414.4409179688</ele>
        <time>2017-03-10T09:53:41Z</time>
      </trkpt>
      <trkpt lat="45.20256" lon="6.00174">
        <ele>2405.4409179688</ele>
        <time>2017-03-10T09:54:07Z</time>
      </trkpt>
      <trkpt lat="45.20249" lon="6.00173">
        <ele>2400.4409179688</ele>
        <time>2017-03-10T09:54:11Z</time>
      </trkpt>
      <trkpt lat="45.20242" lon="6.00174">
        <ele>2399.4409179688</ele>
        <time>2017-03-10T09:54:13Z</time>
      </trkpt>
      <trkpt lat="45.20232" lon="6.00182">
        <ele>2397.4409179688</ele>
        <time>2017-03-10T09:54:15Z</time>
      </trkpt>
      <trkpt lat="45.20222" lon="6.00193">
        <ele>2396.4409179688</ele>
        <time>2017-03-10T09:54:17Z</time>
      </trkpt>
      <trkpt lat="45.20217" lon="6.00206">
        <ele>2395.4409179688</ele>
        <time>2017-03-10T09:54:19Z</time>
      </trkpt>
      <trkpt lat="45.20221" lon="6.00212">
        <ele>2393.4409179688</ele>
        <time>2017-03-10T09:54:21Z</time>
      </trkpt>
      <trkpt lat="45.20226" lon="6.00231">
        <ele>2387.4409179688</ele>
        <time>2017-03-10T09:54:23Z</time>
      </trkpt>
      <trkpt lat="45.20235" lon="6.00247">
        <ele>2383.4409179688</ele>
        <time>2017-03-10T09:54:25Z</time>
      </trkpt>
      <trkpt lat="45.20246" lon="6.0027">
        <ele>2379.4409179688</ele>
        <time>2017-03-10T09:54:27Z</time>
      </trkpt>
      <trkpt lat="45.2025" lon="6.00288">
        <ele>2374.4409179688</ele>
        <time>2017-03-10T09:54:29Z</time>
      </trkpt>
      <trkpt lat="45.20255" lon="6.00295">
        <ele>2356.4409179688</ele>
        <time>2017-03-10T09:55:40Z</time>
      </trkpt>
      <trkpt lat="45.20254" lon="6.00303">
        <ele>2354.4409179688</ele>
        <time>2017-03-10T09:55:43Z</time>
      </trkpt>
      <trkpt lat="45.20252" lon="6.00309">
        <ele>2352.4409179688</ele>
        <time>2017-03-10T09:55:45Z</time>
      </trkpt>
      <trkpt lat="45.20246" lon="6.00319">
        <ele>2350.4409179688</ele>
        <time>2017-03-10T09:55:47Z</time>
      </trkpt>
      <trkpt lat="45.20242" lon="6.0033">
        <ele>2350.4409179688</ele>
        <time>2017-03-10T09:55:49Z</time>
      </trkpt>
      <trkpt lat="45.20246" lon="6.00333">
        <ele>2347.4409179688</ele>
        <time>2017-03-10T09:55:51Z</time>
      </trkpt>
      <trkpt lat="45.20248" lon="6.00339">
        <ele>2343.4409179688</ele>
        <time>2017-03-10T09:56:22Z</time>
      </trkpt>
      <trkpt lat="45.20255" lon="6.00337">
        <ele>2342.4409179688</ele>
        <time>2017-03-10T09:56:24Z</time>
      </trkpt>
      <trkpt lat="45.2026" lon="6.00333">
        <ele>2340.4409179688</ele>
        <time>2017-03-10T09:56:26Z</time>
      </trkpt>
      <trkpt lat="45.20265" lon="6.0033">
        <ele>2339.4409179688</ele>
        <time>2017-03-10T09:56:28Z</time>
      </trkpt>
      <trkpt lat="45.20271" lon="6.00326">
        <ele>2337.4409179688</ele>
        <time>2017-03-10T09:56:30Z</time>
      </trkpt>
      <trkpt lat="45.20275" lon="6.00322">
        <ele>2335.4409179688</ele>
        <time>2017-03-10T09:56:32Z</time>
      </trkpt>
      <trkpt lat="45.20282" lon="6.00319">
        <ele>2334.4409179688</ele>
        <time>2017-03-10T09:56:34Z</time>
      </trkpt>
      <trkpt lat="45.20293" lon="6.00317">
        <ele>2334.4409179688</ele>
        <time>2017-03-10T09:56:36Z</time>
      </trkpt>
      <trkpt lat="45.20303" lon="6.00316">
        <ele>2333.4409179688</ele>
        <time>2017-03-10T09:56:38Z</time>
      </trkpt>
      <trkpt lat="45.2031" lon="6.00317">
        <ele>2334.4409179688</ele>
        <time>2017-03-10T09:56:40Z</time>
      </trkpt>
      <trkpt lat="45.2032" lon="6.00317">
        <ele>2332.4409179688</ele>
        <time>2017-03-10T09:56:42Z</time>
      </trkpt>
      <trkpt lat="45.20331" lon="6.00322">
        <ele>2329.4409179688</ele>
        <time>2017-03-10T09:56:45Z</time>
      </trkpt>
      <trkpt lat="45.20338" lon="6.00328">
        <ele>2328.4409179688</ele>
        <time>2017-03-10T09:56:47Z</time>
      </trkpt>
      <trkpt lat="45.20338" lon="6.00353">
        <ele>2325.4409179688</ele>
        <time>2017-03-10T09:56:50Z</time>
      </trkpt>
      <trkpt lat="45.20332" lon="6.00376">
        <ele>2324.4409179688</ele>
        <time>2017-03-10T09:56:52Z</time>
      </trkpt>
      <trkpt lat="45.20322" lon="6.00419">
        <ele>2323.4409179688</ele>
        <time>2017-03-10T09:56:54Z</time>
      </trkpt>
      <trkpt lat="45.20317" lon="6.00444">
        <ele>2321.4409179688</ele>
        <time>2017-03-10T09:56:56Z</time>
      </trkpt>
      <trkpt lat="45.20307" lon="6.00458">
        <ele>2315.4409179688</ele>
        <time>2017-03-10T09:56:58Z</time>
      </trkpt>
      <trkpt lat="45.20313" lon="6.00456">
        <ele>2309.4409179688</ele>
        <time>2017-03-10T09:57:00Z</time>
      </trkpt>
      <trkpt lat="45.20309" lon="6.00462">
        <ele>2301.4409179688</ele>
        <time>2017-03-10T09:57:28Z</time>
      </trkpt>
      <trkpt lat="45.20303" lon="6.00474">
        <ele>2298.4409179688</ele>
        <time>2017-03-10T09:57:30Z</time>
      </trkpt>
      <trkpt lat="45.203" lon="6.00491">
        <ele>2289.4409179688</ele>
        <time>2017-03-10T09:57:33Z</time>
      </trkpt>
      <trkpt lat="45.20307" lon="6.0051">
        <ele>2288.4409179688</ele>
        <time>2017-03-10T09:57:35Z</time>
      </trkpt>
      <trkpt lat="45.20313" lon="6.00525">
        <ele>2288.4409179688</ele>
        <time>2017-03-10T09:57:37Z</time>
      </trkpt>
      <trkpt lat="45.20316" lon="6.00534">
        <ele>2286.4409179688</ele>
        <time>2017-03-10T09:57:39Z</time>
      </trkpt>
      <trkpt lat="45.2032" lon="6.00542">
        <ele>2284.4409179688</ele>
        <time>2017-03-10T09:57:41Z</time>
      </trkpt>
      <trkpt lat="45.20322" lon="6.00552">
        <ele>2285.4409179688</ele>
        <time>2017-03-10T09:57:59Z</time>
      </trkpt>
      <trkpt lat="45.20324" lon="6.00561">
        <ele>2281.4409179688</ele>
        <time>2017-03-10T09:58:00Z</time>
      </trkpt>
      <trkpt lat="45.20319" lon="6.00577">
        <ele>2274.4409179688</ele>
        <time>2017-03-10T09:58:02Z</time>
      </trkpt>
      <trkpt lat="45.20318" lon="6.0061">
        <ele>2270.4409179688</ele>
        <time>2017-03-10T09:58:04Z</time>
      </trkpt>
      <trkpt lat="45.20313" lon="6.00637">
        <ele>2267.4418945312</ele>
        <time>2017-03-10T09:58:06Z</time>
      </trkpt>
      <trkpt lat="45.2031" lon="6.00661">
        <ele>2266.4418945312</ele>
        <time>2017-03-10T09:58:08Z</time>
      </trkpt>
      <trkpt lat="45.2031" lon="6.00669">
        <ele>2262.4418945312</ele>
        <time>2017-03-10T09:58:09Z</time>
      </trkpt>
      <trkpt lat="45.20316" lon="6.00685">
        <ele>2258.4418945312</ele>
        <time>2017-03-10T09:58:12Z</time>
      </trkpt>
      <trkpt lat="45.20317" lon="6.00693">
        <ele>2254.4418945312</ele>
        <time>2017-03-10T09:58:14Z</time>
      </trkpt>
      <trkpt lat="45.2032" lon="6.00698">
        <ele>2250.4418945312</ele>
        <time>2017-03-10T09:58:17Z</time>
      </trkpt>
      <trkpt lat="45.20323" lon="6.00705">
        <ele>2243.4418945312</ele>
        <time>2017-03-10T09:58:30Z</time>
      </trkpt>
      <trkpt lat="45.20324" lon="6.00712">
        <ele>2242.4418945312</ele>
        <time>2017-03-10T09:58:31Z</time>
      </trkpt>
      <trkpt lat="45.20321" lon="6.00726">
        <ele>2242.4418945312</ele>
        <time>2017-03-10T09:58:33Z</time>
      </trkpt>
      <trkpt lat="45.2032" lon="6.00747">
        <ele>2234.4418945312</ele>
        <time>2017-03-10T09:58:35Z</time>
      </trkpt>
      <trkpt lat="45.20318" lon="6.00775">
        <ele>2231.4418945312</ele>
        <time>2017-03-10T09:58:37Z</time>
      </trkpt>
      <trkpt lat="45.20324" lon="6.00792">
        <ele>2231.4418945312</ele>
        <time>2017-03-10T09:58:39Z</time>
      </trkpt>
      <trkpt lat="45.20334" lon="6.008">
        <ele>2230.4418945312</ele>
        <time>2017-03-10T09:58:40Z</time>
      </trkpt>
      <trkpt lat="45.20344" lon="6.00824">
        <ele>2229.4418945312</ele>
        <time>2017-03-10T09:58:42Z</time>
      </trkpt>
      <trkpt lat="45.20363" lon="6.00842">
        <ele>2227.4418945312</ele>
        <time>2017-03-10T09:58:44Z</time>
      </trkpt>
      <trkpt lat="45.20377" lon="6.00849">
        <ele>2223.4418945312</ele>
        <time>2017-03-10T09:58:46Z</time>
      </trkpt>
      <trkpt lat="45.2039" lon="6.00861">
        <ele>2216.4418945312</ele>
        <time>2017-03-10T09:58:48Z</time>
      </trkpt>
      <trkpt lat="45.20399" lon="6.00881">
        <ele>2213.4418945312</ele>
        <time>2017-03-10T09:58:50Z</time>
      </trkpt>
      <trkpt lat="45.20416" lon="6.00898">
        <ele>2210.4418945312</ele>
        <time>2017-03-10T09:58:52Z</time>
      </trkpt>
      <trkpt lat="45.2042" lon="6.00904">
        <ele>2206.4418945312</ele>
        <time>2017-03-10T09:58:53Z</time>
      </trkpt>
      <trkpt lat="45.20427" lon="6.00924">
        <ele>2202.4418945312</ele>
        <time>2017-03-10T09:58:55Z</time>
      </trkpt>
      <trkpt lat="45.20412" lon="6.00937">
        <ele>2198.4418945312</ele>
        <time>2017-03-10T09:58:57Z</time>
      </trkpt>
      <trkpt lat="45.20404" lon="6.00948">
        <ele>2197.4418945312</ele>
        <time>2017-03-10T09:58:58Z</time>
      </trkpt>
      <trkpt lat="45.20404" lon="6.00964">
        <ele>2192.4418945312</ele>
        <time>2017-03-10T09:58:59Z</time>
      </trkpt>
      <trkpt lat="45.20405" lon="6.00993">
        <ele>2186.4418945312</ele>
        <time>2017-03-10T09:59:01Z</time>
      </trkpt>
      <trkpt lat="45.20402" lon="6.01022">
        <ele>2180.4418945312</ele>
        <time>2017-03-10T09:59:03Z</time>
      </trkpt>
      <trkpt lat="45.20398" lon="6.01045">
        <ele>2178.4418945312</ele>
        <time>2017-03-10T09:59:05Z</time>
      </trkpt>
      <trkpt lat="45.204" lon="6.01052">
        <ele>2179.4418945312</ele>
        <time>2017-03-10T09:59:06Z</time>
      </trkpt>
      <trkpt lat="45.20406" lon="6.01058">
        <ele>2178.4418945312</ele>
        <time>2017-03-10T09:59:07Z</time>
      </trkpt>
      <trkpt lat="45.20405" lon="6.01065">
        <ele>2176.4418945312</ele>
        <time>2017-03-10T09:59:09Z</time>
      </trkpt>
      <trkpt lat="45.20401" lon="6.01062">
        <ele>2166.4418945312</ele>
        <time>2017-03-10T09:59:22Z</time>
      </trkpt>
      <trkpt lat="45.20395" lon="6.01063">
        <ele>2160.4418945312</ele>
        <time>2017-03-10T09:59:49Z</time>
      </trkpt>
      <trkpt lat="45.20395" lon="6.0108">
        <ele>2160.4418945312</ele>
        <time>2017-03-10T09:59:51Z</time>
      </trkpt>
      <trkpt lat="45.204" lon="6.01114">
        <ele>2157.4418945312</ele>
        <time>2017-03-10T09:59:55Z</time>
      </trkpt>
      <trkpt lat="45.20404" lon="6.01125">
        <ele>2153.4418945312</ele>
        <time>2017-03-10T09:59:56Z</time>
      </trkpt>
      <trkpt lat="45.20415" lon="6.01147">
        <ele>2149.4418945312</ele>
        <time>2017-03-10T09:59:58Z</time>
      </trkpt>
      <trkpt lat="45.20423" lon="6.01167">
        <ele>2147.4418945312</ele>
        <time>2017-03-10T10:00:00Z</time>
      </trkpt>
      <trkpt lat="45.20432" lon="6.01187">
        <ele>2146.4431152344</ele>
        <time>2017-03-10T10:00:02Z</time>
      </trkpt>
      <trkpt lat="45.20436" lon="6.01208">
        <ele>2145.4431152344</ele>
        <time>2017-03-10T10:00:04Z</time>
      </trkpt>
      <trkpt lat="45.20442" lon="6.01232">
        <ele>2139.4431152344</ele>
        <time>2017-03-10T10:00:06Z</time>
      </trkpt>
      <trkpt lat="45.20448" lon="6.0125">
        <ele>2137.4431152344</ele>
        <time>2017-03-10T10:00:08Z</time>
      </trkpt>
      <trkpt lat="45.20454" lon="6.01256">
        <ele>2131.4431152344</ele>
        <time>2017-03-10T10:00:10Z</time>
      </trkpt>
      <trkpt lat="45.20458" lon="6.01263">
        <ele>2130.4431152344</ele>
        <time>2017-03-10T10:00:12Z</time>
      </trkpt>
      <trkpt lat="45.20463" lon="6.01268">
        <ele>2125.4431152344</ele>
        <time>2017-03-10T10:00:15Z</time>
      </trkpt>
      <trkpt lat="45.20467" lon="6.01278">
        <ele>2122.4431152344</ele>
        <time>2017-03-10T10:00:18Z</time>
      </trkpt>
      <trkpt lat="45.2047" lon="6.01296">
        <ele>2118.4431152344</ele>
        <time>2017-03-10T10:00:20Z</time>
      </trkpt>
      <trkpt lat="45.20465" lon="6.01312">
        <ele>2115.4431152344</ele>
        <time>2017-03-10T10:00:22Z</time>
      </trkpt>
      <trkpt lat="45.20447" lon="6.01333">
        <ele>2112.4431152344</ele>
        <time>2017-03-10T10:00:24Z</time>
      </trkpt>
      <trkpt lat="45.20445" lon="6.01346">
        <ele>2109.4431152344</ele>
        <time>2017-03-10T10:00:25Z</time>
      </trkpt>
      <trkpt lat="45.2045" lon="6.01363">
        <ele>2108.4431152344</ele>
        <time>2017-03-10T10:00:26Z</time>
      </trkpt>
      <trkpt lat="45.20456" lon="6.01385">
        <ele>2102.4431152344</ele>
        <time>2017-03-10T10:00:28Z</time>
      </trkpt>
      <trkpt lat="45.20464" lon="6.01401">
        <ele>2098.4431152344</ele>
        <time>2017-03-10T10:00:30Z</time>
      </trkpt>
      <trkpt lat="45.2047" lon="6.01409">
        <ele>2098.4431152344</ele>
        <time>2017-03-10T10:00:32Z</time>
      </trkpt>
      <trkpt lat="45.20474" lon="6.01413">
        <ele>2091.4431152344</ele>
        <time>2017-03-10T10:00:37Z</time>
      </trkpt>
      <trkpt lat="45.20479" lon="6.01415">
        <ele>2085.4431152344</ele>
        <time>2017-03-10T10:01:26Z</time>
      </trkpt>
      <trkpt lat="45.20484" lon="6.01417">
        <ele>2083.4431152344</ele>
        <time>2017-03-10T10:01:29Z</time>
      </trkpt>
      <trkpt lat="45.20491" lon="6.01422">
        <ele>2081.4431152344</ele>
        <time>2017-03-10T10:01:32Z</time>
      </trkpt>
      <trkpt lat="45.20501" lon="6.01427">
        <ele>2081.4431152344</ele>
        <time>2017-03-10T10:01:34Z</time>
      </trkpt>
      <trkpt lat="45.20512" lon="6.01432">
        <ele>2079.4431152344</ele>
        <time>2017-03-10T10:01:36Z</time>
      </trkpt>
      <trkpt lat="45.20518" lon="6.01436">
        <ele>2079.4431152344</ele>
        <time>2017-03-10T10:01:37Z</time>
      </trkpt>
      <trkpt lat="45.20529" lon="6.01444">
        <ele>2078.4431152344</ele>
        <time>2017-03-10T10:01:39Z</time>
      </trkpt>
      <trkpt lat="45.20541" lon="6.01449">
        <ele>2078.4431152344</ele>
        <time>2017-03-10T10:01:41Z</time>
      </trkpt>
      <trkpt lat="45.20558" lon="6.01455">
        <ele>2075.4431152344</ele>
        <time>2017-03-10T10:01:43Z</time>
      </trkpt>
      <trkpt lat="45.20575" lon="6.01464">
        <ele>2073.4431152344</ele>
        <time>2017-03-10T10:01:45Z</time>
      </trkpt>
      <trkpt lat="45.20592" lon="6.01474">
        <ele>2069.4431152344</ele>
        <time>2017-03-10T10:01:47Z</time>
      </trkpt>
      <trkpt lat="45.20603" lon="6.01483">
        <ele>2069.4431152344</ele>
        <time>2017-03-10T10:01:50Z</time>
      </trkpt>
      <trkpt lat="45.20607" lon="6.01488">
        <ele>2067.4431152344</ele>
        <time>2017-03-10T10:01:52Z</time>
      </trkpt>
      <trkpt lat="45.2061" lon="6.01494">
        <ele>2067.4431152344</ele>
        <time>2017-03-10T10:01:54Z</time>
      </trkpt>
      <trkpt lat="45.20613" lon="6.01502">
        <ele>2067.4431152344</ele>
        <time>2017-03-10T10:01:57Z</time>
      </trkpt>
      <trkpt lat="45.20617" lon="6.01505">
        <ele>2068.4431152344</ele>
        <time>2017-03-10T10:09:22Z</time>
      </trkpt>
      <trkpt lat="45.20621" lon="6.015">
        <ele>2067.4431152344</ele>
        <time>2017-03-10T10:09:28Z</time>
      </trkpt>
      <trkpt lat="45.20623" lon="6.01495">
        <ele>2066.4431152344</ele>
        <time>2017-03-10T10:09:35Z</time>
      </trkpt>
      <trkpt lat="45.20627" lon="6.01491">
        <ele>2066.4431152344</ele>
        <time>2017-03-10T10:09:39Z</time>
      </trkpt>
      <trkpt lat="45.20632" lon="6.01489">
        <ele>2065.4431152344</ele>
        <time>2017-03-10T10:09:43Z</time>
      </trkpt>
      <trkpt lat="45.20635" lon="6.01485">
        <ele>2065.4431152344</ele>
        <time>2017-03-10T10:09:55Z</time>
      </trkpt>
      <trkpt lat="45.2064" lon="6.01481">
        <ele>2067.4431152344</ele>
        <time>2017-03-10T10:10:04Z</time>
      </trkpt>
      <trkpt lat="45.20645" lon="6.01479">
        <ele>2070.4431152344</ele>
        <time>2017-03-10T10:10:14Z</time>
      </trkpt>
      <trkpt lat="45.2065" lon="6.01477">
        <ele>2072.4431152344</ele>
        <time>2017-03-10T10:10:23Z</time>
      </trkpt>
      <trkpt lat="45.20654" lon="6.01476">
        <ele>2073.4431152344</ele>
        <time>2017-03-10T10:10:30Z</time>
      </trkpt>
      <trkpt lat="45.2066" lon="6.01475">
        <ele>2075.4431152344</ele>
        <time>2017-03-10T10:10:36Z</time>
      </trkpt>
      <trkpt lat="45.20664" lon="6.01476">
        <ele>2075.4431152344</ele>
        <time>2017-03-10T10:10:39Z</time>
      </trkpt>
      <trkpt lat="45.2067" lon="6.01475">
        <ele>2078.4431152344</ele>
        <time>2017-03-10T10:10:46Z</time>
      </trkpt>
      <trkpt lat="45.20675" lon="6.01475">
        <ele>2081.4431152344</ele>
        <time>2017-03-10T10:10:51Z</time>
      </trkpt>
      <trkpt lat="45.20682" lon="6.01474">
        <ele>2080.4431152344</ele>
        <time>2017-03-10T10:10:58Z</time>
      </trkpt>
      <trkpt lat="45.20688" lon="6.01473">
        <ele>2080.4431152344</ele>
        <time>2017-03-10T10:11:03Z</time>
      </trkpt>
      <trkpt lat="45.20693" lon="6.01472">
        <ele>2080.4431152344</ele>
        <time>2017-03-10T10:11:09Z</time>
      </trkpt>
      <trkpt lat="45.20698" lon="6.01473">
        <ele>2082.4431152344</ele>
        <time>2017-03-10T10:11:12Z</time>
      </trkpt>
      <trkpt lat="45.20703" lon="6.01474">
        <ele>2082.4431152344</ele>
        <time>2017-03-10T10:11:15Z</time>
      </trkpt>
      <trkpt lat="45.20708" lon="6.01471">
        <ele>2082.4431152344</ele>
        <time>2017-03-10T10:11:21Z</time>
      </trkpt>
      <trkpt lat="45.20712" lon="6.01468">
        <ele>2083.4431152344</ele>
        <time>2017-03-10T10:11:26Z</time>
      </trkpt>
      <trkpt lat="45.20717" lon="6.01466">
        <ele>2086.4431152344</ele>
        <time>2017-03-10T10:11:32Z</time>
      </trkpt>
      <trkpt lat="45.20722" lon="6.01463">
        <ele>2086.4431152344</ele>
        <time>2017-03-10T10:11:38Z</time>
      </trkpt>
      <trkpt lat="45.20726" lon="6.01459">
        <ele>2086.4431152344</ele>
        <time>2017-03-10T10:11:42Z</time>
      </trkpt>
      <trkpt lat="45.2073" lon="6.01455">
        <ele>2089.4431152344</ele>
        <time>2017-03-10T10:11:57Z</time>
      </trkpt>
      <trkpt lat="45.20734" lon="6.01451">
        <ele>2090.4431152344</ele>
        <time>2017-03-10T10:11:59Z</time>
      </trkpt>
      <trkpt lat="45.20737" lon="6.01447">
        <ele>2092.4431152344</ele>
        <time>2017-03-10T10:12:04Z</time>
      </trkpt>
      <trkpt lat="45.20742" lon="6.01445">
        <ele>2092.4440917969</ele>
        <time>2017-03-10T10:12:08Z</time>
      </trkpt>
      <trkpt lat="45.20746" lon="6.01443">
        <ele>2089.4440917969</ele>
        <time>2017-03-10T10:12:12Z</time>
      </trkpt>
      <trkpt lat="45.20751" lon="6.01441">
        <ele>2088.4440917969</ele>
        <time>2017-03-10T10:12:16Z</time>
      </trkpt>
      <trkpt lat="45.20754" lon="6.01436">
        <ele>2089.4440917969</ele>
        <time>2017-03-10T10:12:24Z</time>
      </trkpt>
      <trkpt lat="45.20759" lon="6.01432">
        <ele>2089.4440917969</ele>
        <time>2017-03-10T10:12:29Z</time>
      </trkpt>
      <trkpt lat="45.20764" lon="6.0143">
        <ele>2092.4440917969</ele>
        <time>2017-03-10T10:12:34Z</time>
      </trkpt>
      <trkpt lat="45.20768" lon="6.01427">
        <ele>2091.4440917969</ele>
        <time>2017-03-10T10:12:37Z</time>
      </trkpt>
      <trkpt lat="45.20771" lon="6.01422">
        <ele>2094.4440917969</ele>
        <time>2017-03-10T10:12:43Z</time>
      </trkpt>
      <trkpt lat="45.20776" lon="6.01418">
        <ele>2098.4440917969</ele>
        <time>2017-03-10T10:12:49Z</time>
      </trkpt>
      <trkpt lat="45.2078" lon="6.01415">
        <ele>2102.4440917969</ele>
        <time>2017-03-10T10:12:53Z</time>
      </trkpt>
      <trkpt lat="45.20784" lon="6.0141">
        <ele>2103.4440917969</ele>
        <time>2017-03-10T10:12:59Z</time>
      </trkpt>
      <trkpt lat="45.20786" lon="6.01404">
        <ele>2106.4440917969</ele>
        <time>2017-03-10T10:13:06Z</time>
      </trkpt>
      <trkpt lat="45.20789" lon="6.01398">
        <ele>2106.4440917969</ele>
        <time>2017-03-10T10:13:13Z</time>
      </trkpt>
      <trkpt lat="45.20791" lon="6.01391">
        <ele>2107.4440917969</ele>
        <time>2017-03-10T10:13:19Z</time>
      </trkpt>
      <trkpt lat="45.20795" lon="6.01389">
        <ele>2106.4440917969</ele>
        <time>2017-03-10T10:13:22Z</time>
      </trkpt>
      <trkpt lat="45.20796" lon="6.01383">
        <ele>2108.4440917969</ele>
        <time>2017-03-10T10:13:27Z</time>
      </trkpt>
      <trkpt lat="45.20795" lon="6.01376">
        <ele>2109.4440917969</ele>
        <time>2017-03-10T10:13:33Z</time>
      </trkpt>
      <trkpt lat="45.20797" lon="6.0137">
        <ele>2112.4440917969</ele>
        <time>2017-03-10T10:13:37Z</time>
      </trkpt>
      <trkpt lat="45.20799" lon="6.01364">
        <ele>2116.4440917969</ele>
        <time>2017-03-10T10:13:44Z</time>
      </trkpt>
      <trkpt lat="45.20802" lon="6.01358">
        <ele>2117.4440917969</ele>
        <time>2017-03-10T10:13:48Z</time>
      </trkpt>
      <trkpt lat="45.20801" lon="6.01352">
        <ele>2116.4431152344</ele>
        <time>2017-03-10T10:13:57Z</time>
      </trkpt>
      <trkpt lat="45.20803" lon="6.01346">
        <ele>2119.4431152344</ele>
        <time>2017-03-10T10:14:02Z</time>
      </trkpt>
      <trkpt lat="45.20808" lon="6.01342">
        <ele>2121.4431152344</ele>
        <time>2017-03-10T10:14:09Z</time>
      </trkpt>
      <trkpt lat="45.20813" lon="6.0134">
        <ele>2121.4431152344</ele>
        <time>2017-03-10T10:14:14Z</time>
      </trkpt>
      <trkpt lat="45.20818" lon="6.01338">
        <ele>2123.4440917969</ele>
        <time>2017-03-10T10:14:20Z</time>
      </trkpt>
      <trkpt lat="45.20823" lon="6.01338">
        <ele>2126.4440917969</ele>
        <time>2017-03-10T10:14:24Z</time>
      </trkpt>
      <trkpt lat="45.20828" lon="6.0134">
        <ele>2129.4440917969</ele>
        <time>2017-03-10T10:14:34Z</time>
      </trkpt>
      <trkpt lat="45.20832" lon="6.0134">
        <ele>2129.4440917969</ele>
        <time>2017-03-10T10:14:42Z</time>
      </trkpt>
      <trkpt lat="45.20832" lon="6.01333">
        <ele>2134.4440917969</ele>
        <time>2017-03-10T10:14:49Z</time>
      </trkpt>
      <trkpt lat="45.20833" lon="6.01326">
        <ele>2132.4440917969</ele>
        <time>2017-03-10T10:14:55Z</time>
      </trkpt>
      <trkpt lat="45.20835" lon="6.0132">
        <ele>2135.4440917969</ele>
        <time>2017-03-10T10:15:00Z</time>
      </trkpt>
      <trkpt lat="45.20837" lon="6.01313">
        <ele>2136.4440917969</ele>
        <time>2017-03-10T10:15:06Z</time>
      </trkpt>
      <trkpt lat="45.20839" lon="6.01307">
        <ele>2141.4440917969</ele>
        <time>2017-03-10T10:15:16Z</time>
      </trkpt>
      <trkpt lat="45.20844" lon="6.01306">
        <ele>2141.4440917969</ele>
        <time>2017-03-10T10:15:20Z</time>
      </trkpt>
      <trkpt lat="45.20849" lon="6.01302">
        <ele>2140.4440917969</ele>
        <time>2017-03-10T10:15:26Z</time>
      </trkpt>
      <trkpt lat="45.20853" lon="6.013">
        <ele>2142.4440917969</ele>
        <time>2017-03-10T10:15:34Z</time>
      </trkpt>
      <trkpt lat="45.20858" lon="6.01299">
        <ele>2144.4440917969</ele>
        <time>2017-03-10T10:15:41Z</time>
      </trkpt>
      <trkpt lat="45.20862" lon="6.01292">
        <ele>2148.4440917969</ele>
        <time>2017-03-10T10:15:49Z</time>
      </trkpt>
      <trkpt lat="45.20865" lon="6.01288">
        <ele>2150.4440917969</ele>
        <time>2017-03-10T10:15:56Z</time>
      </trkpt>
      <trkpt lat="45.20868" lon="6.01283">
        <ele>2146.4440917969</ele>
        <time>2017-03-10T10:16:01Z</time>
      </trkpt>
      <trkpt lat="45.20871" lon="6.01278">
        <ele>2149.4440917969</ele>
        <time>2017-03-10T10:16:05Z</time>
      </trkpt>
      <trkpt lat="45.20875" lon="6.01272">
        <ele>2148.4440917969</ele>
        <time>2017-03-10T10:16:10Z</time>
      </trkpt>
      <trkpt lat="45.20879" lon="6.01269">
        <ele>2150.4440917969</ele>
        <time>2017-03-10T10:16:15Z</time>
      </trkpt>
      <trkpt lat="45.20884" lon="6.01267">
        <ele>2152.4440917969</ele>
        <time>2017-03-10T10:16:19Z</time>
      </trkpt>
      <trkpt lat="45.20882" lon="6.01261">
        <ele>2152.4440917969</ele>
        <time>2017-03-10T10:16:25Z</time>
      </trkpt>
      <trkpt lat="45.20886" lon="6.01256">
        <ele>2153.4440917969</ele>
        <time>2017-03-10T10:16:31Z</time>
      </trkpt>
      <trkpt lat="45.20886" lon="6.01249">
        <ele>2154.4440917969</ele>
        <time>2017-03-10T10:16:37Z</time>
      </trkpt>
      <trkpt lat="45.20889" lon="6.01244">
        <ele>2155.4440917969</ele>
        <time>2017-03-10T10:16:41Z</time>
      </trkpt>
      <trkpt lat="45.20894" lon="6.01243">
        <ele>2158.4440917969</ele>
        <time>2017-03-10T10:16:46Z</time>
      </trkpt>
      <trkpt lat="45.20897" lon="6.01237">
        <ele>2157.4440917969</ele>
        <time>2017-03-10T10:16:51Z</time>
      </trkpt>
      <trkpt lat="45.20901" lon="6.01231">
        <ele>2159.4440917969</ele>
        <time>2017-03-10T10:16:56Z</time>
      </trkpt>
      <trkpt lat="45.20904" lon="6.01226">
        <ele>2160.4440917969</ele>
        <time>2017-03-10T10:17:00Z</time>
      </trkpt>
      <trkpt lat="45.20907" lon="6.01219">
        <ele>2164.4440917969</ele>
        <time>2017-03-10T10:17:07Z</time>
      </trkpt>
      <trkpt lat="45.2091" lon="6.01214">
        <ele>2165.4440917969</ele>
        <time>2017-03-10T10:17:10Z</time>
      </trkpt>
      <trkpt lat="45.20912" lon="6.01208">
        <ele>2164.4440917969</ele>
        <time>2017-03-10T10:17:16Z</time>
      </trkpt>
      <trkpt lat="45.20915" lon="6.01203">
        <ele>2161.4440917969</ele>
        <time>2017-03-10T10:17:24Z</time>
      </trkpt>
      <trkpt lat="45.20919" lon="6.01202">
        <ele>2162.4440917969</ele>
        <time>2017-03-10T10:17:32Z</time>
      </trkpt>
      <trkpt lat="45.20925" lon="6.01203">
        <ele>2165.4440917969</ele>
        <time>2017-03-10T10:17:38Z</time>
      </trkpt>
      <trkpt lat="45.2093" lon="6.01199">
        <ele>2165.4440917969</ele>
        <time>2017-03-10T10:17:44Z</time>
      </trkpt>
      <trkpt lat="45.2093" lon="6.01191">
        <ele>2162.4440917969</ele>
        <time>2017-03-10T10:17:51Z</time>
      </trkpt>
      <trkpt lat="45.20931" lon="6.01185">
        <ele>2169.4440917969</ele>
        <time>2017-03-10T10:18:20Z</time>
      </trkpt>
      <trkpt lat="45.20932" lon="6.01179">
        <ele>2168.4440917969</ele>
        <time>2017-03-10T10:18:26Z</time>
      </trkpt>
      <trkpt lat="45.20935" lon="6.01173">
        <ele>2166.4440917969</ele>
        <time>2017-03-10T10:18:32Z</time>
      </trkpt>
      <trkpt lat="45.2094" lon="6.01172">
        <ele>2168.4440917969</ele>
        <time>2017-03-10T10:18:39Z</time>
      </trkpt>
      <trkpt lat="45.20945" lon="6.0117">
        <ele>2169.4440917969</ele>
        <time>2017-03-10T10:18:44Z</time>
      </trkpt>
      <trkpt lat="45.2095" lon="6.0117">
        <ele>2177.4440917969</ele>
        <time>2017-03-10T10:18:53Z</time>
      </trkpt>
      <trkpt lat="45.20955" lon="6.01169">
        <ele>2179.4440917969</ele>
        <time>2017-03-10T10:18:56Z</time>
      </trkpt>
      <trkpt lat="45.2096" lon="6.01167">
        <ele>2177.4440917969</ele>
        <time>2017-03-10T10:19:03Z</time>
      </trkpt>
      <trkpt lat="45.20964" lon="6.01165">
        <ele>2173.4440917969</ele>
        <time>2017-03-10T10:19:07Z</time>
      </trkpt>
      <trkpt lat="45.2097" lon="6.01163">
        <ele>2176.4440917969</ele>
        <time>2017-03-10T10:19:11Z</time>
      </trkpt>
      <trkpt lat="45.20977" lon="6.01162">
        <ele>2181.4440917969</ele>
        <time>2017-03-10T10:19:17Z</time>
      </trkpt>
      <trkpt lat="45.20982" lon="6.0116">
        <ele>2180.4440917969</ele>
        <time>2017-03-10T10:19:22Z</time>
      </trkpt>
      <trkpt lat="45.20986" lon="6.01159">
        <ele>2183.4440917969</ele>
        <time>2017-03-10T10:19:29Z</time>
      </trkpt>
      <trkpt lat="45.20993" lon="6.01159">
        <ele>2185.4440917969</ele>
        <time>2017-03-10T10:19:33Z</time>
      </trkpt>
      <trkpt lat="45.20997" lon="6.01152">
        <ele>2188.4440917969</ele>
        <time>2017-03-10T10:19:41Z</time>
      </trkpt>
      <trkpt lat="45.21002" lon="6.0115">
        <ele>2189.4440917969</ele>
        <time>2017-03-10T10:19:44Z</time>
      </trkpt>
      <trkpt lat="45.21005" lon="6.01146">
        <ele>2188.4440917969</ele>
        <time>2017-03-10T10:19:49Z</time>
      </trkpt>
      <trkpt lat="45.21009" lon="6.01142">
        <ele>2189.4440917969</ele>
        <time>2017-03-10T10:19:55Z</time>
      </trkpt>
      <trkpt lat="45.21013" lon="6.01136">
        <ele>2195.4440917969</ele>
        <time>2017-03-10T10:20:05Z</time>
      </trkpt>
      <trkpt lat="45.21015" lon="6.01131">
        <ele>2195.4440917969</ele>
        <time>2017-03-10T10:20:12Z</time>
      </trkpt>
      <trkpt lat="45.21017" lon="6.01125">
        <ele>2195.4440917969</ele>
        <time>2017-03-10T10:20:17Z</time>
      </trkpt>
      <trkpt lat="45.21021" lon="6.0112">
        <ele>2192.4440917969</ele>
        <time>2017-03-10T10:20:22Z</time>
      </trkpt>
      <trkpt lat="45.21024" lon="6.01115">
        <ele>2191.4440917969</ele>
        <time>2017-03-10T10:20:27Z</time>
      </trkpt>
      <trkpt lat="45.21029" lon="6.01114">
        <ele>2192.4440917969</ele>
        <time>2017-03-10T10:20:30Z</time>
      </trkpt>
      <trkpt lat="45.21032" lon="6.01109">
        <ele>2182.4440917969</ele>
        <time>2017-03-10T10:20:34Z</time>
      </trkpt>
      <trkpt lat="45.21033" lon="6.01102">
        <ele>2193.4440917969</ele>
        <time>2017-03-10T10:20:45Z</time>
      </trkpt>
      <trkpt lat="45.21036" lon="6.01096">
        <ele>2201.4440917969</ele>
        <time>2017-03-10T10:20:53Z</time>
      </trkpt>
      <trkpt lat="45.21038" lon="6.01088">
        <ele>2201.4440917969</ele>
        <time>2017-03-10T10:21:01Z</time>
      </trkpt>
      <trkpt lat="45.21042" lon="6.01086">
        <ele>2204.4440917969</ele>
        <time>2017-03-10T10:21:09Z</time>
      </trkpt>
      <trkpt lat="45.21044" lon="6.0108">
        <ele>2206.4440917969</ele>
        <time>2017-03-10T10:21:14Z</time>
      </trkpt>
      <trkpt lat="45.21049" lon="6.01081">
        <ele>2211.4440917969</ele>
        <time>2017-03-10T10:21:20Z</time>
      </trkpt>
      <trkpt lat="45.21052" lon="6.01086">
        <ele>2215.4440917969</ele>
        <time>2017-03-10T10:21:28Z</time>
      </trkpt>
      <trkpt lat="45.21054" lon="6.01093">
        <ele>2213.4440917969</ele>
        <time>2017-03-10T10:21:40Z</time>
      </trkpt>
      <trkpt lat="45.21058" lon="6.01099">
        <ele>2215.4440917969</ele>
        <time>2017-03-10T10:21:47Z</time>
      </trkpt>
      <trkpt lat="45.2106" lon="6.01106">
        <ele>2217.4440917969</ele>
        <time>2017-03-10T10:21:54Z</time>
      </trkpt>
      <trkpt lat="45.21063" lon="6.01112">
        <ele>2219.4440917969</ele>
        <time>2017-03-10T10:21:58Z</time>
      </trkpt>
      <trkpt lat="45.21064" lon="6.01119">
        <ele>2220.4440917969</ele>
        <time>2017-03-10T10:22:05Z</time>
      </trkpt>
      <trkpt lat="45.21066" lon="6.01125">
        <ele>2224.4440917969</ele>
        <time>2017-03-10T10:22:26Z</time>
      </trkpt>
      <trkpt lat="45.2107" lon="6.01129">
        <ele>2225.4440917969</ele>
        <time>2017-03-10T10:22:30Z</time>
      </trkpt>
      <trkpt lat="45.21069" lon="6.01136">
        <ele>2228.4440917969</ele>
        <time>2017-03-10T10:22:37Z</time>
      </trkpt>
      <trkpt lat="45.2107" lon="6.01144">
        <ele>2230.4440917969</ele>
        <time>2017-03-10T10:22:43Z</time>
      </trkpt>
      <trkpt lat="45.21068" lon="6.0115">
        <ele>2232.4440917969</ele>
        <time>2017-03-10T10:22:56Z</time>
      </trkpt>
      <trkpt lat="45.2107" lon="6.01158">
        <ele>2233.4440917969</ele>
        <time>2017-03-10T10:23:02Z</time>
      </trkpt>
      <trkpt lat="45.21074" lon="6.01153">
        <ele>2236.4440917969</ele>
        <time>2017-03-10T10:23:10Z</time>
      </trkpt>
      <trkpt lat="45.21079" lon="6.0115">
        <ele>2234.4440917969</ele>
        <time>2017-03-10T10:23:18Z</time>
      </trkpt>
      <trkpt lat="45.21084" lon="6.01149">
        <ele>2232.4440917969</ele>
        <time>2017-03-10T10:23:26Z</time>
      </trkpt>
      <trkpt lat="45.21087" lon="6.01143">
        <ele>2228.4440917969</ele>
        <time>2017-03-10T10:23:35Z</time>
      </trkpt>
      <trkpt lat="45.2109" lon="6.01139">
        <ele>2230.4440917969</ele>
        <time>2017-03-10T10:23:41Z</time>
      </trkpt>
      <trkpt lat="45.21096" lon="6.01136">
        <ele>2233.4440917969</ele>
        <time>2017-03-10T10:23:45Z</time>
      </trkpt>
      <trkpt lat="45.211" lon="6.01133">
        <ele>2236.4440917969</ele>
        <time>2017-03-10T10:23:49Z</time>
      </trkpt>
      <trkpt lat="45.21106" lon="6.0113">
        <ele>2236.4440917969</ele>
        <time>2017-03-10T10:23:59Z</time>
      </trkpt>
      <trkpt lat="45.21111" lon="6.01128">
        <ele>2244.4440917969</ele>
        <time>2017-03-10T10:24:05Z</time>
      </trkpt>
      <trkpt lat="45.21115" lon="6.01125">
        <ele>2246.4440917969</ele>
        <time>2017-03-10T10:24:12Z</time>
      </trkpt>
      <trkpt lat="45.21119" lon="6.01119">
        <ele>2246.4440917969</ele>
        <time>2017-03-10T10:24:20Z</time>
      </trkpt>
      <trkpt lat="45.21122" lon="6.01113">
        <ele>2247.4440917969</ele>
        <time>2017-03-10T10:24:25Z</time>
      </trkpt>
      <trkpt lat="45.21124" lon="6.01107">
        <ele>2245.4440917969</ele>
        <time>2017-03-10T10:24:34Z</time>
      </trkpt>
      <trkpt lat="45.21129" lon="6.01109">
        <ele>2249.4440917969</ele>
        <time>2017-03-10T10:24:39Z</time>
      </trkpt>
      <trkpt lat="45.21132" lon="6.01115">
        <ele>2251.4440917969</ele>
        <time>2017-03-10T10:24:45Z</time>
      </trkpt>
      <trkpt lat="45.21133" lon="6.01122">
        <ele>2256.4440917969</ele>
        <time>2017-03-10T10:24:59Z</time>
      </trkpt>
      <trkpt lat="45.21136" lon="6.01128">
        <ele>2258.4440917969</ele>
        <time>2017-03-10T10:25:04Z</time>
      </trkpt>
      <trkpt lat="45.21137" lon="6.01135">
        <ele>2259.4440917969</ele>
        <time>2017-03-10T10:25:14Z</time>
      </trkpt>
      <trkpt lat="45.21138" lon="6.01141">
        <ele>2259.4440917969</ele>
        <time>2017-03-10T10:25:20Z</time>
      </trkpt>
      <trkpt lat="45.21143" lon="6.01143">
        <ele>2261.4440917969</ele>
        <time>2017-03-10T10:25:26Z</time>
      </trkpt>
      <trkpt lat="45.21146" lon="6.01138">
        <ele>2259.4440917969</ele>
        <time>2017-03-10T10:25:48Z</time>
      </trkpt>
      <trkpt lat="45.2115" lon="6.01132">
        <ele>2262.4440917969</ele>
        <time>2017-03-10T10:25:56Z</time>
      </trkpt>
      <trkpt lat="45.21153" lon="6.01127">
        <ele>2262.4440917969</ele>
        <time>2017-03-10T10:26:04Z</time>
      </trkpt>
      <trkpt lat="45.21157" lon="6.01123">
        <ele>2264.4440917969</ele>
        <time>2017-03-10T10:26:09Z</time>
      </trkpt>
      <trkpt lat="45.21159" lon="6.01117">
        <ele>2268.4440917969</ele>
        <time>2017-03-10T10:26:16Z</time>
      </trkpt>
      <trkpt lat="45.21162" lon="6.01122">
        <ele>2272.4440917969</ele>
        <time>2017-03-10T10:26:27Z</time>
      </trkpt>
      <trkpt lat="45.21164" lon="6.01129">
        <ele>2272.4440917969</ele>
        <time>2017-03-10T10:26:34Z</time>
      </trkpt>
      <trkpt lat="45.21164" lon="6.01136">
        <ele>2276.4440917969</ele>
        <time>2017-03-10T10:26:43Z</time>
      </trkpt>
      <trkpt lat="45.21167" lon="6.01142">
        <ele>2277.4440917969</ele>
        <time>2017-03-10T10:26:47Z</time>
      </trkpt>
      <trkpt lat="45.21168" lon="6.01148">
        <ele>2279.4440917969</ele>
        <time>2017-03-10T10:26:53Z</time>
      </trkpt>
      <trkpt lat="45.2117" lon="6.01154">
        <ele>2280.4440917969</ele>
        <time>2017-03-10T10:27:00Z</time>
      </trkpt>
      <trkpt lat="45.21172" lon="6.0116">
        <ele>2282.4440917969</ele>
        <time>2017-03-10T10:27:07Z</time>
      </trkpt>
      <trkpt lat="45.21171" lon="6.01168">
        <ele>2282.4440917969</ele>
        <time>2017-03-10T10:27:14Z</time>
      </trkpt>
      <trkpt lat="45.21174" lon="6.01173">
        <ele>2283.4440917969</ele>
        <time>2017-03-10T10:27:18Z</time>
      </trkpt>
      <trkpt lat="45.21177" lon="6.01178">
        <ele>2286.4440917969</ele>
        <time>2017-03-10T10:27:23Z</time>
      </trkpt>
      <trkpt lat="45.21179" lon="6.01185">
        <ele>2287.4440917969</ele>
        <time>2017-03-10T10:27:28Z</time>
      </trkpt>
      <trkpt lat="45.21181" lon="6.01192">
        <ele>2289.4440917969</ele>
        <time>2017-03-10T10:27:35Z</time>
      </trkpt>
      <trkpt lat="45.2118" lon="6.01198">
        <ele>2292.4440917969</ele>
        <time>2017-03-10T10:27:44Z</time>
      </trkpt>
      <trkpt lat="45.21178" lon="6.01204">
        <ele>2294.4440917969</ele>
        <time>2017-03-10T10:27:50Z</time>
      </trkpt>
      <trkpt lat="45.2118" lon="6.01211">
        <ele>2293.4440917969</ele>
        <time>2017-03-10T10:27:56Z</time>
      </trkpt>
      <trkpt lat="45.21184" lon="6.01217">
        <ele>2292.4440917969</ele>
        <time>2017-03-10T10:28:01Z</time>
      </trkpt>
      <trkpt lat="45.21187" lon="6.01223">
        <ele>2294.4440917969</ele>
        <time>2017-03-10T10:28:07Z</time>
      </trkpt>
      <trkpt lat="45.21189" lon="6.0123">
        <ele>2296.4440917969</ele>
        <time>2017-03-10T10:28:16Z</time>
      </trkpt>
      <trkpt lat="45.21192" lon="6.01236">
        <ele>2297.4440917969</ele>
        <time>2017-03-10T10:28:21Z</time>
      </trkpt>
      <trkpt lat="45.21196" lon="6.01242">
        <ele>2299.4440917969</ele>
        <time>2017-03-10T10:28:28Z</time>
      </trkpt>
      <trkpt lat="45.21197" lon="6.01248">
        <ele>2302.4440917969</ele>
        <time>2017-03-10T10:28:33Z</time>
      </trkpt>
      <trkpt lat="45.212" lon="6.01253">
        <ele>2304.4440917969</ele>
        <time>2017-03-10T10:28:38Z</time>
      </trkpt>
      <trkpt lat="45.21203" lon="6.01259">
        <ele>2302.4440917969</ele>
        <time>2017-03-10T10:28:45Z</time>
      </trkpt>
      <trkpt lat="45.21207" lon="6.01262">
        <ele>2304.4440917969</ele>
        <time>2017-03-10T10:28:53Z</time>
      </trkpt>
      <trkpt lat="45.2121" lon="6.01257">
        <ele>2306.4440917969</ele>
        <time>2017-03-10T10:28:59Z</time>
      </trkpt>
      <trkpt lat="45.21209" lon="6.01265">
        <ele>2306.4440917969</ele>
        <time>2017-03-10T10:29:12Z</time>
      </trkpt>
      <trkpt lat="45.21208" lon="6.01271">
        <ele>2304.4440917969</ele>
        <time>2017-03-10T10:29:15Z</time>
      </trkpt>
      <trkpt lat="45.21206" lon="6.01278">
        <ele>2304.4440917969</ele>
        <time>2017-03-10T10:29:22Z</time>
      </trkpt>
      <trkpt lat="45.21206" lon="6.01284">
        <ele>2303.4440917969</ele>
        <time>2017-03-10T10:29:29Z</time>
      </trkpt>
      <trkpt lat="45.21206" lon="6.01291">
        <ele>2306.4440917969</ele>
        <time>2017-03-10T10:29:33Z</time>
      </trkpt>
      <trkpt lat="45.21208" lon="6.01297">
        <ele>2307.4440917969</ele>
        <time>2017-03-10T10:29:52Z</time>
      </trkpt>
      <trkpt lat="45.21208" lon="6.01306">
        <ele>2307.4440917969</ele>
        <time>2017-03-10T10:29:58Z</time>
      </trkpt>
      <trkpt lat="45.2121" lon="6.01312">
        <ele>2307.4440917969</ele>
        <time>2017-03-10T10:30:02Z</time>
      </trkpt>
      <trkpt lat="45.21208" lon="6.01318">
        <ele>2309.4440917969</ele>
        <time>2017-03-10T10:30:07Z</time>
      </trkpt>
      <trkpt lat="45.21211" lon="6.01324">
        <ele>2310.4440917969</ele>
        <time>2017-03-10T10:30:14Z</time>
      </trkpt>
      <trkpt lat="45.21213" lon="6.0133">
        <ele>2312.4440917969</ele>
        <time>2017-03-10T10:30:40Z</time>
      </trkpt>
      <trkpt lat="45.21213" lon="6.01338">
        <ele>2312.4440917969</ele>
        <time>2017-03-10T10:30:47Z</time>
      </trkpt>
      <trkpt lat="45.21209" lon="6.01341">
        <ele>2314.4440917969</ele>
        <time>2017-03-10T10:31:07Z</time>
      </trkpt>
      <trkpt lat="45.21205" lon="6.01333">
        <ele>2313.4440917969</ele>
        <time>2017-03-10T10:37:17Z</time>
      </trkpt>
      <trkpt lat="45.21199" lon="6.01333">
        <ele>2313.4440917969</ele>
        <time>2017-03-10T10:37:27Z</time>
      </trkpt>
      <trkpt lat="45.21195" lon="6.01337">
        <ele>2311.4440917969</ele>
        <time>2017-03-10T10:37:29Z</time>
      </trkpt>
      <trkpt lat="45.21189" lon="6.01343">
        <ele>2311.4440917969</ele>
        <time>2017-03-10T10:37:31Z</time>
      </trkpt>
      <trkpt lat="45.21185" lon="6.01347">
        <ele>2310.4440917969</ele>
        <time>2017-03-10T10:37:33Z</time>
      </trkpt>
      <trkpt lat="45.21179" lon="6.0135">
        <ele>2310.4440917969</ele>
        <time>2017-03-10T10:37:35Z</time>
      </trkpt>
      <trkpt lat="45.21175" lon="6.01353">
        <ele>2309.4440917969</ele>
        <time>2017-03-10T10:37:38Z</time>
      </trkpt>
      <trkpt lat="45.21171" lon="6.01356">
        <ele>2307.4440917969</ele>
        <time>2017-03-10T10:37:44Z</time>
      </trkpt>
      <trkpt lat="45.21165" lon="6.01359">
        <ele>2304.4440917969</ele>
        <time>2017-03-10T10:37:46Z</time>
      </trkpt>
      <trkpt lat="45.21161" lon="6.01363">
        <ele>2301.4440917969</ele>
        <time>2017-03-10T10:37:49Z</time>
      </trkpt>
      <trkpt lat="45.21155" lon="6.01369">
        <ele>2299.4440917969</ele>
        <time>2017-03-10T10:37:51Z</time>
      </trkpt>
      <trkpt lat="45.21152" lon="6.01373">
        <ele>2295.4440917969</ele>
        <time>2017-03-10T10:38:01Z</time>
      </trkpt>
      <trkpt lat="45.21147" lon="6.01378">
        <ele>2293.4440917969</ele>
        <time>2017-03-10T10:38:28Z</time>
      </trkpt>
      <trkpt lat="45.21151" lon="6.01381">
        <ele>2293.4440917969</ele>
        <time>2017-03-10T10:38:32Z</time>
      </trkpt>
      <trkpt lat="45.21156" lon="6.01381">
        <ele>2289.4440917969</ele>
        <time>2017-03-10T10:38:43Z</time>
      </trkpt>
      <trkpt lat="45.21162" lon="6.01382">
        <ele>2288.4440917969</ele>
        <time>2017-03-10T10:38:45Z</time>
      </trkpt>
      <trkpt lat="45.21167" lon="6.01383">
        <ele>2285.4440917969</ele>
        <time>2017-03-10T10:38:55Z</time>
      </trkpt>
      <trkpt lat="45.21168" lon="6.01389">
        <ele>2287.4440917969</ele>
        <time>2017-03-10T10:39:46Z</time>
      </trkpt>
      <trkpt lat="45.21174" lon="6.01392">
        <ele>2288.4440917969</ele>
        <time>2017-03-10T10:39:49Z</time>
      </trkpt>
      <trkpt lat="45.2118" lon="6.01391">
        <ele>2287.4440917969</ele>
        <time>2017-03-10T10:39:52Z</time>
      </trkpt>
      <trkpt lat="45.21187" lon="6.01391">
        <ele>2286.4440917969</ele>
        <time>2017-03-10T10:39:54Z</time>
      </trkpt>
      <trkpt lat="45.21192" lon="6.01395">
        <ele>2280.4440917969</ele>
        <time>2017-03-10T10:40:02Z</time>
      </trkpt>
      <trkpt lat="45.21193" lon="6.01407">
        <ele>2274.4440917969</ele>
        <time>2017-03-10T10:40:04Z</time>
      </trkpt>
      <trkpt lat="45.21204" lon="6.01415">
        <ele>2270.4440917969</ele>
        <time>2017-03-10T10:40:06Z</time>
      </trkpt>
      <trkpt lat="45.21212" lon="6.01429">
        <ele>2263.4440917969</ele>
        <time>2017-03-10T10:40:08Z</time>
      </trkpt>
      <trkpt lat="45.21223" lon="6.01428">
        <ele>2263.4440917969</ele>
        <time>2017-03-10T10:40:15Z</time>
      </trkpt>
      <trkpt lat="45.21228" lon="6.01429">
        <ele>2262.4440917969</ele>
        <time>2017-03-10T10:40:18Z</time>
      </trkpt>
      <trkpt lat="45.21234" lon="6.01437">
        <ele>2256.4440917969</ele>
        <time>2017-03-10T10:41:07Z</time>
      </trkpt>
      <trkpt lat="45.21248" lon="6.01453">
        <ele>2255.4450683594</ele>
        <time>2017-03-10T10:41:10Z</time>
      </trkpt>
      <trkpt lat="45.21259" lon="6.01473">
        <ele>2253.4450683594</ele>
        <time>2017-03-10T10:41:12Z</time>
      </trkpt>
      <trkpt lat="45.21266" lon="6.0148">
        <ele>2250.4450683594</ele>
        <time>2017-03-10T10:41:13Z</time>
      </trkpt>
      <trkpt lat="45.21273" lon="6.01488">
        <ele>2249.4450683594</ele>
        <time>2017-03-10T10:41:14Z</time>
      </trkpt>
      <trkpt lat="45.21282" lon="6.0151">
        <ele>2247.4450683594</ele>
        <time>2017-03-10T10:41:16Z</time>
      </trkpt>
      <trkpt lat="45.21269" lon="6.01514">
        <ele>2242.4450683594</ele>
        <time>2017-03-10T10:41:17Z</time>
      </trkpt>
      <trkpt lat="45.21263" lon="6.01523">
        <ele>2237.4450683594</ele>
        <time>2017-03-10T10:41:18Z</time>
      </trkpt>
      <trkpt lat="45.21248" lon="6.0154">
        <ele>2229.4450683594</ele>
        <time>2017-03-10T10:41:20Z</time>
      </trkpt>
      <trkpt lat="45.21229" lon="6.01559">
        <ele>2220.4450683594</ele>
        <time>2017-03-10T10:41:22Z</time>
      </trkpt>
      <trkpt lat="45.21222" lon="6.01571">
        <ele>2221.4450683594</ele>
        <time>2017-03-10T10:41:23Z</time>
      </trkpt>
      <trkpt lat="45.21217" lon="6.01585">
        <ele>2218.4450683594</ele>
        <time>2017-03-10T10:41:24Z</time>
      </trkpt>
      <trkpt lat="45.21205" lon="6.01601">
        <ele>2214.4450683594</ele>
        <time>2017-03-10T10:41:26Z</time>
      </trkpt>
      <trkpt lat="45.21212" lon="6.01597">
        <ele>2211.4450683594</ele>
        <time>2017-03-10T10:41:29Z</time>
      </trkpt>
      <trkpt lat="45.21217" lon="6.01595">
        <ele>2206.4450683594</ele>
        <time>2017-03-10T10:41:33Z</time>
      </trkpt>
      <trkpt lat="45.21221" lon="6.0159">
        <ele>2204.4450683594</ele>
        <time>2017-03-10T10:41:36Z</time>
      </trkpt>
      <trkpt lat="45.21227" lon="6.01589">
        <ele>2203.4450683594</ele>
        <time>2017-03-10T10:41:38Z</time>
      </trkpt>
      <trkpt lat="45.21241" lon="6.01592">
        <ele>2202.4450683594</ele>
        <time>2017-03-10T10:41:40Z</time>
      </trkpt>
      <trkpt lat="45.2125" lon="6.01603">
        <ele>2202.4450683594</ele>
        <time>2017-03-10T10:41:42Z</time>
      </trkpt>
      <trkpt lat="45.21248" lon="6.01617">
        <ele>2200.4450683594</ele>
        <time>2017-03-10T10:41:43Z</time>
      </trkpt>
      <trkpt lat="45.21255" lon="6.01642">
        <ele>2191.4450683594</ele>
        <time>2017-03-10T10:41:45Z</time>
      </trkpt>
      <trkpt lat="45.21253" lon="6.01671">
        <ele>2182.4450683594</ele>
        <time>2017-03-10T10:41:47Z</time>
      </trkpt>
      <trkpt lat="45.21264" lon="6.01702">
        <ele>2174.4450683594</ele>
        <time>2017-03-10T10:41:49Z</time>
      </trkpt>
      <trkpt lat="45.21264" lon="6.01736">
        <ele>2165.4450683594</ele>
        <time>2017-03-10T10:41:51Z</time>
      </trkpt>
      <trkpt lat="45.21259" lon="6.01773">
        <ele>2153.4450683594</ele>
        <time>2017-03-10T10:41:53Z</time>
      </trkpt>
      <trkpt lat="45.21255" lon="6.01811">
        <ele>2145.4450683594</ele>
        <time>2017-03-10T10:41:55Z</time>
      </trkpt>
      <trkpt lat="45.21242" lon="6.01839">
        <ele>2145.4450683594</ele>
        <time>2017-03-10T10:41:57Z</time>
      </trkpt>
      <trkpt lat="45.21237" lon="6.01842">
        <ele>2145.4450683594</ele>
        <time>2017-03-10T10:41:58Z</time>
      </trkpt>
      <trkpt lat="45.21229" lon="6.01848">
        <ele>2145.4450683594</ele>
        <time>2017-03-10T10:42:00Z</time>
      </trkpt>
      <trkpt lat="45.21232" lon="6.01843">
        <ele>2142.4450683594</ele>
        <time>2017-03-10T10:42:04Z</time>
      </trkpt>
      <trkpt lat="45.21227" lon="6.01844">
        <ele>2138.4450683594</ele>
        <time>2017-03-10T10:42:43Z</time>
      </trkpt>
      <trkpt lat="45.2123" lon="6.0186">
        <ele>2135.4450683594</ele>
        <time>2017-03-10T10:42:45Z</time>
      </trkpt>
      <trkpt lat="45.21238" lon="6.01876">
        <ele>2132.4450683594</ele>
        <time>2017-03-10T10:42:47Z</time>
      </trkpt>
      <trkpt lat="45.2124" lon="6.01901">
        <ele>2130.4450683594</ele>
        <time>2017-03-10T10:42:49Z</time>
      </trkpt>
      <trkpt lat="45.21241" lon="6.0193">
        <ele>2130.4450683594</ele>
        <time>2017-03-10T10:42:51Z</time>
      </trkpt>
      <trkpt lat="45.21242" lon="6.01949">
        <ele>2124.4450683594</ele>
        <time>2017-03-10T10:42:54Z</time>
      </trkpt>
      <trkpt lat="45.21235" lon="6.0196">
        <ele>2125.4450683594</ele>
        <time>2017-03-10T10:42:56Z</time>
      </trkpt>
      <trkpt lat="45.21232" lon="6.01978">
        <ele>2123.4450683594</ele>
        <time>2017-03-10T10:42:57Z</time>
      </trkpt>
      <trkpt lat="45.21228" lon="6.02007">
        <ele>2121.4450683594</ele>
        <time>2017-03-10T10:42:59Z</time>
      </trkpt>
      <trkpt lat="45.21226" lon="6.0202">
        <ele>2114.4450683594</ele>
        <time>2017-03-10T10:43:01Z</time>
      </trkpt>
      <trkpt lat="45.2121" lon="6.02023">
        <ele>2114.4450683594</ele>
        <time>2017-03-10T10:43:03Z</time>
      </trkpt>
      <trkpt lat="45.21202" lon="6.02034">
        <ele>2111.4450683594</ele>
        <time>2017-03-10T10:43:04Z</time>
      </trkpt>
      <trkpt lat="45.21189" lon="6.02043">
        <ele>2107.4450683594</ele>
        <time>2017-03-10T10:43:06Z</time>
      </trkpt>
      <trkpt lat="45.2119" lon="6.02036">
        <ele>2105.4450683594</ele>
        <time>2017-03-10T10:43:08Z</time>
      </trkpt>
      <trkpt lat="45.21185" lon="6.02031">
        <ele>2090.4450683594</ele>
        <time>2017-03-10T10:43:31Z</time>
      </trkpt>
      <trkpt lat="45.21178" lon="6.02027">
        <ele>2087.4450683594</ele>
        <time>2017-03-10T10:43:33Z</time>
      </trkpt>
      <trkpt lat="45.21167" lon="6.0203">
        <ele>2083.4450683594</ele>
        <time>2017-03-10T10:43:35Z</time>
      </trkpt>
      <trkpt lat="45.21152" lon="6.02046">
        <ele>2079.4450683594</ele>
        <time>2017-03-10T10:43:37Z</time>
      </trkpt>
      <trkpt lat="45.21141" lon="6.02056">
        <ele>2077.4450683594</ele>
        <time>2017-03-10T10:43:38Z</time>
      </trkpt>
      <trkpt lat="45.21125" lon="6.02051">
        <ele>2076.4450683594</ele>
        <time>2017-03-10T10:43:40Z</time>
      </trkpt>
      <trkpt lat="45.2112" lon="6.02041">
        <ele>2075.4450683594</ele>
        <time>2017-03-10T10:43:41Z</time>
      </trkpt>
      <trkpt lat="45.21112" lon="6.02047">
        <ele>2069.4450683594</ele>
        <time>2017-03-10T10:43:44Z</time>
      </trkpt>
      <trkpt lat="45.21106" lon="6.02055">
        <ele>2069.4450683594</ele>
        <time>2017-03-10T10:43:46Z</time>
      </trkpt>
      <trkpt lat="45.21093" lon="6.02057">
        <ele>2063.4450683594</ele>
        <time>2017-03-10T10:43:48Z</time>
      </trkpt>
      <trkpt lat="45.21077" lon="6.02072">
        <ele>2059.4450683594</ele>
        <time>2017-03-10T10:43:50Z</time>
      </trkpt>
      <trkpt lat="45.21079" lon="6.02108">
        <ele>2051.4450683594</ele>
        <time>2017-03-10T10:43:52Z</time>
      </trkpt>
      <trkpt lat="45.21088" lon="6.02135">
        <ele>2044.4449462891</ele>
        <time>2017-03-10T10:43:54Z</time>
      </trkpt>
      <trkpt lat="45.21095" lon="6.02159">
        <ele>2043.4449462891</ele>
        <time>2017-03-10T10:43:56Z</time>
      </trkpt>
      <trkpt lat="45.211" lon="6.0216">
        <ele>2041.4449462891</ele>
        <time>2017-03-10T10:43:58Z</time>
      </trkpt>
      <trkpt lat="45.21097" lon="6.02167">
        <ele>2037.4449462891</ele>
        <time>2017-03-10T10:44:00Z</time>
      </trkpt>
      <trkpt lat="45.2109" lon="6.02175">
        <ele>2032.4449462891</ele>
        <time>2017-03-10T10:44:02Z</time>
      </trkpt>
      <trkpt lat="45.21088" lon="6.02185">
        <ele>2023.4449462891</ele>
        <time>2017-03-10T10:44:34Z</time>
      </trkpt>
      <trkpt lat="45.21088" lon="6.02197">
        <ele>2021.4449462891</ele>
        <time>2017-03-10T10:44:36Z</time>
      </trkpt>
      <trkpt lat="45.21087" lon="6.02214">
        <ele>2018.4449462891</ele>
        <time>2017-03-10T10:44:38Z</time>
      </trkpt>
      <trkpt lat="45.21078" lon="6.02235">
        <ele>2012.4449462891</ele>
        <time>2017-03-10T10:44:40Z</time>
      </trkpt>
      <trkpt lat="45.21062" lon="6.02255">
        <ele>2007.4449462891</ele>
        <time>2017-03-10T10:44:42Z</time>
      </trkpt>
      <trkpt lat="45.21058" lon="6.02288">
        <ele>2004.4449462891</ele>
        <time>2017-03-10T10:44:44Z</time>
      </trkpt>
      <trkpt lat="45.21048" lon="6.02314">
        <ele>2001.4449462891</ele>
        <time>2017-03-10T10:44:46Z</time>
      </trkpt>
      <trkpt lat="45.21034" lon="6.02334">
        <ele>1995.4449462891</ele>
        <time>2017-03-10T10:44:48Z</time>
      </trkpt>
      <trkpt lat="45.21022" lon="6.02344">
        <ele>1986.4449462891</ele>
        <time>2017-03-10T10:44:50Z</time>
      </trkpt>
      <trkpt lat="45.2102" lon="6.02338">
        <ele>1978.4449462891</ele>
        <time>2017-03-10T10:45:06Z</time>
      </trkpt>
      <trkpt lat="45.21015" lon="6.02337">
        <ele>1971.4449462891</ele>
        <time>2017-03-10T10:46:01Z</time>
      </trkpt>
      <trkpt lat="45.2102" lon="6.02334">
        <ele>1972.4449462891</ele>
        <time>2017-03-10T10:52:01Z</time>
      </trkpt>
      <trkpt lat="45.21025" lon="6.02335">
        <ele>1973.4449462891</ele>
        <time>2017-03-10T10:52:04Z</time>
      </trkpt>
      <trkpt lat="45.2103" lon="6.02335">
        <ele>1969.4449462891</ele>
        <time>2017-03-10T10:52:08Z</time>
      </trkpt>
      <trkpt lat="45.21036" lon="6.02332">
        <ele>1966.4449462891</ele>
        <time>2017-03-10T10:52:21Z</time>
      </trkpt>
      <trkpt lat="45.21042" lon="6.02334">
        <ele>1964.4449462891</ele>
        <time>2017-03-10T10:52:24Z</time>
      </trkpt>
      <trkpt lat="45.21047" lon="6.02335">
        <ele>1966.4449462891</ele>
        <time>2017-03-10T10:52:32Z</time>
      </trkpt>
      <trkpt lat="45.21051" lon="6.02337">
        <ele>1968.4449462891</ele>
        <time>2017-03-10T10:52:44Z</time>
      </trkpt>
      <trkpt lat="45.21056" lon="6.02337">
        <ele>1970.4449462891</ele>
        <time>2017-03-10T10:52:49Z</time>
      </trkpt>
      <trkpt lat="45.21062" lon="6.02336">
        <ele>1973.4449462891</ele>
        <time>2017-03-10T10:52:52Z</time>
      </trkpt>
      <trkpt lat="45.21071" lon="6.02336">
        <ele>1975.4449462891</ele>
        <time>2017-03-10T10:52:58Z</time>
      </trkpt>
      <trkpt lat="45.21075" lon="6.0234">
        <ele>1978.4449462891</ele>
        <time>2017-03-10T10:53:17Z</time>
      </trkpt>
      <trkpt lat="45.2108" lon="6.02342">
        <ele>1980.4449462891</ele>
        <time>2017-03-10T10:53:24Z</time>
      </trkpt>
      <trkpt lat="45.21083" lon="6.02348">
        <ele>1982.4449462891</ele>
        <time>2017-03-10T10:53:32Z</time>
      </trkpt>
      <trkpt lat="45.21088" lon="6.02351">
        <ele>1983.4449462891</ele>
        <time>2017-03-10T10:53:39Z</time>
      </trkpt>
      <trkpt lat="45.21092" lon="6.02355">
        <ele>1983.4449462891</ele>
        <time>2017-03-10T10:53:44Z</time>
      </trkpt>
      <trkpt lat="45.21094" lon="6.0236">
        <ele>1982.4449462891</ele>
        <time>2017-03-10T10:53:55Z</time>
      </trkpt>
      <trkpt lat="45.21099" lon="6.02363">
        <ele>1984.4449462891</ele>
        <time>2017-03-10T10:54:03Z</time>
      </trkpt>
      <trkpt lat="45.21104" lon="6.02367">
        <ele>1985.4460449219</ele>
        <time>2017-03-10T10:54:06Z</time>
      </trkpt>
      <trkpt lat="45.21108" lon="6.02371">
        <ele>1986.4460449219</ele>
        <time>2017-03-10T10:54:17Z</time>
      </trkpt>
      <trkpt lat="45.21112" lon="6.02376">
        <ele>1988.4460449219</ele>
        <time>2017-03-10T10:54:24Z</time>
      </trkpt>
      <trkpt lat="45.21116" lon="6.0238">
        <ele>1989.4460449219</ele>
        <time>2017-03-10T10:54:28Z</time>
      </trkpt>
      <trkpt lat="45.21119" lon="6.02385">
        <ele>1992.4460449219</ele>
        <time>2017-03-10T10:54:35Z</time>
      </trkpt>
      <trkpt lat="45.21123" lon="6.0239">
        <ele>1995.4460449219</ele>
        <time>2017-03-10T10:54:40Z</time>
      </trkpt>
      <trkpt lat="45.21127" lon="6.02397">
        <ele>1996.4460449219</ele>
        <time>2017-03-10T10:54:58Z</time>
      </trkpt>
      <trkpt lat="45.21132" lon="6.02398">
        <ele>1994.4460449219</ele>
        <time>2017-03-10T10:55:04Z</time>
      </trkpt>
      <trkpt lat="45.21136" lon="6.02403">
        <ele>1994.4460449219</ele>
        <time>2017-03-10T10:55:11Z</time>
      </trkpt>
      <trkpt lat="45.21141" lon="6.02406">
        <ele>1996.4460449219</ele>
        <time>2017-03-10T10:55:13Z</time>
      </trkpt>
      <trkpt lat="45.21146" lon="6.0241">
        <ele>1996.4460449219</ele>
        <time>2017-03-10T10:55:21Z</time>
      </trkpt>
      <trkpt lat="45.21149" lon="6.02404">
        <ele>1997.4460449219</ele>
        <time>2017-03-10T10:55:38Z</time>
      </trkpt>
      <trkpt lat="45.21155" lon="6.02405">
        <ele>1999.4460449219</ele>
        <time>2017-03-10T10:55:41Z</time>
      </trkpt>
      <trkpt lat="45.21161" lon="6.02404">
        <ele>2001.4460449219</ele>
        <time>2017-03-10T10:55:47Z</time>
      </trkpt>
      <trkpt lat="45.21167" lon="6.024">
        <ele>2004.4460449219</ele>
        <time>2017-03-10T10:55:57Z</time>
      </trkpt>
      <trkpt lat="45.2117" lon="6.02394">
        <ele>2005.4460449219</ele>
        <time>2017-03-10T10:56:02Z</time>
      </trkpt>
      <trkpt lat="45.2117" lon="6.02387">
        <ele>2006.4460449219</ele>
        <time>2017-03-10T10:56:08Z</time>
      </trkpt>
      <trkpt lat="45.21168" lon="6.02381">
        <ele>2007.4460449219</ele>
        <time>2017-03-10T10:56:24Z</time>
      </trkpt>
      <trkpt lat="45.21165" lon="6.02375">
        <ele>2005.4460449219</ele>
        <time>2017-03-10T10:56:31Z</time>
      </trkpt>
      <trkpt lat="45.21165" lon="6.02368">
        <ele>2009.4460449219</ele>
        <time>2017-03-10T10:56:37Z</time>
      </trkpt>
      <trkpt lat="45.21167" lon="6.02362">
        <ele>2011.4460449219</ele>
        <time>2017-03-10T10:56:49Z</time>
      </trkpt>
      <trkpt lat="45.2117" lon="6.02356">
        <ele>2015.4460449219</ele>
        <time>2017-03-10T10:56:58Z</time>
      </trkpt>
      <trkpt lat="45.21169" lon="6.02349">
        <ele>2018.4460449219</ele>
        <time>2017-03-10T10:57:06Z</time>
      </trkpt>
      <trkpt lat="45.21173" lon="6.02347">
        <ele>2018.4460449219</ele>
        <time>2017-03-10T10:57:08Z</time>
      </trkpt>
      <trkpt lat="45.21178" lon="6.02347">
        <ele>2017.4460449219</ele>
        <time>2017-03-10T10:57:19Z</time>
      </trkpt>
      <trkpt lat="45.21182" lon="6.02349">
        <ele>2016.4460449219</ele>
        <time>2017-03-10T10:57:25Z</time>
      </trkpt>
      <trkpt lat="45.21188" lon="6.02352">
        <ele>2021.4460449219</ele>
        <time>2017-03-10T10:57:32Z</time>
      </trkpt>
      <trkpt lat="45.21191" lon="6.02357">
        <ele>2024.4460449219</ele>
        <time>2017-03-10T10:57:42Z</time>
      </trkpt>
      <trkpt lat="45.21196" lon="6.0236">
        <ele>2029.4460449219</ele>
        <time>2017-03-10T10:57:46Z</time>
      </trkpt>
      <trkpt lat="45.21198" lon="6.02366">
        <ele>2031.4460449219</ele>
        <time>2017-03-10T10:57:52Z</time>
      </trkpt>
      <trkpt lat="45.21203" lon="6.02367">
        <ele>2031.4460449219</ele>
        <time>2017-03-10T10:57:58Z</time>
      </trkpt>
      <trkpt lat="45.21208" lon="6.02371">
        <ele>2033.4460449219</ele>
        <time>2017-03-10T10:58:05Z</time>
      </trkpt>
      <trkpt lat="45.21215" lon="6.02376">
        <ele>2036.4460449219</ele>
        <time>2017-03-10T10:58:09Z</time>
      </trkpt>
      <trkpt lat="45.21219" lon="6.02379">
        <ele>2035.4460449219</ele>
        <time>2017-03-10T10:58:19Z</time>
      </trkpt>
      <trkpt lat="45.21222" lon="6.02384">
        <ele>2037.4460449219</ele>
        <time>2017-03-10T10:58:24Z</time>
      </trkpt>
      <trkpt lat="45.21227" lon="6.02388">
        <ele>2036.4460449219</ele>
        <time>2017-03-10T10:58:31Z</time>
      </trkpt>
      <trkpt lat="45.2123" lon="6.02393">
        <ele>2036.4460449219</ele>
        <time>2017-03-10T10:58:41Z</time>
      </trkpt>
      <trkpt lat="45.21234" lon="6.02398">
        <ele>2042.4460449219</ele>
        <time>2017-03-10T10:58:46Z</time>
      </trkpt>
      <trkpt lat="45.21236" lon="6.02404">
        <ele>2046.4460449219</ele>
        <time>2017-03-10T10:58:55Z</time>
      </trkpt>
      <trkpt lat="45.21241" lon="6.02407">
        <ele>2047.4460449219</ele>
        <time>2017-03-10T10:59:00Z</time>
      </trkpt>
      <trkpt lat="45.21244" lon="6.02412">
        <ele>2047.4460449219</ele>
        <time>2017-03-10T10:59:05Z</time>
      </trkpt>
      <trkpt lat="45.21248" lon="6.02416">
        <ele>2049.4460449219</ele>
        <time>2017-03-10T10:59:12Z</time>
      </trkpt>
      <trkpt lat="45.21252" lon="6.02422">
        <ele>2050.4460449219</ele>
        <time>2017-03-10T10:59:19Z</time>
      </trkpt>
      <trkpt lat="45.21255" lon="6.02426">
        <ele>2048.4460449219</ele>
        <time>2017-03-10T10:59:22Z</time>
      </trkpt>
      <trkpt lat="45.21256" lon="6.02433">
        <ele>2051.4460449219</ele>
        <time>2017-03-10T10:59:52Z</time>
      </trkpt>
      <trkpt lat="45.21257" lon="6.0244">
        <ele>2052.4460449219</ele>
        <time>2017-03-10T10:59:58Z</time>
      </trkpt>
      <trkpt lat="45.21259" lon="6.02446">
        <ele>2052.4460449219</ele>
        <time>2017-03-10T11:00:07Z</time>
      </trkpt>
      <trkpt lat="45.21263" lon="6.0245">
        <ele>2051.4460449219</ele>
        <time>2017-03-10T11:00:14Z</time>
      </trkpt>
      <trkpt lat="45.21267" lon="6.02454">
        <ele>2054.4460449219</ele>
        <time>2017-03-10T11:00:23Z</time>
      </trkpt>
      <trkpt lat="45.21271" lon="6.02457">
        <ele>2058.4460449219</ele>
        <time>2017-03-10T11:00:26Z</time>
      </trkpt>
      <trkpt lat="45.21273" lon="6.02451">
        <ele>2055.4460449219</ele>
        <time>2017-03-10T11:00:33Z</time>
      </trkpt>
      <trkpt lat="45.21274" lon="6.02445">
        <ele>2057.4460449219</ele>
        <time>2017-03-10T11:00:40Z</time>
      </trkpt>
      <trkpt lat="45.21276" lon="6.02438">
        <ele>2058.4460449219</ele>
        <time>2017-03-10T11:00:44Z</time>
      </trkpt>
      <trkpt lat="45.2128" lon="6.02435">
        <ele>2062.4460449219</ele>
        <time>2017-03-10T11:00:49Z</time>
      </trkpt>
      <trkpt lat="45.21283" lon="6.0244">
        <ele>2068.4460449219</ele>
        <time>2017-03-10T11:01:09Z</time>
      </trkpt>
      <trkpt lat="45.21289" lon="6.02444">
        <ele>2069.4460449219</ele>
        <time>2017-03-10T11:01:15Z</time>
      </trkpt>
      <trkpt lat="45.21291" lon="6.02451">
        <ele>2074.4460449219</ele>
        <time>2017-03-10T11:01:24Z</time>
      </trkpt>
      <trkpt lat="45.21296" lon="6.02452">
        <ele>2077.4460449219</ele>
        <time>2017-03-10T11:01:34Z</time>
      </trkpt>
      <trkpt lat="45.21297" lon="6.02446">
        <ele>2074.4460449219</ele>
        <time>2017-03-10T11:01:43Z</time>
      </trkpt>
      <trkpt lat="45.21301" lon="6.02442">
        <ele>2078.4460449219</ele>
        <time>2017-03-10T11:01:50Z</time>
      </trkpt>
      <trkpt lat="45.21304" lon="6.02447">
        <ele>2077.4460449219</ele>
        <time>2017-03-10T11:01:59Z</time>
      </trkpt>
      <trkpt lat="45.21308" lon="6.02452">
        <ele>2076.4460449219</ele>
        <time>2017-03-10T11:02:05Z</time>
      </trkpt>
      <trkpt lat="45.2131" lon="6.02458">
        <ele>2077.4460449219</ele>
        <time>2017-03-10T11:02:15Z</time>
      </trkpt>
      <trkpt lat="45.21312" lon="6.02464">
        <ele>2084.4460449219</ele>
        <time>2017-03-10T11:02:32Z</time>
      </trkpt>
      <trkpt lat="45.21317" lon="6.02468">
        <ele>2083.4460449219</ele>
        <time>2017-03-10T11:02:39Z</time>
      </trkpt>
      <trkpt lat="45.21321" lon="6.02473">
        <ele>2082.4460449219</ele>
        <time>2017-03-10T11:02:44Z</time>
      </trkpt>
      <trkpt lat="45.21325" lon="6.0248">
        <ele>2083.4460449219</ele>
        <time>2017-03-10T11:02:51Z</time>
      </trkpt>
      <trkpt lat="45.2133" lon="6.02483">
        <ele>2085.4460449219</ele>
        <time>2017-03-10T11:02:55Z</time>
      </trkpt>
      <trkpt lat="45.21334" lon="6.02487">
        <ele>2086.4460449219</ele>
        <time>2017-03-10T11:03:03Z</time>
      </trkpt>
      <trkpt lat="45.21338" lon="6.0249">
        <ele>2089.4460449219</ele>
        <time>2017-03-10T11:03:11Z</time>
      </trkpt>
      <trkpt lat="45.21341" lon="6.02495">
        <ele>2091.4460449219</ele>
        <time>2017-03-10T11:03:18Z</time>
      </trkpt>
      <trkpt lat="45.21346" lon="6.02499">
        <ele>2095.4460449219</ele>
        <time>2017-03-10T11:03:23Z</time>
      </trkpt>
      <trkpt lat="45.21349" lon="6.02504">
        <ele>2101.4460449219</ele>
        <time>2017-03-10T11:03:35Z</time>
      </trkpt>
      <trkpt lat="45.21354" lon="6.02506">
        <ele>2100.4460449219</ele>
        <time>2017-03-10T11:03:41Z</time>
      </trkpt>
      <trkpt lat="45.21358" lon="6.02508">
        <ele>2098.4460449219</ele>
        <time>2017-03-10T11:03:49Z</time>
      </trkpt>
      <trkpt lat="45.21362" lon="6.02511">
        <ele>2099.4460449219</ele>
        <time>2017-03-10T11:03:54Z</time>
      </trkpt>
      <trkpt lat="45.21367" lon="6.02514">
        <ele>2099.4460449219</ele>
        <time>2017-03-10T11:04:07Z</time>
      </trkpt>
      <trkpt lat="45.21372" lon="6.02514">
        <ele>2101.4460449219</ele>
        <time>2017-03-10T11:04:15Z</time>
      </trkpt>
      <trkpt lat="45.21379" lon="6.02514">
        <ele>2102.4460449219</ele>
        <time>2017-03-10T11:04:20Z</time>
      </trkpt>
      <trkpt lat="45.21383" lon="6.02514">
        <ele>2107.4460449219</ele>
        <time>2017-03-10T11:04:33Z</time>
      </trkpt>
      <trkpt lat="45.21386" lon="6.02508">
        <ele>2116.4460449219</ele>
        <time>2017-03-10T11:04:54Z</time>
      </trkpt>
      <trkpt lat="45.21383" lon="6.02501">
        <ele>2118.4460449219</ele>
        <time>2017-03-10T11:05:01Z</time>
      </trkpt>
      <trkpt lat="45.2138" lon="6.02496">
        <ele>2120.4460449219</ele>
        <time>2017-03-10T11:05:06Z</time>
      </trkpt>
      <trkpt lat="45.21379" lon="6.0249">
        <ele>2121.4460449219</ele>
        <time>2017-03-10T11:05:34Z</time>
      </trkpt>
      <trkpt lat="45.21376" lon="6.02484">
        <ele>2124.4460449219</ele>
        <time>2017-03-10T11:05:45Z</time>
      </trkpt>
      <trkpt lat="45.21378" lon="6.02478">
        <ele>2125.4460449219</ele>
        <time>2017-03-10T11:05:50Z</time>
      </trkpt>
      <trkpt lat="45.21382" lon="6.02474">
        <ele>2126.4460449219</ele>
        <time>2017-03-10T11:05:57Z</time>
      </trkpt>
      <trkpt lat="45.21383" lon="6.02468">
        <ele>2125.4460449219</ele>
        <time>2017-03-10T11:06:10Z</time>
      </trkpt>
      <trkpt lat="45.21381" lon="6.02462">
        <ele>2127.4460449219</ele>
        <time>2017-03-10T11:06:27Z</time>
      </trkpt>
      <trkpt lat="45.21379" lon="6.02455">
        <ele>2125.4460449219</ele>
        <time>2017-03-10T11:06:32Z</time>
      </trkpt>
      <trkpt lat="45.21383" lon="6.02451">
        <ele>2127.4460449219</ele>
        <time>2017-03-10T11:06:36Z</time>
      </trkpt>
      <trkpt lat="45.21389" lon="6.0245">
        <ele>2128.4460449219</ele>
        <time>2017-03-10T11:07:12Z</time>
      </trkpt>
      <trkpt lat="45.21392" lon="6.02455">
        <ele>2130.4460449219</ele>
        <time>2017-03-10T11:07:34Z</time>
      </trkpt>
      <trkpt lat="45.21397" lon="6.02452">
        <ele>2130.4460449219</ele>
        <time>2017-03-10T11:08:08Z</time>
      </trkpt>
      <trkpt lat="45.21401" lon="6.02449">
        <ele>2131.4460449219</ele>
        <time>2017-03-10T11:08:16Z</time>
      </trkpt>
      <trkpt lat="45.21402" lon="6.02455">
        <ele>2133.4460449219</ele>
        <time>2017-03-10T11:08:24Z</time>
      </trkpt>
      <trkpt lat="45.21405" lon="6.02462">
        <ele>2131.4460449219</ele>
        <time>2017-03-10T11:08:30Z</time>
      </trkpt>
      <trkpt lat="45.21409" lon="6.02464">
        <ele>2134.4460449219</ele>
        <time>2017-03-10T11:08:35Z</time>
      </trkpt>
      <trkpt lat="45.21414" lon="6.02464">
        <ele>2138.4460449219</ele>
        <time>2017-03-10T11:08:39Z</time>
      </trkpt>
      <trkpt lat="45.21412" lon="6.02457">
        <ele>2140.4460449219</ele>
        <time>2017-03-10T11:08:56Z</time>
      </trkpt>
      <trkpt lat="45.2141" lon="6.02451">
        <ele>2140.4460449219</ele>
        <time>2017-03-10T11:09:07Z</time>
      </trkpt>
      <trkpt lat="45.21405" lon="6.0245">
        <ele>2141.4460449219</ele>
        <time>2017-03-10T11:09:25Z</time>
      </trkpt>
      <trkpt lat="45.214" lon="6.0245">
        <ele>2142.4460449219</ele>
        <time>2017-03-10T11:09:34Z</time>
      </trkpt>
      <trkpt lat="45.21396" lon="6.02448">
        <ele>2139.4460449219</ele>
        <time>2017-03-10T11:09:39Z</time>
      </trkpt>
      <trkpt lat="45.21392" lon="6.02445">
        <ele>2132.4460449219</ele>
        <time>2017-03-10T11:09:57Z</time>
      </trkpt>
      <trkpt lat="45.2139" lon="6.02439">
        <ele>2134.4460449219</ele>
        <time>2017-03-10T11:10:27Z</time>
      </trkpt>
      <trkpt lat="45.21386" lon="6.02436">
        <ele>2134.4460449219</ele>
        <time>2017-03-10T11:10:45Z</time>
      </trkpt>
      <trkpt lat="45.2139" lon="6.0243">
        <ele>2129.4460449219</ele>
        <time>2017-03-10T11:11:00Z</time>
      </trkpt>
      <trkpt lat="45.21388" lon="6.02425">
        <ele>2128.4460449219</ele>
        <time>2017-03-10T11:11:05Z</time>
      </trkpt>
      <trkpt lat="45.21382" lon="6.0241">
        <ele>2129.4460449219</ele>
        <time>2017-03-10T11:11:08Z</time>
      </trkpt>
      <trkpt lat="45.2138" lon="6.02405">
        <ele>2128.4460449219</ele>
        <time>2017-03-10T11:11:15Z</time>
      </trkpt>
      <trkpt lat="45.21377" lon="6.02398">
        <ele>2129.4460449219</ele>
        <time>2017-03-10T11:11:32Z</time>
      </trkpt>
      <trkpt lat="45.21379" lon="6.02392">
        <ele>2130.4460449219</ele>
        <time>2017-03-10T11:11:37Z</time>
      </trkpt>
      <trkpt lat="45.21378" lon="6.02385">
        <ele>2132.4460449219</ele>
        <time>2017-03-10T11:11:45Z</time>
      </trkpt>
      <trkpt lat="45.21383" lon="6.02384">
        <ele>2131.4460449219</ele>
        <time>2017-03-10T11:11:53Z</time>
      </trkpt>
      <trkpt lat="45.21387" lon="6.02381">
        <ele>2132.4460449219</ele>
        <time>2017-03-10T11:12:04Z</time>
      </trkpt>
      <trkpt lat="45.21388" lon="6.02375">
        <ele>2133.4460449219</ele>
        <time>2017-03-10T11:12:22Z</time>
      </trkpt>
      <trkpt lat="45.21385" lon="6.02369">
        <ele>2135.4460449219</ele>
        <time>2017-03-10T11:12:28Z</time>
      </trkpt>
      <trkpt lat="45.21383" lon="6.02364">
        <ele>2133.4460449219</ele>
        <time>2017-03-10T11:12:35Z</time>
      </trkpt>
      <trkpt lat="45.21381" lon="6.02358">
        <ele>2136.4460449219</ele>
        <time>2017-03-10T11:12:43Z</time>
      </trkpt>
      <trkpt lat="45.21384" lon="6.02352">
        <ele>2140.4460449219</ele>
        <time>2017-03-10T11:12:54Z</time>
      </trkpt>
      <trkpt lat="45.21389" lon="6.02348">
        <ele>2141.4460449219</ele>
        <time>2017-03-10T11:13:00Z</time>
      </trkpt>
      <trkpt lat="45.21389" lon="6.02341">
        <ele>2142.4460449219</ele>
        <time>2017-03-10T11:13:12Z</time>
      </trkpt>
      <trkpt lat="45.2139" lon="6.02335">
        <ele>2148.4460449219</ele>
        <time>2017-03-10T11:13:19Z</time>
      </trkpt>
      <trkpt lat="45.21388" lon="6.0233">
        <ele>2150.4460449219</ele>
        <time>2017-03-10T11:13:28Z</time>
      </trkpt>
      <trkpt lat="45.21389" lon="6.02323">
        <ele>2155.4460449219</ele>
        <time>2017-03-10T11:13:36Z</time>
      </trkpt>
      <trkpt lat="45.21387" lon="6.02317">
        <ele>2155.4460449219</ele>
        <time>2017-03-10T11:13:44Z</time>
      </trkpt>
      <trkpt lat="45.21386" lon="6.0231">
        <ele>2156.4460449219</ele>
        <time>2017-03-10T11:13:51Z</time>
      </trkpt>
      <trkpt lat="45.21385" lon="6.02302">
        <ele>2157.4460449219</ele>
        <time>2017-03-10T11:14:00Z</time>
      </trkpt>
      <trkpt lat="45.21387" lon="6.02296">
        <ele>2158.4460449219</ele>
        <time>2017-03-10T11:14:10Z</time>
      </trkpt>
      <trkpt lat="45.21392" lon="6.02293">
        <ele>2161.4460449219</ele>
        <time>2017-03-10T11:14:16Z</time>
      </trkpt>
      <trkpt lat="45.21396" lon="6.02293">
        <ele>2164.4460449219</ele>
        <time>2017-03-10T11:14:38Z</time>
      </trkpt>
      <trkpt lat="45.214" lon="6.02299">
        <ele>2163.4460449219</ele>
        <time>2017-03-10T11:14:46Z</time>
      </trkpt>
      <trkpt lat="45.21404" lon="6.02301">
        <ele>2164.4460449219</ele>
        <time>2017-03-10T11:15:04Z</time>
      </trkpt>
      <trkpt lat="45.21399" lon="6.02297">
        <ele>2166.4460449219</ele>
        <time>2017-03-10T11:21:35Z</time>
      </trkpt>
      <trkpt lat="45.21395" lon="6.02303">
        <ele>2167.4460449219</ele>
        <time>2017-03-10T11:21:38Z</time>
      </trkpt>
      <trkpt lat="45.21399" lon="6.02319">
        <ele>2164.4460449219</ele>
        <time>2017-03-10T11:21:41Z</time>
      </trkpt>
      <trkpt lat="45.21401" lon="6.0233">
        <ele>2160.4460449219</ele>
        <time>2017-03-10T11:21:43Z</time>
      </trkpt>
      <trkpt lat="45.2141" lon="6.02347">
        <ele>2160.4460449219</ele>
        <time>2017-03-10T11:21:45Z</time>
      </trkpt>
      <trkpt lat="45.21419" lon="6.02365">
        <ele>2155.4460449219</ele>
        <time>2017-03-10T11:21:47Z</time>
      </trkpt>
      <trkpt lat="45.21429" lon="6.02384">
        <ele>2155.4460449219</ele>
        <time>2017-03-10T11:21:49Z</time>
      </trkpt>
      <trkpt lat="45.21445" lon="6.02397">
        <ele>2153.4460449219</ele>
        <time>2017-03-10T11:21:51Z</time>
      </trkpt>
      <trkpt lat="45.2145" lon="6.02405">
        <ele>2151.4460449219</ele>
        <time>2017-03-10T11:21:52Z</time>
      </trkpt>
      <trkpt lat="45.21457" lon="6.02424">
        <ele>2148.4460449219</ele>
        <time>2017-03-10T11:21:54Z</time>
      </trkpt>
      <trkpt lat="45.21461" lon="6.02445">
        <ele>2146.4460449219</ele>
        <time>2017-03-10T11:21:56Z</time>
      </trkpt>
      <trkpt lat="45.21468" lon="6.02449">
        <ele>2140.4460449219</ele>
        <time>2017-03-10T11:21:57Z</time>
      </trkpt>
      <trkpt lat="45.21482" lon="6.02463">
        <ele>2137.4460449219</ele>
        <time>2017-03-10T11:21:59Z</time>
      </trkpt>
      <trkpt lat="45.21492" lon="6.02471">
        <ele>2138.4460449219</ele>
        <time>2017-03-10T11:22:01Z</time>
      </trkpt>
      <trkpt lat="45.21496" lon="6.02475">
        <ele>2127.4460449219</ele>
        <time>2017-03-10T11:22:18Z</time>
      </trkpt>
      <trkpt lat="45.21506" lon="6.02484">
        <ele>2125.4460449219</ele>
        <time>2017-03-10T11:22:20Z</time>
      </trkpt>
      <trkpt lat="45.21518" lon="6.02492">
        <ele>2121.4470214844</ele>
        <time>2017-03-10T11:22:23Z</time>
      </trkpt>
      <trkpt lat="45.21524" lon="6.02502">
        <ele>2120.4470214844</ele>
        <time>2017-03-10T11:22:25Z</time>
      </trkpt>
      <trkpt lat="45.2153" lon="6.02502">
        <ele>2120.4470214844</ele>
        <time>2017-03-10T11:22:26Z</time>
      </trkpt>
      <trkpt lat="45.21533" lon="6.02508">
        <ele>2116.4470214844</ele>
        <time>2017-03-10T11:22:29Z</time>
      </trkpt>
      <trkpt lat="45.21528" lon="6.02513">
        <ele>2111.4470214844</ele>
        <time>2017-03-10T11:22:35Z</time>
      </trkpt>
      <trkpt lat="45.21528" lon="6.02521">
        <ele>2110.4470214844</ele>
        <time>2017-03-10T11:22:37Z</time>
      </trkpt>
      <trkpt lat="45.21524" lon="6.02535">
        <ele>2111.4470214844</ele>
        <time>2017-03-10T11:22:39Z</time>
      </trkpt>
      <trkpt lat="45.21526" lon="6.02545">
        <ele>2109.4470214844</ele>
        <time>2017-03-10T11:22:41Z</time>
      </trkpt>
      <trkpt lat="45.21542" lon="6.02557">
        <ele>2105.4470214844</ele>
        <time>2017-03-10T11:22:43Z</time>
      </trkpt>
      <trkpt lat="45.21546" lon="6.02563">
        <ele>2104.4470214844</ele>
        <time>2017-03-10T11:22:45Z</time>
      </trkpt>
      <trkpt lat="45.21551" lon="6.02565">
        <ele>2101.4470214844</ele>
        <time>2017-03-10T11:22:47Z</time>
      </trkpt>
      <trkpt lat="45.21555" lon="6.0257">
        <ele>2100.4470214844</ele>
        <time>2017-03-10T11:22:50Z</time>
      </trkpt>
      <trkpt lat="45.21556" lon="6.02563">
        <ele>2095.4470214844</ele>
        <time>2017-03-10T11:23:28Z</time>
      </trkpt>
      <trkpt lat="45.2156" lon="6.02556">
        <ele>2090.4470214844</ele>
        <time>2017-03-10T11:23:32Z</time>
      </trkpt>
      <trkpt lat="45.21561" lon="6.0255">
        <ele>2088.4470214844</ele>
        <time>2017-03-10T11:23:35Z</time>
      </trkpt>
      <trkpt lat="45.21564" lon="6.02544">
        <ele>2083.4470214844</ele>
        <time>2017-03-10T11:23:47Z</time>
      </trkpt>
      <trkpt lat="45.21569" lon="6.0254">
        <ele>2075.4470214844</ele>
        <time>2017-03-10T11:24:04Z</time>
      </trkpt>
      <trkpt lat="45.21577" lon="6.02529">
        <ele>2075.4470214844</ele>
        <time>2017-03-10T11:24:06Z</time>
      </trkpt>
      <trkpt lat="45.21586" lon="6.02512">
        <ele>2073.4470214844</ele>
        <time>2017-03-10T11:24:08Z</time>
      </trkpt>
      <trkpt lat="45.21597" lon="6.02498">
        <ele>2073.4470214844</ele>
        <time>2017-03-10T11:24:10Z</time>
      </trkpt>
      <trkpt lat="45.21609" lon="6.02488">
        <ele>2072.4470214844</ele>
        <time>2017-03-10T11:24:12Z</time>
      </trkpt>
      <trkpt lat="45.21623" lon="6.02484">
        <ele>2071.4470214844</ele>
        <time>2017-03-10T11:24:14Z</time>
      </trkpt>
      <trkpt lat="45.21633" lon="6.02492">
        <ele>2071.4470214844</ele>
        <time>2017-03-10T11:24:16Z</time>
      </trkpt>
      <trkpt lat="45.21632" lon="6.0252">
        <ele>2067.4470214844</ele>
        <time>2017-03-10T11:24:17Z</time>
      </trkpt>
      <trkpt lat="45.21648" lon="6.02546">
        <ele>2064.4470214844</ele>
        <time>2017-03-10T11:24:19Z</time>
      </trkpt>
      <trkpt lat="45.21657" lon="6.02552">
        <ele>2063.4470214844</ele>
        <time>2017-03-10T11:24:20Z</time>
      </trkpt>
      <trkpt lat="45.21662" lon="6.02555">
        <ele>2060.4470214844</ele>
        <time>2017-03-10T11:24:21Z</time>
      </trkpt>
      <trkpt lat="45.21676" lon="6.02571">
        <ele>2058.4470214844</ele>
        <time>2017-03-10T11:24:36Z</time>
      </trkpt>
      <trkpt lat="45.21676" lon="6.02584">
        <ele>2058.4470214844</ele>
        <time>2017-03-10T11:24:38Z</time>
      </trkpt>
      <trkpt lat="45.21676" lon="6.02597">
        <ele>2051.4470214844</ele>
        <time>2017-03-10T11:24:50Z</time>
      </trkpt>
      <trkpt lat="45.21681" lon="6.02605">
        <ele>2050.4470214844</ele>
        <time>2017-03-10T11:24:52Z</time>
      </trkpt>
      <trkpt lat="45.2169" lon="6.02609">
        <ele>2048.4470214844</ele>
        <time>2017-03-10T11:24:54Z</time>
      </trkpt>
      <trkpt lat="45.21694" lon="6.02617">
        <ele>2047.4470214844</ele>
        <time>2017-03-10T11:24:55Z</time>
      </trkpt>
      <trkpt lat="45.21709" lon="6.02616">
        <ele>2043.4470214844</ele>
        <time>2017-03-10T11:24:57Z</time>
      </trkpt>
      <trkpt lat="45.21724" lon="6.02615">
        <ele>2042.4470214844</ele>
        <time>2017-03-10T11:24:59Z</time>
      </trkpt>
      <trkpt lat="45.21733" lon="6.02629">
        <ele>2041.4470214844</ele>
        <time>2017-03-10T11:25:01Z</time>
      </trkpt>
      <trkpt lat="45.21739" lon="6.02643">
        <ele>2039.4470214844</ele>
        <time>2017-03-10T11:25:03Z</time>
      </trkpt>
      <trkpt lat="45.21744" lon="6.02658">
        <ele>2036.4470214844</ele>
        <time>2017-03-10T11:25:05Z</time>
      </trkpt>
      <trkpt lat="45.2175" lon="6.02673">
        <ele>2037.4470214844</ele>
        <time>2017-03-10T11:25:07Z</time>
      </trkpt>
      <trkpt lat="45.21745" lon="6.02678">
        <ele>2032.4470214844</ele>
        <time>2017-03-10T11:25:15Z</time>
      </trkpt>
      <trkpt lat="45.21745" lon="6.02693">
        <ele>2030.4470214844</ele>
        <time>2017-03-10T11:25:17Z</time>
      </trkpt>
      <trkpt lat="45.21748" lon="6.02706">
        <ele>2029.4470214844</ele>
        <time>2017-03-10T11:25:19Z</time>
      </trkpt>
      <trkpt lat="45.2175" lon="6.02722">
        <ele>2028.4470214844</ele>
        <time>2017-03-10T11:25:21Z</time>
      </trkpt>
      <trkpt lat="45.21748" lon="6.02736">
        <ele>2028.4470214844</ele>
        <time>2017-03-10T11:25:23Z</time>
      </trkpt>
      <trkpt lat="45.2175" lon="6.02744">
        <ele>2027.4470214844</ele>
        <time>2017-03-10T11:25:24Z</time>
      </trkpt>
      <trkpt lat="45.21757" lon="6.02752">
        <ele>2022.4470214844</ele>
        <time>2017-03-10T11:25:26Z</time>
      </trkpt>
      <trkpt lat="45.21762" lon="6.02765">
        <ele>2016.4470214844</ele>
        <time>2017-03-10T11:25:28Z</time>
      </trkpt>
      <trkpt lat="45.21764" lon="6.02777">
        <ele>2014.4470214844</ele>
        <time>2017-03-10T11:25:30Z</time>
      </trkpt>
      <trkpt lat="45.21767" lon="6.0279">
        <ele>2013.4470214844</ele>
        <time>2017-03-10T11:25:32Z</time>
      </trkpt>
      <trkpt lat="45.21765" lon="6.02805">
        <ele>2012.4470214844</ele>
        <time>2017-03-10T11:25:34Z</time>
      </trkpt>
      <trkpt lat="45.21766" lon="6.02824">
        <ele>2011.4470214844</ele>
        <time>2017-03-10T11:25:36Z</time>
      </trkpt>
      <trkpt lat="45.21766" lon="6.0285">
        <ele>2011.4479980469</ele>
        <time>2017-03-10T11:25:38Z</time>
      </trkpt>
      <trkpt lat="45.21768" lon="6.02874">
        <ele>2009.4479980469</ele>
        <time>2017-03-10T11:25:40Z</time>
      </trkpt>
      <trkpt lat="45.21772" lon="6.02905">
        <ele>1617.4479980469</ele>
        <time>2017-03-10T11:25:42Z</time>
      </trkpt>
      <trkpt lat="45.21771" lon="6.02922">
        <ele>1706.4479980469</ele>
        <time>2017-03-10T11:25:43Z</time>
      </trkpt>
      <trkpt lat="45.21774" lon="6.02929">
        <ele>1775.4479980469</ele>
        <time>2017-03-10T11:25:44Z</time>
      </trkpt>
      <trkpt lat="45.21781" lon="6.02928">
        <ele>1937.4479980469</ele>
        <time>2017-03-10T11:25:49Z</time>
      </trkpt>
      <trkpt lat="45.21784" lon="6.02924">
        <ele>1960.4479980469</ele>
        <time>2017-03-10T11:25:51Z</time>
      </trkpt>
      <trkpt lat="45.21789" lon="6.0292">
        <ele>1972.4479980469</ele>
        <time>2017-03-10T11:25:53Z</time>
      </trkpt>
      <trkpt lat="45.21795" lon="6.02917">
        <ele>1978.4479980469</ele>
        <time>2017-03-10T11:25:55Z</time>
      </trkpt>
      <trkpt lat="45.21799" lon="6.02909">
        <ele>1983.4479980469</ele>
        <time>2017-03-10T11:25:57Z</time>
      </trkpt>
      <trkpt lat="45.21801" lon="6.02896">
        <ele>1996.4479980469</ele>
        <time>2017-03-10T11:26:00Z</time>
      </trkpt>
      <trkpt lat="45.21804" lon="6.02891">
        <ele>1991.4479980469</ele>
        <time>2017-03-10T11:26:11Z</time>
      </trkpt>
      <trkpt lat="45.21808" lon="6.02886">
        <ele>1992.4479980469</ele>
        <time>2017-03-10T11:26:13Z</time>
      </trkpt>
      <trkpt lat="45.2181" lon="6.02859">
        <ele>1989.4479980469</ele>
        <time>2017-03-10T11:26:16Z</time>
      </trkpt>
      <trkpt lat="45.21813" lon="6.02831">
        <ele>1989.4479980469</ele>
        <time>2017-03-10T11:26:18Z</time>
      </trkpt>
      <trkpt lat="45.21824" lon="6.02807">
        <ele>1987.4479980469</ele>
        <time>2017-03-10T11:26:20Z</time>
      </trkpt>
      <trkpt lat="45.21834" lon="6.02788">
        <ele>1985.4479980469</ele>
        <time>2017-03-10T11:26:22Z</time>
      </trkpt>
      <trkpt lat="45.21837" lon="6.02768">
        <ele>1984.4479980469</ele>
        <time>2017-03-10T11:26:24Z</time>
      </trkpt>
      <trkpt lat="45.21836" lon="6.02745">
        <ele>1982.4470214844</ele>
        <time>2017-03-10T11:26:26Z</time>
      </trkpt>
      <trkpt lat="45.21838" lon="6.02719">
        <ele>1981.4470214844</ele>
        <time>2017-03-10T11:26:28Z</time>
      </trkpt>
      <trkpt lat="45.21847" lon="6.02696">
        <ele>1979.4470214844</ele>
        <time>2017-03-10T11:26:30Z</time>
      </trkpt>
      <trkpt lat="45.21855" lon="6.0268">
        <ele>1979.4470214844</ele>
        <time>2017-03-10T11:26:32Z</time>
      </trkpt>
      <trkpt lat="45.21857" lon="6.02666">
        <ele>1979.4470214844</ele>
        <time>2017-03-10T11:26:34Z</time>
      </trkpt>
      <trkpt lat="45.21856" lon="6.02655">
        <ele>1975.4470214844</ele>
        <time>2017-03-10T11:26:36Z</time>
      </trkpt>
      <trkpt lat="45.21852" lon="6.02648">
        <ele>1975.4470214844</ele>
        <time>2017-03-10T11:26:38Z</time>
      </trkpt>
      <trkpt lat="45.21846" lon="6.02641">
        <ele>1973.4470214844</ele>
        <time>2017-03-10T11:26:39Z</time>
      </trkpt>
      <trkpt lat="45.21847" lon="6.02628">
        <ele>1971.4470214844</ele>
        <time>2017-03-10T11:26:41Z</time>
      </trkpt>
      <trkpt lat="45.21849" lon="6.02622">
        <ele>1971.4470214844</ele>
        <time>2017-03-10T11:26:43Z</time>
      </trkpt>
      <trkpt lat="45.21851" lon="6.0261">
        <ele>1961.4470214844</ele>
        <time>2017-03-10T11:26:48Z</time>
      </trkpt>
      <trkpt lat="45.21854" lon="6.02601">
        <ele>1961.4470214844</ele>
        <time>2017-03-10T11:26:50Z</time>
      </trkpt>
      <trkpt lat="45.21858" lon="6.02596">
        <ele>1958.4470214844</ele>
        <time>2017-03-10T11:26:52Z</time>
      </trkpt>
      <trkpt lat="45.21857" lon="6.02587">
        <ele>1848.4470214844</ele>
        <time>2017-03-10T11:27:41Z</time>
      </trkpt>
      <trkpt lat="45.21854" lon="6.02576">
        <ele>1891.4470214844</ele>
        <time>2017-03-10T11:27:43Z</time>
      </trkpt>
      <trkpt lat="45.2185" lon="6.02571">
        <ele>1908.4470214844</ele>
        <time>2017-03-10T11:27:47Z</time>
      </trkpt>
      <trkpt lat="45.21848" lon="6.02565">
        <ele>1943.4470214844</ele>
        <time>2017-03-10T11:27:58Z</time>
      </trkpt>
      <trkpt lat="45.21852" lon="6.02571">
        <ele>1950.4470214844</ele>
        <time>2017-03-10T11:28:06Z</time>
      </trkpt>
      <trkpt lat="45.21856" lon="6.02577">
        <ele>1950.4470214844</ele>
        <time>2017-03-10T11:28:10Z</time>
      </trkpt>
      <trkpt lat="45.2186" lon="6.02582">
        <ele>1949.4470214844</ele>
        <time>2017-03-10T11:28:17Z</time>
      </trkpt>
      <trkpt lat="45.21864" lon="6.02587">
        <ele>1950.4470214844</ele>
        <time>2017-03-10T11:28:19Z</time>
      </trkpt>
      <trkpt lat="45.21876" lon="6.02596">
        <ele>1950.4470214844</ele>
        <time>2017-03-10T11:28:23Z</time>
      </trkpt>
      <trkpt lat="45.21881" lon="6.02598">
        <ele>1950.4470214844</ele>
        <time>2017-03-10T11:28:34Z</time>
      </trkpt>
      <trkpt lat="45.21889" lon="6.02602">
        <ele>1948.4470214844</ele>
        <time>2017-03-10T11:28:36Z</time>
      </trkpt>
      <trkpt lat="45.21895" lon="6.02606">
        <ele>1947.4470214844</ele>
        <time>2017-03-10T11:28:38Z</time>
      </trkpt>
      <trkpt lat="45.219" lon="6.02609">
        <ele>1946.4470214844</ele>
        <time>2017-03-10T11:28:40Z</time>
      </trkpt>
      <trkpt lat="45.21904" lon="6.02613">
        <ele>1944.4470214844</ele>
        <time>2017-03-10T11:28:42Z</time>
      </trkpt>
      <trkpt lat="45.21907" lon="6.02619">
        <ele>1942.4470214844</ele>
        <time>2017-03-10T11:28:46Z</time>
      </trkpt>
      <trkpt lat="45.21911" lon="6.02627">
        <ele>1940.4470214844</ele>
        <time>2017-03-10T11:28:53Z</time>
      </trkpt>
      <trkpt lat="45.21918" lon="6.02639">
        <ele>1937.4479980469</ele>
        <time>2017-03-10T11:28:55Z</time>
      </trkpt>
      <trkpt lat="45.21928" lon="6.02646">
        <ele>1928.4479980469</ele>
        <time>2017-03-10T11:28:58Z</time>
      </trkpt>
      <trkpt lat="45.21937" lon="6.02649">
        <ele>1925.4479980469</ele>
        <time>2017-03-10T11:29:00Z</time>
      </trkpt>
      <trkpt lat="45.21943" lon="6.02651">
        <ele>1923.4479980469</ele>
        <time>2017-03-10T11:29:01Z</time>
      </trkpt>
      <trkpt lat="45.21956" lon="6.02657">
        <ele>1922.4479980469</ele>
        <time>2017-03-10T11:29:03Z</time>
      </trkpt>
      <trkpt lat="45.21971" lon="6.02661">
        <ele>1922.4479980469</ele>
        <time>2017-03-10T11:29:05Z</time>
      </trkpt>
      <trkpt lat="45.21983" lon="6.02662">
        <ele>1923.4479980469</ele>
        <time>2017-03-10T11:29:07Z</time>
      </trkpt>
      <trkpt lat="45.21988" lon="6.02662">
        <ele>1921.4479980469</ele>
        <time>2017-03-10T11:29:08Z</time>
      </trkpt>
      <trkpt lat="45.22009" lon="6.02668">
        <ele>1916.4479980469</ele>
        <time>2017-03-10T11:29:12Z</time>
      </trkpt>
      <trkpt lat="45.2202" lon="6.02661">
        <ele>1913.4479980469</ele>
        <time>2017-03-10T11:29:17Z</time>
      </trkpt>
      <trkpt lat="45.22026" lon="6.02656">
        <ele>1911.4479980469</ele>
        <time>2017-03-10T11:29:19Z</time>
      </trkpt>
      <trkpt lat="45.2203" lon="6.02649">
        <ele>1928.4479980469</ele>
        <time>2017-03-10T11:29:23Z</time>
      </trkpt>
      <trkpt lat="45.22025" lon="6.02648">
        <ele>1917.4479980469</ele>
        <time>2017-03-10T11:29:30Z</time>
      </trkpt>
      <trkpt lat="45.22018" lon="6.02642">
        <ele>1912.4479980469</ele>
        <time>2017-03-10T11:29:43Z</time>
      </trkpt>
      <trkpt lat="45.22008" lon="6.02635">
        <ele>1911.4479980469</ele>
        <time>2017-03-10T11:29:45Z</time>
      </trkpt>
      <trkpt lat="45.21999" lon="6.02623">
        <ele>1908.4479980469</ele>
        <time>2017-03-10T11:29:47Z</time>
      </trkpt>
      <trkpt lat="45.21991" lon="6.02614">
        <ele>1906.4479980469</ele>
        <time>2017-03-10T11:29:51Z</time>
      </trkpt>
      <trkpt lat="45.21996" lon="6.02614">
        <ele>1901.4479980469</ele>
        <time>2017-03-10T11:29:53Z</time>
      </trkpt>
      <trkpt lat="45.22001" lon="6.02606">
        <ele>1897.4479980469</ele>
        <time>2017-03-10T11:29:55Z</time>
      </trkpt>
      <trkpt lat="45.22011" lon="6.02606">
        <ele>1890.4479980469</ele>
        <time>2017-03-10T11:29:57Z</time>
      </trkpt>
      <trkpt lat="45.22025" lon="6.026">
        <ele>1905.4479980469</ele>
        <time>2017-03-10T11:30:00Z</time>
      </trkpt>
      <trkpt lat="45.22035" lon="6.02597">
        <ele>1874.4479980469</ele>
        <time>2017-03-10T11:30:12Z</time>
      </trkpt>
      <trkpt lat="45.22043" lon="6.02598">
        <ele>1872.4479980469</ele>
        <time>2017-03-10T11:30:13Z</time>
      </trkpt>
      <trkpt lat="45.22048" lon="6.026">
        <ele>1869.4479980469</ele>
        <time>2017-03-10T11:30:14Z</time>
      </trkpt>
      <trkpt lat="45.22055" lon="6.02603">
        <ele>1867.4479980469</ele>
        <time>2017-03-10T11:30:15Z</time>
      </trkpt>
      <trkpt lat="45.22065" lon="6.0261">
        <ele>1866.4479980469</ele>
        <time>2017-03-10T11:30:17Z</time>
      </trkpt>
      <trkpt lat="45.22079" lon="6.02616">
        <ele>1862.4479980469</ele>
        <time>2017-03-10T11:30:20Z</time>
      </trkpt>
      <trkpt lat="45.22091" lon="6.02621">
        <ele>1861.4479980469</ele>
        <time>2017-03-10T11:30:22Z</time>
      </trkpt>
      <trkpt lat="45.22102" lon="6.02626">
        <ele>1859.4479980469</ele>
        <time>2017-03-10T11:30:24Z</time>
      </trkpt>
      <trkpt lat="45.22114" lon="6.02631">
        <ele>1860.4479980469</ele>
        <time>2017-03-10T11:30:26Z</time>
      </trkpt>
      <trkpt lat="45.22129" lon="6.02635">
        <ele>1859.4479980469</ele>
        <time>2017-03-10T11:30:28Z</time>
      </trkpt>
      <trkpt lat="45.22141" lon="6.0264">
        <ele>1859.4479980469</ele>
        <time>2017-03-10T11:30:30Z</time>
      </trkpt>
      <trkpt lat="45.22152" lon="6.02639">
        <ele>1860.4479980469</ele>
        <time>2017-03-10T11:30:32Z</time>
      </trkpt>
      <trkpt lat="45.22158" lon="6.02632">
        <ele>1850.4479980469</ele>
        <time>2017-03-10T11:30:34Z</time>
      </trkpt>
      <trkpt lat="45.22165" lon="6.0263">
        <ele>1846.4479980469</ele>
        <time>2017-03-10T11:30:35Z</time>
      </trkpt>
      <trkpt lat="45.22181" lon="6.02626">
        <ele>1840.4479980469</ele>
        <time>2017-03-10T11:30:37Z</time>
      </trkpt>
      <trkpt lat="45.22195" lon="6.02623">
        <ele>1839.4479980469</ele>
        <time>2017-03-10T11:30:39Z</time>
      </trkpt>
      <trkpt lat="45.22208" lon="6.0262">
        <ele>1837.4479980469</ele>
        <time>2017-03-10T11:30:41Z</time>
      </trkpt>
      <trkpt lat="45.22214" lon="6.02616">
        <ele>1835.4479980469</ele>
        <time>2017-03-10T11:30:42Z</time>
      </trkpt>
      <trkpt lat="45.22219" lon="6.02611">
        <ele>1835.4479980469</ele>
        <time>2017-03-10T11:30:43Z</time>
      </trkpt>
      <trkpt lat="45.22232" lon="6.02602">
        <ele>1833.4479980469</ele>
        <time>2017-03-10T11:30:45Z</time>
      </trkpt>
      <trkpt lat="45.22245" lon="6.02594">
        <ele>1828.4479980469</ele>
        <time>2017-03-10T11:30:48Z</time>
      </trkpt>
      <trkpt lat="45.2224" lon="6.02587">
        <ele>1828.4479980469</ele>
        <time>2017-03-10T11:30:55Z</time>
      </trkpt>
      <trkpt lat="45.22239" lon="6.02575">
        <ele>1828.4479980469</ele>
        <time>2017-03-10T11:30:57Z</time>
      </trkpt>
      <trkpt lat="45.22233" lon="6.02559">
        <ele>1825.4479980469</ele>
        <time>2017-03-10T11:30:59Z</time>
      </trkpt>
      <trkpt lat="45.22229" lon="6.02545">
        <ele>1822.4479980469</ele>
        <time>2017-03-10T11:31:00Z</time>
      </trkpt>
      <trkpt lat="45.22226" lon="6.02523">
        <ele>1816.4479980469</ele>
        <time>2017-03-10T11:31:02Z</time>
      </trkpt>
      <trkpt lat="45.22217" lon="6.02515">
        <ele>1815.4479980469</ele>
        <time>2017-03-10T11:31:03Z</time>
      </trkpt>
      <trkpt lat="45.22212" lon="6.0251">
        <ele>1814.4479980469</ele>
        <time>2017-03-10T11:31:04Z</time>
      </trkpt>
      <trkpt lat="45.22203" lon="6.02492">
        <ele>1821.4479980469</ele>
        <time>2017-03-10T11:31:06Z</time>
      </trkpt>
      <trkpt lat="45.22199" lon="6.02457">
        <ele>1816.4479980469</ele>
        <time>2017-03-10T11:31:08Z</time>
      </trkpt>
      <trkpt lat="45.22191" lon="6.02429">
        <ele>1813.4479980469</ele>
        <time>2017-03-10T11:31:10Z</time>
      </trkpt>
      <trkpt lat="45.22199" lon="6.0241">
        <ele>1811.4479980469</ele>
        <time>2017-03-10T11:31:11Z</time>
      </trkpt>
      <trkpt lat="45.22202" lon="6.02371">
        <ele>1807.4479980469</ele>
        <time>2017-03-10T11:31:13Z</time>
      </trkpt>
      <trkpt lat="45.22194" lon="6.02348">
        <ele>1800.4479980469</ele>
        <time>2017-03-10T11:31:14Z</time>
      </trkpt>
      <trkpt lat="45.22195" lon="6.02309">
        <ele>1798.4479980469</ele>
        <time>2017-03-10T11:31:16Z</time>
      </trkpt>
      <trkpt lat="45.22194" lon="6.02277">
        <ele>1797.4479980469</ele>
        <time>2017-03-10T11:31:18Z</time>
      </trkpt>
      <trkpt lat="45.22196" lon="6.02272">
        <ele>1794.4479980469</ele>
        <time>2017-03-10T11:31:19Z</time>
      </trkpt>
      <trkpt lat="45.22196" lon="6.02277">
        <ele>1772.4479980469</ele>
        <time>2017-03-10T11:32:03Z</time>
      </trkpt>
      <trkpt lat="45.22198" lon="6.02267">
        <ele>1771.4479980469</ele>
        <time>2017-03-10T11:32:05Z</time>
      </trkpt>
      <trkpt lat="45.22201" lon="6.02256">
        <ele>1760.4479980469</ele>
        <time>2017-03-10T11:32:07Z</time>
      </trkpt>
      <trkpt lat="45.22201" lon="6.02246">
        <ele>1757.4479980469</ele>
        <time>2017-03-10T11:32:09Z</time>
      </trkpt>
      <trkpt lat="45.22199" lon="6.02236">
        <ele>1747.4479980469</ele>
        <time>2017-03-10T11:32:11Z</time>
      </trkpt>
      <trkpt lat="45.22206" lon="6.02226">
        <ele>1745.4479980469</ele>
        <time>2017-03-10T11:32:13Z</time>
      </trkpt>
      <trkpt lat="45.22209" lon="6.02212">
        <ele>1744.4470214844</ele>
        <time>2017-03-10T11:32:15Z</time>
      </trkpt>
      <trkpt lat="45.22211" lon="6.02201">
        <ele>1742.4470214844</ele>
        <time>2017-03-10T11:32:17Z</time>
      </trkpt>
      <trkpt lat="45.22208" lon="6.02187">
        <ele>1740.4470214844</ele>
        <time>2017-03-10T11:32:19Z</time>
      </trkpt>
      <trkpt lat="45.22212" lon="6.02174">
        <ele>1738.4470214844</ele>
        <time>2017-03-10T11:32:21Z</time>
      </trkpt>
      <trkpt lat="45.22217" lon="6.02168">
        <ele>1737.4470214844</ele>
        <time>2017-03-10T11:32:23Z</time>
      </trkpt>
      <trkpt lat="45.22222" lon="6.02162">
        <ele>1733.4470214844</ele>
        <time>2017-03-10T11:32:26Z</time>
      </trkpt>
      <trkpt lat="45.22225" lon="6.02152">
        <ele>1730.4470214844</ele>
        <time>2017-03-10T11:32:28Z</time>
      </trkpt>
      <trkpt lat="45.2223" lon="6.02139">
        <ele>1730.4470214844</ele>
        <time>2017-03-10T11:32:31Z</time>
      </trkpt>
      <trkpt lat="45.22234" lon="6.02133">
        <ele>1729.4470214844</ele>
        <time>2017-03-10T11:32:34Z</time>
      </trkpt>
      <trkpt lat="45.22236" lon="6.02126">
        <ele>1729.4470214844</ele>
        <time>2017-03-10T11:32:36Z</time>
      </trkpt>
      <trkpt lat="45.22241" lon="6.02121">
        <ele>1729.4470214844</ele>
        <time>2017-03-10T11:32:37Z</time>
      </trkpt>
      <trkpt lat="45.22246" lon="6.02115">
        <ele>1728.4470214844</ele>
        <time>2017-03-10T11:32:39Z</time>
      </trkpt>
      <trkpt lat="45.22249" lon="6.02109">
        <ele>1728.4470214844</ele>
        <time>2017-03-10T11:32:41Z</time>
      </trkpt>
      <trkpt lat="45.22246" lon="6.02103">
        <ele>1728.4470214844</ele>
        <time>2017-03-10T11:32:42Z</time>
      </trkpt>
      <trkpt lat="45.22245" lon="6.02091">
        <ele>1727.4470214844</ele>
        <time>2017-03-10T11:32:44Z</time>
      </trkpt>
      <trkpt lat="45.22247" lon="6.02072">
        <ele>1724.4470214844</ele>
        <time>2017-03-10T11:32:46Z</time>
      </trkpt>
      <trkpt lat="45.22241" lon="6.02058">
        <ele>1724.4470214844</ele>
        <time>2017-03-10T11:32:48Z</time>
      </trkpt>
      <trkpt lat="45.22237" lon="6.02038">
        <ele>1721.4470214844</ele>
        <time>2017-03-10T11:32:51Z</time>
      </trkpt>
      <trkpt lat="45.22241" lon="6.02018">
        <ele>1720.4470214844</ele>
        <time>2017-03-10T11:32:53Z</time>
      </trkpt>
      <trkpt lat="45.22247" lon="6.02007">
        <ele>1714.4470214844</ele>
        <time>2017-03-10T11:32:55Z</time>
      </trkpt>
      <trkpt lat="45.2225" lon="6.01989">
        <ele>1711.4470214844</ele>
        <time>2017-03-10T11:32:57Z</time>
      </trkpt>
      <trkpt lat="45.22253" lon="6.01979">
        <ele>1710.4470214844</ele>
        <time>2017-03-10T11:32:58Z</time>
      </trkpt>
      <trkpt lat="45.2226" lon="6.01966">
        <ele>1709.4470214844</ele>
        <time>2017-03-10T11:33:00Z</time>
      </trkpt>
      <trkpt lat="45.2226" lon="6.01956">
        <ele>1709.4470214844</ele>
        <time>2017-03-10T11:33:02Z</time>
      </trkpt>
      <trkpt lat="45.22259" lon="6.01949">
        <ele>1708.4470214844</ele>
        <time>2017-03-10T11:33:04Z</time>
      </trkpt>
      <trkpt lat="45.22257" lon="6.01942">
        <ele>1706.4470214844</ele>
        <time>2017-03-10T11:33:06Z</time>
      </trkpt>
      <trkpt lat="45.22254" lon="6.01933">
        <ele>1705.4470214844</ele>
        <time>2017-03-10T11:33:08Z</time>
      </trkpt>
      <trkpt lat="45.22253" lon="6.01911">
        <ele>1705.4470214844</ele>
        <time>2017-03-10T11:33:11Z</time>
      </trkpt>
      <trkpt lat="45.22257" lon="6.01897">
        <ele>1702.4470214844</ele>
        <time>2017-03-10T11:33:13Z</time>
      </trkpt>
      <trkpt lat="45.22261" lon="6.01876">
        <ele>1701.4470214844</ele>
        <time>2017-03-10T11:33:16Z</time>
      </trkpt>
      <trkpt lat="45.2226" lon="6.01867">
        <ele>1701.4470214844</ele>
        <time>2017-03-10T11:33:17Z</time>
      </trkpt>
      <trkpt lat="45.22261" lon="6.01855">
        <ele>1701.4470214844</ele>
        <time>2017-03-10T11:33:19Z</time>
      </trkpt>
      <trkpt lat="45.2226" lon="6.01848">
        <ele>1701.4470214844</ele>
        <time>2017-03-10T11:33:21Z</time>
      </trkpt>
      <trkpt lat="45.22261" lon="6.0184">
        <ele>1699.4470214844</ele>
        <time>2017-03-10T11:33:23Z</time>
      </trkpt>
      <trkpt lat="45.22264" lon="6.01834">
        <ele>1697.4470214844</ele>
        <time>2017-03-10T11:33:25Z</time>
      </trkpt>
      <trkpt lat="45.22271" lon="6.01822">
        <ele>1695.4470214844</ele>
        <time>2017-03-10T11:33:27Z</time>
      </trkpt>
      <trkpt lat="45.22277" lon="6.01805">
        <ele>1693.4470214844</ele>
        <time>2017-03-10T11:33:30Z</time>
      </trkpt>
      <trkpt lat="45.22272" lon="6.01789">
        <ele>1691.4470214844</ele>
        <time>2017-03-10T11:33:32Z</time>
      </trkpt>
      <trkpt lat="45.2227" lon="6.01774">
        <ele>1687.4470214844</ele>
        <time>2017-03-10T11:33:33Z</time>
      </trkpt>
      <trkpt lat="45.22269" lon="6.01753">
        <ele>1684.4470214844</ele>
        <time>2017-03-10T11:33:35Z</time>
      </trkpt>
      <trkpt lat="45.22265" lon="6.01736">
        <ele>1681.4470214844</ele>
        <time>2017-03-10T11:33:37Z</time>
      </trkpt>
      <trkpt lat="45.22264" lon="6.01721">
        <ele>1680.4470214844</ele>
        <time>2017-03-10T11:33:39Z</time>
      </trkpt>
      <trkpt lat="45.22265" lon="6.01714">
        <ele>1680.4470214844</ele>
        <time>2017-03-10T11:33:42Z</time>
      </trkpt>
      <trkpt lat="45.22266" lon="6.01708">
        <ele>1678.4470214844</ele>
        <time>2017-03-10T11:33:43Z</time>
      </trkpt>
      <trkpt lat="45.22266" lon="6.01701">
        <ele>1675.4470214844</ele>
        <time>2017-03-10T11:33:46Z</time>
      </trkpt>
      <trkpt lat="45.22266" lon="6.01694">
        <ele>1677.4470214844</ele>
        <time>2017-03-10T11:33:49Z</time>
      </trkpt>
      <trkpt lat="45.22268" lon="6.01686">
        <ele>1671.4470214844</ele>
        <time>2017-03-10T11:34:02Z</time>
      </trkpt>
      <trkpt lat="45.22266" lon="6.01679">
        <ele>1674.4470214844</ele>
        <time>2017-03-10T11:34:09Z</time>
      </trkpt>
      <trkpt lat="45.22266" lon="6.01672">
        <ele>1676.4470214844</ele>
        <time>2017-03-10T11:34:12Z</time>
      </trkpt>
      <trkpt lat="45.22266" lon="6.01665">
        <ele>1684.4470214844</ele>
        <time>2017-03-10T11:34:24Z</time>
      </trkpt>
      <trkpt lat="45.22266" lon="6.01658">
        <ele>1684.4470214844</ele>
        <time>2017-03-10T11:34:32Z</time>
      </trkpt>
      <trkpt lat="45.22264" lon="6.01652">
        <ele>1685.4470214844</ele>
        <time>2017-03-10T11:34:36Z</time>
      </trkpt>
      <trkpt lat="45.22264" lon="6.01643">
        <ele>1689.4470214844</ele>
        <time>2017-03-10T11:34:44Z</time>
      </trkpt>
      <trkpt lat="45.22262" lon="6.01638">
        <ele>1685.4470214844</ele>
        <time>2017-03-10T11:34:47Z</time>
      </trkpt>
      <trkpt lat="45.22263" lon="6.01628">
        <ele>1685.4470214844</ele>
        <time>2017-03-10T11:34:52Z</time>
      </trkpt>
      <trkpt lat="45.22261" lon="6.01622">
        <ele>1683.4470214844</ele>
        <time>2017-03-10T11:34:56Z</time>
      </trkpt>
      <trkpt lat="45.22262" lon="6.01614">
        <ele>1684.4470214844</ele>
        <time>2017-03-10T11:35:02Z</time>
      </trkpt>
      <trkpt lat="45.22262" lon="6.01607">
        <ele>1682.4470214844</ele>
        <time>2017-03-10T11:35:05Z</time>
      </trkpt>
      <trkpt lat="45.22259" lon="6.016">
        <ele>1680.4470214844</ele>
        <time>2017-03-10T11:35:09Z</time>
      </trkpt>
      <trkpt lat="45.22256" lon="6.01592">
        <ele>1678.4470214844</ele>
        <time>2017-03-10T11:35:13Z</time>
      </trkpt>
      <trkpt lat="45.22254" lon="6.01583">
        <ele>1680.4470214844</ele>
        <time>2017-03-10T11:35:16Z</time>
      </trkpt>
      <trkpt lat="45.22252" lon="6.01576">
        <ele>1680.4470214844</ele>
        <time>2017-03-10T11:35:19Z</time>
      </trkpt>
      <trkpt lat="45.22252" lon="6.01567">
        <ele>1679.4470214844</ele>
        <time>2017-03-10T11:35:22Z</time>
      </trkpt>
      <trkpt lat="45.22251" lon="6.01561">
        <ele>1680.4470214844</ele>
        <time>2017-03-10T11:35:25Z</time>
      </trkpt>
      <trkpt lat="45.22249" lon="6.01554">
        <ele>1680.4470214844</ele>
        <time>2017-03-10T11:35:27Z</time>
      </trkpt>
      <trkpt lat="45.22249" lon="6.01546">
        <ele>1679.4470214844</ele>
        <time>2017-03-10T11:35:29Z</time>
      </trkpt>
      <trkpt lat="45.2225" lon="6.01539">
        <ele>1679.4470214844</ele>
        <time>2017-03-10T11:35:31Z</time>
      </trkpt>
      <trkpt lat="45.22246" lon="6.01534">
        <ele>1678.4470214844</ele>
        <time>2017-03-10T11:35:35Z</time>
      </trkpt>
      <trkpt lat="45.22246" lon="6.01527">
        <ele>1676.4470214844</ele>
        <time>2017-03-10T11:35:40Z</time>
      </trkpt>
      <trkpt lat="45.22244" lon="6.0152">
        <ele>1678.4470214844</ele>
        <time>2017-03-10T11:35:44Z</time>
      </trkpt>
      <trkpt lat="45.22244" lon="6.01513">
        <ele>1679.4470214844</ele>
        <time>2017-03-10T11:35:50Z</time>
      </trkpt>
      <trkpt lat="45.22242" lon="6.01506">
        <ele>1681.4470214844</ele>
        <time>2017-03-10T11:35:54Z</time>
      </trkpt>
      <trkpt lat="45.22241" lon="6.01499">
        <ele>1678.4470214844</ele>
        <time>2017-03-10T11:35:59Z</time>
      </trkpt>
      <trkpt lat="45.22241" lon="6.01492">
        <ele>1675.4470214844</ele>
        <time>2017-03-10T11:36:04Z</time>
      </trkpt>
      <trkpt lat="45.22241" lon="6.01485">
        <ele>1670.4470214844</ele>
        <time>2017-03-10T11:36:07Z</time>
      </trkpt>
      <trkpt lat="45.2224" lon="6.01473">
        <ele>1671.4470214844</ele>
        <time>2017-03-10T11:36:10Z</time>
      </trkpt>
      <trkpt lat="45.22238" lon="6.01465">
        <ele>1670.4470214844</ele>
        <time>2017-03-10T11:36:12Z</time>
      </trkpt>
      <trkpt lat="45.22236" lon="6.01454">
        <ele>1671.4460449219</ele>
        <time>2017-03-10T11:36:14Z</time>
      </trkpt>
      <trkpt lat="45.22234" lon="6.01443">
        <ele>1671.4460449219</ele>
        <time>2017-03-10T11:36:16Z</time>
      </trkpt>
      <trkpt lat="45.22231" lon="6.01437">
        <ele>1672.4460449219</ele>
        <time>2017-03-10T11:36:18Z</time>
      </trkpt>
      <trkpt lat="45.22228" lon="6.01432">
        <ele>1683.4460449219</ele>
        <time>2017-03-10T11:36:34Z</time>
      </trkpt>
      <trkpt lat="45.2223" lon="6.01425">
        <ele>1679.4460449219</ele>
        <time>2017-03-10T11:36:36Z</time>
      </trkpt>
      <trkpt lat="45.22232" lon="6.01418">
        <ele>1676.4460449219</ele>
        <time>2017-03-10T11:36:38Z</time>
      </trkpt>
      <trkpt lat="45.22235" lon="6.01403">
        <ele>1671.4460449219</ele>
        <time>2017-03-10T11:36:40Z</time>
      </trkpt>
      <trkpt lat="45.22241" lon="6.01393">
        <ele>1667.4460449219</ele>
        <time>2017-03-10T11:36:42Z</time>
      </trkpt>
      <trkpt lat="45.22249" lon="6.01388">
        <ele>1668.4460449219</ele>
        <time>2017-03-10T11:36:44Z</time>
      </trkpt>
      <trkpt lat="45.22256" lon="6.01383">
        <ele>1668.4460449219</ele>
        <time>2017-03-10T11:36:46Z</time>
      </trkpt>
      <trkpt lat="45.2226" lon="6.01375">
        <ele>1668.4460449219</ele>
        <time>2017-03-10T11:36:48Z</time>
      </trkpt>
      <trkpt lat="45.22262" lon="6.01369">
        <ele>1672.4460449219</ele>
        <time>2017-03-10T11:36:52Z</time>
      </trkpt>
      <trkpt lat="45.22267" lon="6.01366">
        <ele>1670.4460449219</ele>
        <time>2017-03-10T11:36:54Z</time>
      </trkpt>
      <trkpt lat="45.22273" lon="6.01362">
        <ele>1668.4460449219</ele>
        <time>2017-03-10T11:36:56Z</time>
      </trkpt>
      <trkpt lat="45.22276" lon="6.01356">
        <ele>1668.4460449219</ele>
        <time>2017-03-10T11:36:58Z</time>
      </trkpt>
      <trkpt lat="45.22277" lon="6.01348">
        <ele>1669.4460449219</ele>
        <time>2017-03-10T11:37:00Z</time>
      </trkpt>
      <trkpt lat="45.22278" lon="6.0134">
        <ele>1668.4460449219</ele>
        <time>2017-03-10T11:37:02Z</time>
      </trkpt>
      <trkpt lat="45.22278" lon="6.01324">
        <ele>1666.4460449219</ele>
        <time>2017-03-10T11:37:05Z</time>
      </trkpt>
      <trkpt lat="45.22277" lon="6.01316">
        <ele>1666.4460449219</ele>
        <time>2017-03-10T11:37:07Z</time>
      </trkpt>
      <trkpt lat="45.22275" lon="6.0131">
        <ele>1663.4460449219</ele>
        <time>2017-03-10T11:37:16Z</time>
      </trkpt>
      <trkpt lat="45.22267" lon="6.0131">
        <ele>1662.4460449219</ele>
        <time>2017-03-10T11:37:18Z</time>
      </trkpt>
      <trkpt lat="45.22258" lon="6.01312">
        <ele>1660.4460449219</ele>
        <time>2017-03-10T11:37:20Z</time>
      </trkpt>
      <trkpt lat="45.22246" lon="6.0131">
        <ele>1659.4460449219</ele>
        <time>2017-03-10T11:37:22Z</time>
      </trkpt>
      <trkpt lat="45.22236" lon="6.01301">
        <ele>1655.4460449219</ele>
        <time>2017-03-10T11:37:24Z</time>
      </trkpt>
      <trkpt lat="45.22226" lon="6.01287">
        <ele>1652.4460449219</ele>
        <time>2017-03-10T11:37:26Z</time>
      </trkpt>
      <trkpt lat="45.22226" lon="6.01278">
        <ele>1650.4460449219</ele>
        <time>2017-03-10T11:37:27Z</time>
      </trkpt>
      <trkpt lat="45.2223" lon="6.01263">
        <ele>1647.4460449219</ele>
        <time>2017-03-10T11:37:29Z</time>
      </trkpt>
      <trkpt lat="45.22234" lon="6.01259">
        <ele>1645.4460449219</ele>
        <time>2017-03-10T11:37:30Z</time>
      </trkpt>
      <trkpt lat="45.22236" lon="6.01249">
        <ele>1645.4460449219</ele>
        <time>2017-03-10T11:37:32Z</time>
      </trkpt>
      <trkpt lat="45.22236" lon="6.01241">
        <ele>1645.4460449219</ele>
        <time>2017-03-10T11:37:33Z</time>
      </trkpt>
      <trkpt lat="45.22242" lon="6.01229">
        <ele>1645.4460449219</ele>
        <time>2017-03-10T11:37:35Z</time>
      </trkpt>
      <trkpt lat="45.22241" lon="6.01214">
        <ele>1639.4460449219</ele>
        <time>2017-03-10T11:37:38Z</time>
      </trkpt>
      <trkpt lat="45.2224" lon="6.01204">
        <ele>1635.4460449219</ele>
        <time>2017-03-10T11:37:42Z</time>
      </trkpt>
      <trkpt lat="45.22243" lon="6.01192">
        <ele>1635.4460449219</ele>
        <time>2017-03-10T11:37:44Z</time>
      </trkpt>
      <trkpt lat="45.22241" lon="6.01173">
        <ele>1634.4460449219</ele>
        <time>2017-03-10T11:37:45Z</time>
      </trkpt>
      <trkpt lat="45.22232" lon="6.01156">
        <ele>1633.4460449219</ele>
        <time>2017-03-10T11:37:47Z</time>
      </trkpt>
      <trkpt lat="45.22231" lon="6.01135">
        <ele>1631.4460449219</ele>
        <time>2017-03-10T11:37:49Z</time>
      </trkpt>
      <trkpt lat="45.22234" lon="6.01116">
        <ele>1628.4460449219</ele>
        <time>2017-03-10T11:37:51Z</time>
      </trkpt>
      <trkpt lat="45.22237" lon="6.01094">
        <ele>1623.4460449219</ele>
        <time>2017-03-10T11:37:53Z</time>
      </trkpt>
      <trkpt lat="45.22234" lon="6.01076">
        <ele>1622.4460449219</ele>
        <time>2017-03-10T11:37:55Z</time>
      </trkpt>
      <trkpt lat="45.22232" lon="6.01068">
        <ele>1621.4460449219</ele>
        <time>2017-03-10T11:37:56Z</time>
      </trkpt>
      <trkpt lat="45.22232" lon="6.01059">
        <ele>1621.4460449219</ele>
        <time>2017-03-10T11:37:57Z</time>
      </trkpt>
      <trkpt lat="45.22234" lon="6.01049">
        <ele>1616.4460449219</ele>
        <time>2017-03-10T11:37:58Z</time>
      </trkpt>
      <trkpt lat="45.22237" lon="6.01033">
        <ele>1613.4460449219</ele>
        <time>2017-03-10T11:38:00Z</time>
      </trkpt>
      <trkpt lat="45.22236" lon="6.01022">
        <ele>1610.4460449219</ele>
        <time>2017-03-10T11:38:01Z</time>
      </trkpt>
      <trkpt lat="45.22243" lon="6.01007">
        <ele>1603.4460449219</ele>
        <time>2017-03-10T11:38:03Z</time>
      </trkpt>
      <trkpt lat="45.22249" lon="6.00993">
        <ele>1602.4460449219</ele>
        <time>2017-03-10T11:38:05Z</time>
      </trkpt>
      <trkpt lat="45.22247" lon="6.00975">
        <ele>1601.4460449219</ele>
        <time>2017-03-10T11:38:07Z</time>
      </trkpt>
      <trkpt lat="45.2225" lon="6.00961">
        <ele>1597.4460449219</ele>
        <time>2017-03-10T11:38:09Z</time>
      </trkpt>
      <trkpt lat="45.22252" lon="6.00954">
        <ele>1597.4460449219</ele>
        <time>2017-03-10T11:38:11Z</time>
      </trkpt>
      <trkpt lat="45.2226" lon="6.00941">
        <ele>1593.4460449219</ele>
        <time>2017-03-10T11:38:14Z</time>
      </trkpt>
      <trkpt lat="45.22268" lon="6.00932">
        <ele>1590.4460449219</ele>
        <time>2017-03-10T11:38:17Z</time>
      </trkpt>
      <trkpt lat="45.22274" lon="6.00928">
        <ele>1589.4460449219</ele>
        <time>2017-03-10T11:38:19Z</time>
      </trkpt>
      <trkpt lat="45.22278" lon="6.00922">
        <ele>1588.4460449219</ele>
        <time>2017-03-10T11:38:20Z</time>
      </trkpt>
      <trkpt lat="45.22281" lon="6.00915">
        <ele>1587.4460449219</ele>
        <time>2017-03-10T11:38:22Z</time>
      </trkpt>
      <trkpt lat="45.22285" lon="6.00909">
        <ele>1586.4460449219</ele>
        <time>2017-03-10T11:38:24Z</time>
      </trkpt>
      <trkpt lat="45.22283" lon="6.00901">
        <ele>1585.4460449219</ele>
        <time>2017-03-10T11:38:44Z</time>
      </trkpt>
      <trkpt lat="45.22278" lon="6.00898">
        <ele>1586.4460449219</ele>
        <time>2017-03-10T11:38:47Z</time>
      </trkpt>
      <trkpt lat="45.22274" lon="6.00904">
        <ele>1586.4460449219</ele>
        <time>2017-03-10T11:38:51Z</time>
      </trkpt>
      <trkpt lat="45.22269" lon="6.00907">
        <ele>1581.4460449219</ele>
        <time>2017-03-10T11:39:02Z</time>
      </trkpt>
      <trkpt lat="45.22264" lon="6.00902">
        <ele>1569.4460449219</ele>
        <time>2017-03-10T11:39:11Z</time>
      </trkpt>
      <trkpt lat="45.22254" lon="6.00894">
        <ele>1566.4460449219</ele>
        <time>2017-03-10T11:39:13Z</time>
      </trkpt>
      <trkpt lat="45.22248" lon="6.00892">
        <ele>1560.4460449219</ele>
        <time>2017-03-10T11:39:15Z</time>
      </trkpt>
      <trkpt lat="45.22246" lon="6.00874">
        <ele>1556.4460449219</ele>
        <time>2017-03-10T11:39:17Z</time>
      </trkpt>
      <trkpt lat="45.22237" lon="6.00864">
        <ele>1553.4460449219</ele>
        <time>2017-03-10T11:39:19Z</time>
      </trkpt>
      <trkpt lat="45.22233" lon="6.00853">
        <ele>1552.4460449219</ele>
        <time>2017-03-10T11:39:21Z</time>
      </trkpt>
      <trkpt lat="45.22227" lon="6.00839">
        <ele>1550.4460449219</ele>
        <time>2017-03-10T11:39:23Z</time>
      </trkpt>
      <trkpt lat="45.22223" lon="6.00829">
        <ele>1548.4460449219</ele>
        <time>2017-03-10T11:39:25Z</time>
      </trkpt>
      <trkpt lat="45.22214" lon="6.00816">
        <ele>1544.4460449219</ele>
        <time>2017-03-10T11:39:28Z</time>
      </trkpt>
      <trkpt lat="45.22207" lon="6.00806">
        <ele>1543.4460449219</ele>
        <time>2017-03-10T11:39:30Z</time>
      </trkpt>
      <trkpt lat="45.22201" lon="6.00789">
        <ele>1541.4460449219</ele>
        <time>2017-03-10T11:39:32Z</time>
      </trkpt>
      <trkpt lat="45.22198" lon="6.00775">
        <ele>1539.4449462891</ele>
        <time>2017-03-10T11:39:34Z</time>
      </trkpt>
      <trkpt lat="45.22195" lon="6.00762">
        <ele>1536.4449462891</ele>
        <time>2017-03-10T11:39:36Z</time>
      </trkpt>
      <trkpt lat="45.22195" lon="6.00748">
        <ele>1535.4449462891</ele>
        <time>2017-03-10T11:39:38Z</time>
      </trkpt>
      <trkpt lat="45.22195" lon="6.00728">
        <ele>1532.4449462891</ele>
        <time>2017-03-10T11:39:41Z</time>
      </trkpt>
      <trkpt lat="45.22201" lon="6.00729">
        <ele>1530.4449462891</ele>
        <time>2017-03-10T11:39:43Z</time>
      </trkpt>
      <trkpt lat="45.2221" lon="6.00732">
        <ele>1527.4449462891</ele>
        <time>2017-03-10T11:39:45Z</time>
      </trkpt>
      <trkpt lat="45.22211" lon="6.00725">
        <ele>1525.4449462891</ele>
        <time>2017-03-10T11:40:09Z</time>
      </trkpt>
      <trkpt lat="45.22216" lon="6.00705">
        <ele>1523.4449462891</ele>
        <time>2017-03-10T11:40:12Z</time>
      </trkpt>
      <trkpt lat="45.22219" lon="6.00696">
        <ele>1523.4449462891</ele>
        <time>2017-03-10T11:40:14Z</time>
      </trkpt>
      <trkpt lat="45.22219" lon="6.00681">
        <ele>1522.4449462891</ele>
        <time>2017-03-10T11:40:16Z</time>
      </trkpt>
      <trkpt lat="45.22218" lon="6.00674">
        <ele>1519.4449462891</ele>
        <time>2017-03-10T11:40:24Z</time>
      </trkpt>
      <trkpt lat="45.22212" lon="6.00671">
        <ele>1520.4449462891</ele>
        <time>2017-03-10T11:40:27Z</time>
      </trkpt>
      <trkpt lat="45.22214" lon="6.00658">
        <ele>1521.4449462891</ele>
        <time>2017-03-10T11:40:30Z</time>
      </trkpt>
      <trkpt lat="45.22218" lon="6.00652">
        <ele>1519.4449462891</ele>
        <time>2017-03-10T11:40:31Z</time>
      </trkpt>
      <trkpt lat="45.22218" lon="6.00644">
        <ele>1521.4449462891</ele>
        <time>2017-03-10T11:40:32Z</time>
      </trkpt>
      <trkpt lat="45.22224" lon="6.00632">
        <ele>1519.4449462891</ele>
        <time>2017-03-10T11:40:34Z</time>
      </trkpt>
      <trkpt lat="45.22226" lon="6.00614">
        <ele>1517.4449462891</ele>
        <time>2017-03-10T11:40:36Z</time>
      </trkpt>
      <trkpt lat="45.22226" lon="6.00607">
        <ele>1514.4449462891</ele>
        <time>2017-03-10T11:40:38Z</time>
      </trkpt>
      <trkpt lat="45.22227" lon="6.006">
        <ele>1511.4449462891</ele>
        <time>2017-03-10T11:40:40Z</time>
      </trkpt>
      <trkpt lat="45.22223" lon="6.00594">
        <ele>1510.4449462891</ele>
        <time>2017-03-10T11:40:42Z</time>
      </trkpt>
      <trkpt lat="45.22216" lon="6.0058">
        <ele>1510.4449462891</ele>
        <time>2017-03-10T11:40:45Z</time>
      </trkpt>
      <trkpt lat="45.22222" lon="6.00582">
        <ele>1510.4449462891</ele>
        <time>2017-03-10T11:40:46Z</time>
      </trkpt>
      <trkpt lat="45.22227" lon="6.00575">
        <ele>1506.4449462891</ele>
        <time>2017-03-10T11:40:49Z</time>
      </trkpt>
      <trkpt lat="45.22229" lon="6.00566">
        <ele>1505.4449462891</ele>
        <time>2017-03-10T11:40:51Z</time>
      </trkpt>
      <trkpt lat="45.22228" lon="6.00555">
        <ele>1503.4449462891</ele>
        <time>2017-03-10T11:40:53Z</time>
      </trkpt>
      <trkpt lat="45.22227" lon="6.00549">
        <ele>1501.4449462891</ele>
        <time>2017-03-10T11:40:54Z</time>
      </trkpt>
      <trkpt lat="45.22225" lon="6.00541">
        <ele>1500.4449462891</ele>
        <time>2017-03-10T11:40:56Z</time>
      </trkpt>
      <trkpt lat="45.22224" lon="6.00528">
        <ele>1498.4449462891</ele>
        <time>2017-03-10T11:40:58Z</time>
      </trkpt>
      <trkpt lat="45.22221" lon="6.0051">
        <ele>1493.4449462891</ele>
        <time>2017-03-10T11:41:01Z</time>
      </trkpt>
      <trkpt lat="45.22226" lon="6.00504">
        <ele>1490.4449462891</ele>
        <time>2017-03-10T11:41:03Z</time>
      </trkpt>
      <trkpt lat="45.22226" lon="6.00496">
        <ele>1486.4449462891</ele>
        <time>2017-03-10T11:41:05Z</time>
      </trkpt>
      <trkpt lat="45.22231" lon="6.00495">
        <ele>1486.4449462891</ele>
        <time>2017-03-10T11:41:15Z</time>
      </trkpt>
      <trkpt lat="45.22237" lon="6.0049">
        <ele>1482.4449462891</ele>
        <time>2017-03-10T11:41:20Z</time>
      </trkpt>
      <trkpt lat="45.22249" lon="6.00487">
        <ele>1480.4449462891</ele>
        <time>2017-03-10T11:41:22Z</time>
      </trkpt>
      <trkpt lat="45.22256" lon="6.00482">
        <ele>1478.4449462891</ele>
        <time>2017-03-10T11:41:24Z</time>
      </trkpt>
      <trkpt lat="45.2226" lon="6.00478">
        <ele>1477.4449462891</ele>
        <time>2017-03-10T11:41:26Z</time>
      </trkpt>
      <trkpt lat="45.22255" lon="6.00468">
        <ele>1476.4449462891</ele>
        <time>2017-03-10T11:41:27Z</time>
      </trkpt>
      <trkpt lat="45.22258" lon="6.00453">
        <ele>1472.4449462891</ele>
        <time>2017-03-10T11:41:29Z</time>
      </trkpt>
      <trkpt lat="45.22252" lon="6.00444">
        <ele>1511.4449462891</ele>
        <time>2017-03-10T11:41:30Z</time>
      </trkpt>
      <trkpt lat="45.22256" lon="6.00439">
        <ele>1490.4449462891</ele>
        <time>2017-03-10T11:41:34Z</time>
      </trkpt>
      <trkpt lat="45.22263" lon="6.00436">
        <ele>1474.4449462891</ele>
        <time>2017-03-10T11:41:45Z</time>
      </trkpt>
      <trkpt lat="45.2227" lon="6.00428">
        <ele>1471.4449462891</ele>
        <time>2017-03-10T11:41:47Z</time>
      </trkpt>
      <trkpt lat="45.22287" lon="6.00414">
        <ele>1466.4449462891</ele>
        <time>2017-03-10T11:41:49Z</time>
      </trkpt>
      <trkpt lat="45.22295" lon="6.00406">
        <ele>1463.4449462891</ele>
        <time>2017-03-10T11:41:50Z</time>
      </trkpt>
      <trkpt lat="45.22313" lon="6.00387">
        <ele>1458.4449462891</ele>
        <time>2017-03-10T11:41:52Z</time>
      </trkpt>
      <trkpt lat="45.22325" lon="6.00367">
        <ele>1454.4449462891</ele>
        <time>2017-03-10T11:41:54Z</time>
      </trkpt>
      <trkpt lat="45.2233" lon="6.00341">
        <ele>1450.4449462891</ele>
        <time>2017-03-10T11:41:56Z</time>
      </trkpt>
      <trkpt lat="45.22329" lon="6.00318">
        <ele>1448.4449462891</ele>
        <time>2017-03-10T11:41:58Z</time>
      </trkpt>
      <trkpt lat="45.22325" lon="6.00304">
        <ele>1447.4449462891</ele>
        <time>2017-03-10T11:42:00Z</time>
      </trkpt>
      <trkpt lat="45.22321" lon="6.00287">
        <ele>1443.4449462891</ele>
        <time>2017-03-10T11:42:02Z</time>
      </trkpt>
      <trkpt lat="45.22309" lon="6.00275">
        <ele>1435.4449462891</ele>
        <time>2017-03-10T11:42:05Z</time>
      </trkpt>
      <trkpt lat="45.22307" lon="6.00266">
        <ele>1432.4449462891</ele>
        <time>2017-03-10T11:42:07Z</time>
      </trkpt>
      <trkpt lat="45.22305" lon="6.0026">
        <ele>1430.4449462891</ele>
        <time>2017-03-10T11:42:08Z</time>
      </trkpt>
      <trkpt lat="45.223" lon="6.00254">
        <ele>1427.4449462891</ele>
        <time>2017-03-10T11:42:10Z</time>
      </trkpt>
      <trkpt lat="45.22299" lon="6.00243">
        <ele>1425.4449462891</ele>
        <time>2017-03-10T11:42:12Z</time>
      </trkpt>
      <trkpt lat="45.223" lon="6.00223">
        <ele>1425.4449462891</ele>
        <time>2017-03-10T11:42:15Z</time>
      </trkpt>
      <trkpt lat="45.22308" lon="6.00212">
        <ele>1425.4449462891</ele>
        <time>2017-03-10T11:42:16Z</time>
      </trkpt>
      <trkpt lat="45.22321" lon="6.00204">
        <ele>1422.4449462891</ele>
        <time>2017-03-10T11:42:18Z</time>
      </trkpt>
      <trkpt lat="45.22331" lon="6.00189">
        <ele>1421.4449462891</ele>
        <time>2017-03-10T11:42:20Z</time>
      </trkpt>
      <trkpt lat="45.2234" lon="6.00176">
        <ele>1420.4449462891</ele>
        <time>2017-03-10T11:42:22Z</time>
      </trkpt>
      <trkpt lat="45.22348" lon="6.00167">
        <ele>1419.4449462891</ele>
        <time>2017-03-10T11:42:24Z</time>
      </trkpt>
      <trkpt lat="45.22357" lon="6.00156">
        <ele>1420.4449462891</ele>
        <time>2017-03-10T11:42:26Z</time>
      </trkpt>
      <trkpt lat="45.22367" lon="6.00146">
        <ele>1416.4449462891</ele>
        <time>2017-03-10T11:42:29Z</time>
      </trkpt>
      <trkpt lat="45.22374" lon="6.00142">
        <ele>1414.4449462891</ele>
        <time>2017-03-10T11:42:31Z</time>
      </trkpt>
      <trkpt lat="45.2238" lon="6.00143">
        <ele>1407.4449462891</ele>
        <time>2017-03-10T11:42:38Z</time>
      </trkpt>
      <trkpt lat="45.22384" lon="6.00141">
        <ele>1404.4449462891</ele>
        <time>2017-03-10T11:42:40Z</time>
      </trkpt>
      <trkpt lat="45.22399" lon="6.00133">
        <ele>1403.4449462891</ele>
        <time>2017-03-10T11:42:45Z</time>
      </trkpt>
      <trkpt lat="45.22407" lon="6.00127">
        <ele>1403.4449462891</ele>
        <time>2017-03-10T11:42:47Z</time>
      </trkpt>
      <trkpt lat="45.22416" lon="6.00117">
        <ele>1402.4449462891</ele>
        <time>2017-03-10T11:42:49Z</time>
      </trkpt>
      <trkpt lat="45.22425" lon="6.00107">
        <ele>1402.4449462891</ele>
        <time>2017-03-10T11:42:51Z</time>
      </trkpt>
      <trkpt lat="45.22435" lon="6.00097">
        <ele>1401.4449462891</ele>
        <time>2017-03-10T11:42:53Z</time>
      </trkpt>
      <trkpt lat="45.22444" lon="6.00084">
        <ele>1395.4449462891</ele>
        <time>2017-03-10T11:42:55Z</time>
      </trkpt>
      <trkpt lat="45.22454" lon="6.00069">
        <ele>1395.4449462891</ele>
        <time>2017-03-10T11:42:57Z</time>
      </trkpt>
      <trkpt lat="45.2246" lon="6.00057">
        <ele>1392.4449462891</ele>
        <time>2017-03-10T11:42:59Z</time>
      </trkpt>
      <trkpt lat="45.2247" lon="6.00048">
        <ele>1389.4449462891</ele>
        <time>2017-03-10T11:43:02Z</time>
      </trkpt>
      <trkpt lat="45.22475" lon="6.0004">
        <ele>1386.4449462891</ele>
        <time>2017-03-10T11:43:04Z</time>
      </trkpt>
      <trkpt lat="45.22486" lon="6.00028">
        <ele>1384.4449462891</ele>
        <time>2017-03-10T11:43:07Z</time>
      </trkpt>
      <trkpt lat="45.22492" lon="6.00013">
        <ele>1385.4449462891</ele>
        <time>2017-03-10T11:43:09Z</time>
      </trkpt>
      <trkpt lat="45.22497" lon="5.99996">
        <ele>1384.4449462891</ele>
        <time>2017-03-10T11:43:11Z</time>
      </trkpt>
      <trkpt lat="45.22504" lon="5.99975">
        <ele>1384.4449462891</ele>
        <time>2017-03-10T11:43:13Z</time>
      </trkpt>
      <trkpt lat="45.22506" lon="5.99966">
        <ele>1385.4449462891</ele>
        <time>2017-03-10T11:43:14Z</time>
      </trkpt>
      <trkpt lat="45.22507" lon="5.99954">
        <ele>1385.4449462891</ele>
        <time>2017-03-10T11:43:15Z</time>
      </trkpt>
      <trkpt lat="45.22508" lon="5.99933">
        <ele>1384.4449462891</ele>
        <time>2017-03-10T11:43:17Z</time>
      </trkpt>
      <trkpt lat="45.22508" lon="5.99918">
        <ele>1382.4449462891</ele>
        <time>2017-03-10T11:43:19Z</time>
      </trkpt>
      <trkpt lat="45.22511" lon="5.99899">
        <ele>1378.4449462891</ele>
        <time>2017-03-10T11:43:21Z</time>
      </trkpt>
      <trkpt lat="45.22515" lon="5.99877">
        <ele>1372.4449462891</ele>
        <time>2017-03-10T11:43:23Z</time>
      </trkpt>
      <trkpt lat="45.22521" lon="5.99853">
        <ele>1371.4449462891</ele>
        <time>2017-03-10T11:43:25Z</time>
      </trkpt>
      <trkpt lat="45.22522" lon="5.99843">
        <ele>1371.4449462891</ele>
        <time>2017-03-10T11:43:26Z</time>
      </trkpt>
      <trkpt lat="45.22526" lon="5.99821">
        <ele>1371.4449462891</ele>
        <time>2017-03-10T11:43:28Z</time>
      </trkpt>
      <trkpt lat="45.2253" lon="5.99794">
        <ele>1372.4449462891</ele>
        <time>2017-03-10T11:43:30Z</time>
      </trkpt>
      <trkpt lat="45.2253" lon="5.99782">
        <ele>1368.4449462891</ele>
        <time>2017-03-10T11:43:31Z</time>
      </trkpt>
      <trkpt lat="45.22526" lon="5.99766">
        <ele>1368.4449462891</ele>
        <time>2017-03-10T11:43:33Z</time>
      </trkpt>
      <trkpt lat="45.22519" lon="5.99784">
        <ele>1367.4449462891</ele>
        <time>2017-03-10T11:43:36Z</time>
      </trkpt>
      <trkpt lat="45.22514" lon="5.99804">
        <ele>1366.4449462891</ele>
        <time>2017-03-10T11:43:39Z</time>
      </trkpt>
      <trkpt lat="45.22513" lon="5.99811">
        <ele>1366.4449462891</ele>
        <time>2017-03-10T11:43:40Z</time>
      </trkpt>
      <trkpt lat="45.22512" lon="5.99819">
        <ele>1367.4449462891</ele>
        <time>2017-03-10T11:43:41Z</time>
      </trkpt>
      <trkpt lat="45.22506" lon="5.99824">
        <ele>1368.4449462891</ele>
        <time>2017-03-10T11:43:43Z</time>
      </trkpt>
      <trkpt lat="45.22501" lon="5.99833">
        <ele>1367.4449462891</ele>
        <time>2017-03-10T11:43:45Z</time>
      </trkpt>
      <trkpt lat="45.22496" lon="5.99838">
        <ele>1364.4449462891</ele>
        <time>2017-03-10T11:43:47Z</time>
      </trkpt>
      <trkpt lat="45.22491" lon="5.99846">
        <ele>1363.4449462891</ele>
        <time>2017-03-10T11:43:49Z</time>
      </trkpt>
      <trkpt lat="45.22488" lon="5.99856">
        <ele>1363.4449462891</ele>
        <time>2017-03-10T11:43:52Z</time>
      </trkpt>
      <trkpt lat="45.22484" lon="5.99862">
        <ele>1364.4449462891</ele>
        <time>2017-03-10T11:43:54Z</time>
      </trkpt>
      <trkpt lat="45.2248" lon="5.9987">
        <ele>1362.4449462891</ele>
        <time>2017-03-10T11:43:57Z</time>
      </trkpt>
      <trkpt lat="45.22477" lon="5.99876">
        <ele>1360.4449462891</ele>
        <time>2017-03-10T11:43:59Z</time>
      </trkpt>
      <trkpt lat="45.22474" lon="5.99881">
        <ele>1360.4449462891</ele>
        <time>2017-03-10T11:44:01Z</time>
      </trkpt>
      <trkpt lat="45.22469" lon="5.99886">
        <ele>1358.4449462891</ele>
        <time>2017-03-10T11:44:03Z</time>
      </trkpt>
      <trkpt lat="45.22464" lon="5.99891">
        <ele>1357.4449462891</ele>
        <time>2017-03-10T11:44:05Z</time>
      </trkpt>
      <trkpt lat="45.22456" lon="5.99891">
        <ele>1353.4449462891</ele>
        <time>2017-03-10T11:44:11Z</time>
      </trkpt>
      <trkpt lat="45.22451" lon="5.99885">
        <ele>1355.4449462891</ele>
        <time>2017-03-10T11:44:14Z</time>
      </trkpt>
      <trkpt lat="45.22446" lon="5.9988">
        <ele>1354.4449462891</ele>
        <time>2017-03-10T11:44:16Z</time>
      </trkpt>
      <trkpt lat="45.22445" lon="5.99873">
        <ele>1353.4449462891</ele>
        <time>2017-03-10T11:44:18Z</time>
      </trkpt>
      <trkpt lat="45.22446" lon="5.99854">
        <ele>1351.4449462891</ele>
        <time>2017-03-10T11:44:21Z</time>
      </trkpt>
      <trkpt lat="45.2245" lon="5.99847">
        <ele>1350.4449462891</ele>
        <time>2017-03-10T11:44:23Z</time>
      </trkpt>
      <trkpt lat="45.22455" lon="5.99842">
        <ele>1349.4449462891</ele>
        <time>2017-03-10T11:44:25Z</time>
      </trkpt>
      <trkpt lat="45.22461" lon="5.99838">
        <ele>1348.4449462891</ele>
        <time>2017-03-10T11:44:27Z</time>
      </trkpt>
      <trkpt lat="45.22468" lon="5.99834">
        <ele>1350.4449462891</ele>
        <time>2017-03-10T11:44:29Z</time>
      </trkpt>
      <trkpt lat="45.22473" lon="5.99833">
        <ele>1347.4449462891</ele>
        <time>2017-03-10T11:44:31Z</time>
      </trkpt>
      <trkpt lat="45.22479" lon="5.99828">
        <ele>1346.4449462891</ele>
        <time>2017-03-10T11:44:33Z</time>
      </trkpt>
      <trkpt lat="45.22484" lon="5.99824">
        <ele>1345.4449462891</ele>
        <time>2017-03-10T11:44:35Z</time>
      </trkpt>
      <trkpt lat="45.22487" lon="5.99818">
        <ele>1348.4449462891</ele>
        <time>2017-03-10T11:44:37Z</time>
      </trkpt>
      <trkpt lat="45.22495" lon="5.99809">
        <ele>1342.4449462891</ele>
        <time>2017-03-10T11:44:40Z</time>
      </trkpt>
      <trkpt lat="45.22497" lon="5.99799">
        <ele>1340.4449462891</ele>
        <time>2017-03-10T11:44:42Z</time>
      </trkpt>
      <trkpt lat="45.22499" lon="5.99788">
        <ele>1342.4449462891</ele>
        <time>2017-03-10T11:44:44Z</time>
      </trkpt>
      <trkpt lat="45.22499" lon="5.99779">
        <ele>1341.4449462891</ele>
        <time>2017-03-10T11:44:46Z</time>
      </trkpt>
      <trkpt lat="45.22499" lon="5.99771">
        <ele>1341.4449462891</ele>
        <time>2017-03-10T11:44:47Z</time>
      </trkpt>
      <trkpt lat="45.225" lon="5.99755">
        <ele>1339.4449462891</ele>
        <time>2017-03-10T11:44:50Z</time>
      </trkpt>
      <trkpt lat="45.225" lon="5.99747">
        <ele>1338.4449462891</ele>
        <time>2017-03-10T11:44:52Z</time>
      </trkpt>
      <trkpt lat="45.22503" lon="5.99738">
        <ele>1338.4449462891</ele>
        <time>2017-03-10T11:44:55Z</time>
      </trkpt>
      <trkpt lat="45.22503" lon="5.99714">
        <ele>1337.4449462891</ele>
        <time>2017-03-10T11:44:58Z</time>
      </trkpt>
      <trkpt lat="45.22507" lon="5.99701">
        <ele>1336.4449462891</ele>
        <time>2017-03-10T11:45:00Z</time>
      </trkpt>
      <trkpt lat="45.22511" lon="5.9969">
        <ele>1334.4449462891</ele>
        <time>2017-03-10T11:45:02Z</time>
      </trkpt>
      <trkpt lat="45.22513" lon="5.99675">
        <ele>1332.4449462891</ele>
        <time>2017-03-10T11:45:04Z</time>
      </trkpt>
      <trkpt lat="45.22513" lon="5.99661">
        <ele>1333.4449462891</ele>
        <time>2017-03-10T11:45:06Z</time>
      </trkpt>
      <trkpt lat="45.22509" lon="5.99645">
        <ele>1334.4449462891</ele>
        <time>2017-03-10T11:45:08Z</time>
      </trkpt>
      <trkpt lat="45.22508" lon="5.99628">
        <ele>1333.4449462891</ele>
        <time>2017-03-10T11:45:10Z</time>
      </trkpt>
      <trkpt lat="45.22508" lon="5.9961">
        <ele>1336.4439697266</ele>
        <time>2017-03-10T11:45:13Z</time>
      </trkpt>
      <trkpt lat="45.22509" lon="5.99603">
        <ele>1335.4439697266</ele>
        <time>2017-03-10T11:45:15Z</time>
      </trkpt>
      <trkpt lat="45.22514" lon="5.996">
        <ele>1331.4439697266</ele>
        <time>2017-03-10T11:46:05Z</time>
      </trkpt>
      <trkpt lat="45.22516" lon="5.99593">
        <ele>1330.4439697266</ele>
        <time>2017-03-10T11:46:09Z</time>
      </trkpt>
      <trkpt lat="45.22519" lon="5.99587">
        <ele>1328.4439697266</ele>
        <time>2017-03-10T11:46:13Z</time>
      </trkpt>
      <trkpt lat="45.22522" lon="5.99581">
        <ele>1327.4439697266</ele>
        <time>2017-03-10T11:46:17Z</time>
      </trkpt>
      <trkpt lat="45.22524" lon="5.99574">
        <ele>1331.4439697266</ele>
        <time>2017-03-10T11:46:20Z</time>
      </trkpt>
      <trkpt lat="45.22527" lon="5.99571">
        <ele>1325.4439697266</ele>
        <time>2017-03-10T11:46:24Z</time>
      </trkpt>
      <trkpt lat="45.22531" lon="5.99566">
        <ele>1324.4439697266</ele>
        <time>2017-03-10T11:46:28Z</time>
      </trkpt>
      <trkpt lat="45.22535" lon="5.9956">
        <ele>1323.4439697266</ele>
        <time>2017-03-10T11:46:32Z</time>
      </trkpt>
      <trkpt lat="45.2254" lon="5.99557">
        <ele>1321.4439697266</ele>
        <time>2017-03-10T11:46:35Z</time>
      </trkpt>
      <trkpt lat="45.22545" lon="5.99554">
        <ele>1320.4439697266</ele>
        <time>2017-03-10T11:46:39Z</time>
      </trkpt>
      <trkpt lat="45.22551" lon="5.99549">
        <ele>1322.4439697266</ele>
        <time>2017-03-10T11:46:42Z</time>
      </trkpt>
      <trkpt lat="45.22552" lon="5.99542">
        <ele>1322.4439697266</ele>
        <time>2017-03-10T11:46:44Z</time>
      </trkpt>
      <trkpt lat="45.22557" lon="5.99537">
        <ele>1320.4439697266</ele>
        <time>2017-03-10T11:46:49Z</time>
      </trkpt>
      <trkpt lat="45.22563" lon="5.99532">
        <ele>1321.4439697266</ele>
        <time>2017-03-10T11:46:53Z</time>
      </trkpt>
      <trkpt lat="45.22568" lon="5.99528">
        <ele>1320.4439697266</ele>
        <time>2017-03-10T11:46:57Z</time>
      </trkpt>
      <trkpt lat="45.22574" lon="5.99526">
        <ele>1316.4439697266</ele>
        <time>2017-03-10T11:47:00Z</time>
      </trkpt>
      <trkpt lat="45.22578" lon="5.99521">
        <ele>1316.4439697266</ele>
        <time>2017-03-10T11:47:04Z</time>
      </trkpt>
      <trkpt lat="45.22583" lon="5.99519">
        <ele>1314.4449462891</ele>
        <time>2017-03-10T11:47:08Z</time>
      </trkpt>
      <trkpt lat="45.22584" lon="5.99511">
        <ele>1313.4439697266</ele>
        <time>2017-03-10T11:47:11Z</time>
      </trkpt>
      <trkpt lat="45.22583" lon="5.99503">
        <ele>1314.4439697266</ele>
        <time>2017-03-10T11:48:05Z</time>
      </trkpt>
      <trkpt lat="45.22586" lon="5.99497">
        <ele>1315.4439697266</ele>
        <time>2017-03-10T11:48:07Z</time>
      </trkpt>
      <trkpt lat="45.2259" lon="5.99491">
        <ele>1315.4439697266</ele>
        <time>2017-03-10T11:48:09Z</time>
      </trkpt>
      <trkpt lat="45.22593" lon="5.99485">
        <ele>1319.4439697266</ele>
        <time>2017-03-10T11:48:11Z</time>
      </trkpt>
      <trkpt lat="45.22595" lon="5.99479">
        <ele>1318.4439697266</ele>
        <time>2017-03-10T11:48:12Z</time>
      </trkpt>
      <trkpt lat="45.226" lon="5.99472">
        <ele>1319.4439697266</ele>
        <time>2017-03-10T11:48:14Z</time>
      </trkpt>
      <trkpt lat="45.22608" lon="5.99465">
        <ele>1319.4439697266</ele>
        <time>2017-03-10T11:48:16Z</time>
      </trkpt>
      <trkpt lat="45.22618" lon="5.99446">
        <ele>1317.4439697266</ele>
        <time>2017-03-10T11:48:19Z</time>
      </trkpt>
      <trkpt lat="45.22627" lon="5.99433">
        <ele>1315.4439697266</ele>
        <time>2017-03-10T11:48:22Z</time>
      </trkpt>
      <trkpt lat="45.22633" lon="5.99424">
        <ele>1314.4439697266</ele>
        <time>2017-03-10T11:48:24Z</time>
      </trkpt>
      <trkpt lat="45.22643" lon="5.9942">
        <ele>1310.4439697266</ele>
        <time>2017-03-10T11:48:26Z</time>
      </trkpt>
      <trkpt lat="45.22657" lon="5.99416">
        <ele>1310.4449462891</ele>
        <time>2017-03-10T11:48:28Z</time>
      </trkpt>
      <trkpt lat="45.22668" lon="5.99411">
        <ele>1308.4449462891</ele>
        <time>2017-03-10T11:48:30Z</time>
      </trkpt>
      <trkpt lat="45.2268" lon="5.99405">
        <ele>1309.4449462891</ele>
        <time>2017-03-10T11:48:32Z</time>
      </trkpt>
      <trkpt lat="45.22692" lon="5.99396">
        <ele>1307.4449462891</ele>
        <time>2017-03-10T11:48:35Z</time>
      </trkpt>
      <trkpt lat="45.22699" lon="5.99392">
        <ele>1306.4449462891</ele>
        <time>2017-03-10T11:48:37Z</time>
      </trkpt>
      <trkpt lat="45.22706" lon="5.99385">
        <ele>1304.4449462891</ele>
        <time>2017-03-10T11:48:39Z</time>
      </trkpt>
      <trkpt lat="45.22713" lon="5.99379">
        <ele>1304.4449462891</ele>
        <time>2017-03-10T11:48:41Z</time>
      </trkpt>
      <trkpt lat="45.22717" lon="5.99376">
        <ele>1303.4449462891</ele>
        <time>2017-03-10T11:48:43Z</time>
      </trkpt>
      <trkpt lat="45.22724" lon="5.99374">
        <ele>1526.4449462891</ele>
        <time>2017-03-10T11:48:47Z</time>
      </trkpt>
      <trkpt lat="45.22724" lon="5.99367">
        <ele>1301.4449462891</ele>
        <time>2017-03-10T11:49:55Z</time>
      </trkpt>
      <trkpt lat="45.22728" lon="5.99365">
        <ele>1294.4449462891</ele>
        <time>2017-03-10T11:50:52Z</time>
      </trkpt>
      <trkpt lat="45.22733" lon="5.99365">
        <ele>1294.4449462891</ele>
        <time>2017-03-10T11:50:57Z</time>
      </trkpt>
      <trkpt lat="45.22729" lon="5.99361">
        <ele>1293.4449462891</ele>
        <time>2017-03-10T11:53:00Z</time>
      </trkpt>
    </trkseg>
  </trk>
</gpx>